<?xml version="1.0" encoding="UTF-8" standalone="no" ?>
<gpx xmlns="http://www.topografix.com/GPX/1/1" xmlns:xsi="http://www.w3.org/2001/XMLSchema-instance" xsi:schemaLocation="http://www.topografix.com/GPX/1/1 http://www.topografix.com/GPX/1/1/gpx.xsd" version="1.1" creator="VisuGPX - https://www.visugpx.com">
  <metadata>
    <name>Saint Quentin de Baron - Camarsac - Croignon</name>
    <desc><![CDATA[Randonnée VTT]]></desc>
  </metadata>
  <trk>
    <name><![CDATA[Croignon]]></name>
    <trkseg>
      <trkpt lat="44.82032" lon="-0.29663">
        <ele>58</ele>
        <time>2012-01-28T11:45:58Z</time>
      </trkpt>
      <trkpt lat="44.82029" lon="-0.29679">
        <ele>58</ele>
        <time>2012-01-28T11:46:01Z</time>
      </trkpt>
      <trkpt lat="44.82022" lon="-0.2949">
        <ele>54</ele>
        <time>2012-01-28T11:46:04Z</time>
      </trkpt>
      <trkpt lat="44.82029" lon="-0.295">
        <ele>54</ele>
        <time>2012-01-28T11:55:11Z</time>
      </trkpt>
      <trkpt lat="44.82021" lon="-0.29507">
        <ele>54</ele>
        <time>2012-01-28T11:55:19Z</time>
      </trkpt>
      <trkpt lat="44.82011" lon="-0.2951">
        <ele>54</ele>
        <time>2012-01-28T11:55:27Z</time>
      </trkpt>
      <trkpt lat="44.82002" lon="-0.29514">
        <ele>55</ele>
        <time>2012-01-28T11:55:32Z</time>
      </trkpt>
      <trkpt lat="44.81993" lon="-0.29518">
        <ele>55</ele>
        <time>2012-01-28T11:55:37Z</time>
      </trkpt>
      <trkpt lat="44.81981" lon="-0.29521">
        <ele>56</ele>
        <time>2012-01-28T11:55:42Z</time>
      </trkpt>
      <trkpt lat="44.81971" lon="-0.29526">
        <ele>57</ele>
        <time>2012-01-28T11:55:46Z</time>
      </trkpt>
      <trkpt lat="44.81961" lon="-0.29529">
        <ele>57</ele>
        <time>2012-01-28T11:55:50Z</time>
      </trkpt>
      <trkpt lat="44.8195" lon="-0.29533">
        <ele>58</ele>
        <time>2012-01-28T11:55:54Z</time>
      </trkpt>
      <trkpt lat="44.8194" lon="-0.29537">
        <ele>59</ele>
        <time>2012-01-28T11:55:58Z</time>
      </trkpt>
      <trkpt lat="44.8193" lon="-0.2954">
        <ele>60</ele>
        <time>2012-01-28T11:56:02Z</time>
      </trkpt>
      <trkpt lat="44.81921" lon="-0.29543">
        <ele>61</ele>
        <time>2012-01-28T11:56:06Z</time>
      </trkpt>
      <trkpt lat="44.81911" lon="-0.29547">
        <ele>62</ele>
        <time>2012-01-28T11:56:10Z</time>
      </trkpt>
      <trkpt lat="44.819" lon="-0.2955">
        <ele>63</ele>
        <time>2012-01-28T11:56:14Z</time>
      </trkpt>
      <trkpt lat="44.8189" lon="-0.29553">
        <ele>63</ele>
        <time>2012-01-28T11:56:18Z</time>
      </trkpt>
      <trkpt lat="44.8188" lon="-0.29558">
        <ele>64</ele>
        <time>2012-01-28T11:56:22Z</time>
      </trkpt>
      <trkpt lat="44.81869" lon="-0.29563">
        <ele>65</ele>
        <time>2012-01-28T11:56:26Z</time>
      </trkpt>
      <trkpt lat="44.81858" lon="-0.29565">
        <ele>66</ele>
        <time>2012-01-28T11:56:30Z</time>
      </trkpt>
      <trkpt lat="44.81848" lon="-0.29569">
        <ele>66</ele>
        <time>2012-01-28T11:56:34Z</time>
      </trkpt>
      <trkpt lat="44.81837" lon="-0.29572">
        <ele>67</ele>
        <time>2012-01-28T11:56:38Z</time>
      </trkpt>
      <trkpt lat="44.81835" lon="-0.29586">
        <ele>67</ele>
        <time>2012-01-28T11:56:44Z</time>
      </trkpt>
      <trkpt lat="44.81841" lon="-0.29599">
        <ele>67</ele>
        <time>2012-01-28T11:56:48Z</time>
      </trkpt>
      <trkpt lat="44.81848" lon="-0.29611">
        <ele>67</ele>
        <time>2012-01-28T11:56:52Z</time>
      </trkpt>
      <trkpt lat="44.81855" lon="-0.2962">
        <ele>67</ele>
        <time>2012-01-28T11:56:55Z</time>
      </trkpt>
      <trkpt lat="44.81863" lon="-0.29628">
        <ele>67</ele>
        <time>2012-01-28T11:56:58Z</time>
      </trkpt>
      <trkpt lat="44.81872" lon="-0.29636">
        <ele>67</ele>
        <time>2012-01-28T11:57:01Z</time>
      </trkpt>
      <trkpt lat="44.81879" lon="-0.29647">
        <ele>67</ele>
        <time>2012-01-28T11:57:04Z</time>
      </trkpt>
      <trkpt lat="44.81882" lon="-0.29661">
        <ele>67</ele>
        <time>2012-01-28T11:57:07Z</time>
      </trkpt>
      <trkpt lat="44.81885" lon="-0.29678">
        <ele>67</ele>
        <time>2012-01-28T11:57:11Z</time>
      </trkpt>
      <trkpt lat="44.81885" lon="-0.29692">
        <ele>67</ele>
        <time>2012-01-28T11:57:14Z</time>
      </trkpt>
      <trkpt lat="44.81885" lon="-0.29707">
        <ele>68</ele>
        <time>2012-01-28T11:57:17Z</time>
      </trkpt>
      <trkpt lat="44.81884" lon="-0.29723">
        <ele>68</ele>
        <time>2012-01-28T11:57:20Z</time>
      </trkpt>
      <trkpt lat="44.81885" lon="-0.29739">
        <ele>68</ele>
        <time>2012-01-28T11:57:23Z</time>
      </trkpt>
      <trkpt lat="44.81885" lon="-0.29754">
        <ele>68</ele>
        <time>2012-01-28T11:57:26Z</time>
      </trkpt>
      <trkpt lat="44.81885" lon="-0.2977">
        <ele>68</ele>
        <time>2012-01-28T11:57:29Z</time>
      </trkpt>
      <trkpt lat="44.81886" lon="-0.29784">
        <ele>68</ele>
        <time>2012-01-28T11:57:32Z</time>
      </trkpt>
      <trkpt lat="44.81887" lon="-0.298">
        <ele>68</ele>
        <time>2012-01-28T11:57:36Z</time>
      </trkpt>
      <trkpt lat="44.81887" lon="-0.29817">
        <ele>68</ele>
        <time>2012-01-28T11:57:40Z</time>
      </trkpt>
      <trkpt lat="44.81888" lon="-0.29833">
        <ele>68</ele>
        <time>2012-01-28T11:57:44Z</time>
      </trkpt>
      <trkpt lat="44.81889" lon="-0.2985">
        <ele>67</ele>
        <time>2012-01-28T11:57:48Z</time>
      </trkpt>
      <trkpt lat="44.8189" lon="-0.29867">
        <ele>67</ele>
        <time>2012-01-28T11:57:52Z</time>
      </trkpt>
      <trkpt lat="44.81887" lon="-0.2988">
        <ele>66</ele>
        <time>2012-01-28T11:58:28Z</time>
      </trkpt>
      <trkpt lat="44.81877" lon="-0.29881">
        <ele>67</ele>
        <time>2012-01-28T11:58:33Z</time>
      </trkpt>
      <trkpt lat="44.81867" lon="-0.2988">
        <ele>67</ele>
        <time>2012-01-28T11:58:38Z</time>
      </trkpt>
      <trkpt lat="44.81857" lon="-0.2988">
        <ele>68</ele>
        <time>2012-01-28T11:58:43Z</time>
      </trkpt>
      <trkpt lat="44.81846" lon="-0.29881">
        <ele>68</ele>
        <time>2012-01-28T11:58:48Z</time>
      </trkpt>
      <trkpt lat="44.81837" lon="-0.29879">
        <ele>69</ele>
        <time>2012-01-28T11:58:53Z</time>
      </trkpt>
      <trkpt lat="44.81827" lon="-0.29876">
        <ele>69</ele>
        <time>2012-01-28T11:58:59Z</time>
      </trkpt>
      <trkpt lat="44.81817" lon="-0.29871">
        <ele>70</ele>
        <time>2012-01-28T11:59:04Z</time>
      </trkpt>
      <trkpt lat="44.81807" lon="-0.29865">
        <ele>70</ele>
        <time>2012-01-28T11:59:09Z</time>
      </trkpt>
      <trkpt lat="44.81797" lon="-0.29864">
        <ele>70</ele>
        <time>2012-01-28T11:59:14Z</time>
      </trkpt>
      <trkpt lat="44.81787" lon="-0.2986">
        <ele>70</ele>
        <time>2012-01-28T11:59:18Z</time>
      </trkpt>
      <trkpt lat="44.81777" lon="-0.29856">
        <ele>71</ele>
        <time>2012-01-28T11:59:23Z</time>
      </trkpt>
      <trkpt lat="44.81768" lon="-0.29856">
        <ele>71</ele>
        <time>2012-01-28T11:59:27Z</time>
      </trkpt>
      <trkpt lat="44.81757" lon="-0.29853">
        <ele>71</ele>
        <time>2012-01-28T11:59:31Z</time>
      </trkpt>
      <trkpt lat="44.81747" lon="-0.29851">
        <ele>71</ele>
        <time>2012-01-28T11:59:35Z</time>
      </trkpt>
      <trkpt lat="44.81737" lon="-0.29849">
        <ele>71</ele>
        <time>2012-01-28T11:59:41Z</time>
      </trkpt>
      <trkpt lat="44.81726" lon="-0.29846">
        <ele>71</ele>
        <time>2012-01-28T11:59:47Z</time>
      </trkpt>
      <trkpt lat="44.81716" lon="-0.29843">
        <ele>71</ele>
        <time>2012-01-28T11:59:52Z</time>
      </trkpt>
      <trkpt lat="44.81704" lon="-0.29839">
        <ele>71</ele>
        <time>2012-01-28T11:59:57Z</time>
      </trkpt>
      <trkpt lat="44.81694" lon="-0.29837">
        <ele>71</ele>
        <time>2012-01-28T12:00:01Z</time>
      </trkpt>
      <trkpt lat="44.81684" lon="-0.29834">
        <ele>71</ele>
        <time>2012-01-28T12:00:05Z</time>
      </trkpt>
      <trkpt lat="44.81674" lon="-0.29833">
        <ele>71</ele>
        <time>2012-01-28T12:00:10Z</time>
      </trkpt>
      <trkpt lat="44.81669" lon="-0.29844">
        <ele>71</ele>
        <time>2012-01-28T12:00:16Z</time>
      </trkpt>
      <trkpt lat="44.81664" lon="-0.29856">
        <ele>71</ele>
        <time>2012-01-28T12:00:22Z</time>
      </trkpt>
      <trkpt lat="44.8166" lon="-0.29868">
        <ele>71</ele>
        <time>2012-01-28T12:00:28Z</time>
      </trkpt>
      <trkpt lat="44.81656" lon="-0.29881">
        <ele>71</ele>
        <time>2012-01-28T12:00:34Z</time>
      </trkpt>
      <trkpt lat="44.81653" lon="-0.29895">
        <ele>71</ele>
        <time>2012-01-28T12:00:40Z</time>
      </trkpt>
      <trkpt lat="44.81653" lon="-0.29909">
        <ele>71</ele>
        <time>2012-01-28T12:00:46Z</time>
      </trkpt>
      <trkpt lat="44.81653" lon="-0.29924">
        <ele>71</ele>
        <time>2012-01-28T12:00:52Z</time>
      </trkpt>
      <trkpt lat="44.81653" lon="-0.29937">
        <ele>71</ele>
        <time>2012-01-28T12:00:57Z</time>
      </trkpt>
      <trkpt lat="44.81655" lon="-0.29951">
        <ele>71</ele>
        <time>2012-01-28T12:01:02Z</time>
      </trkpt>
      <trkpt lat="44.81655" lon="-0.29964">
        <ele>71</ele>
        <time>2012-01-28T12:01:07Z</time>
      </trkpt>
      <trkpt lat="44.81656" lon="-0.29979">
        <ele>71</ele>
        <time>2012-01-28T12:01:13Z</time>
      </trkpt>
      <trkpt lat="44.81657" lon="-0.29992">
        <ele>71</ele>
        <time>2012-01-28T12:01:19Z</time>
      </trkpt>
      <trkpt lat="44.81657" lon="-0.30006">
        <ele>71</ele>
        <time>2012-01-28T12:01:26Z</time>
      </trkpt>
      <trkpt lat="44.8165" lon="-0.30015">
        <ele>71</ele>
        <time>2012-01-28T12:01:33Z</time>
      </trkpt>
      <trkpt lat="44.81643" lon="-0.30025">
        <ele>71</ele>
        <time>2012-01-28T12:01:39Z</time>
      </trkpt>
      <trkpt lat="44.81636" lon="-0.30036">
        <ele>71</ele>
        <time>2012-01-28T12:01:45Z</time>
      </trkpt>
      <trkpt lat="44.81629" lon="-0.30046">
        <ele>71</ele>
        <time>2012-01-28T12:01:50Z</time>
      </trkpt>
      <trkpt lat="44.81622" lon="-0.30056">
        <ele>71</ele>
        <time>2012-01-28T12:01:55Z</time>
      </trkpt>
      <trkpt lat="44.81614" lon="-0.30067">
        <ele>71</ele>
        <time>2012-01-28T12:02:00Z</time>
      </trkpt>
      <trkpt lat="44.81607" lon="-0.30078">
        <ele>71</ele>
        <time>2012-01-28T12:02:05Z</time>
      </trkpt>
      <trkpt lat="44.81602" lon="-0.30089">
        <ele>71</ele>
        <time>2012-01-28T12:02:10Z</time>
      </trkpt>
      <trkpt lat="44.81596" lon="-0.301">
        <ele>71</ele>
        <time>2012-01-28T12:02:15Z</time>
      </trkpt>
      <trkpt lat="44.81589" lon="-0.30112">
        <ele>71</ele>
        <time>2012-01-28T12:02:20Z</time>
      </trkpt>
      <trkpt lat="44.81582" lon="-0.30123">
        <ele>71</ele>
        <time>2012-01-28T12:02:25Z</time>
      </trkpt>
      <trkpt lat="44.81573" lon="-0.3013">
        <ele>71</ele>
        <time>2012-01-28T12:02:30Z</time>
      </trkpt>
      <trkpt lat="44.81567" lon="-0.30139">
        <ele>71</ele>
        <time>2012-01-28T12:02:35Z</time>
      </trkpt>
      <trkpt lat="44.8156" lon="-0.30149">
        <ele>71</ele>
        <time>2012-01-28T12:02:40Z</time>
      </trkpt>
      <trkpt lat="44.81549" lon="-0.30148">
        <ele>71</ele>
        <time>2012-01-28T12:02:45Z</time>
      </trkpt>
      <trkpt lat="44.8154" lon="-0.30141">
        <ele>71</ele>
        <time>2012-01-28T12:02:50Z</time>
      </trkpt>
      <trkpt lat="44.8153" lon="-0.30136">
        <ele>71</ele>
        <time>2012-01-28T12:02:54Z</time>
      </trkpt>
      <trkpt lat="44.81521" lon="-0.3013">
        <ele>71</ele>
        <time>2012-01-28T12:02:58Z</time>
      </trkpt>
      <trkpt lat="44.81512" lon="-0.30124">
        <ele>71</ele>
        <time>2012-01-28T12:03:02Z</time>
      </trkpt>
      <trkpt lat="44.81502" lon="-0.30119">
        <ele>71</ele>
        <time>2012-01-28T12:03:06Z</time>
      </trkpt>
      <trkpt lat="44.81493" lon="-0.30112">
        <ele>71</ele>
        <time>2012-01-28T12:03:10Z</time>
      </trkpt>
      <trkpt lat="44.81484" lon="-0.3011">
        <ele>71</ele>
        <time>2012-01-28T12:03:14Z</time>
      </trkpt>
      <trkpt lat="44.81475" lon="-0.30118">
        <ele>71</ele>
        <time>2012-01-28T12:03:19Z</time>
      </trkpt>
      <trkpt lat="44.81471" lon="-0.3013">
        <ele>71</ele>
        <time>2012-01-28T12:03:23Z</time>
      </trkpt>
      <trkpt lat="44.8147" lon="-0.30144">
        <ele>71</ele>
        <time>2012-01-28T12:03:27Z</time>
      </trkpt>
      <trkpt lat="44.81469" lon="-0.30158">
        <ele>71</ele>
        <time>2012-01-28T12:03:31Z</time>
      </trkpt>
      <trkpt lat="44.81467" lon="-0.30174">
        <ele>71</ele>
        <time>2012-01-28T12:03:36Z</time>
      </trkpt>
      <trkpt lat="44.81465" lon="-0.30188">
        <ele>71</ele>
        <time>2012-01-28T12:03:40Z</time>
      </trkpt>
      <trkpt lat="44.81463" lon="-0.30202">
        <ele>71</ele>
        <time>2012-01-28T12:03:44Z</time>
      </trkpt>
      <trkpt lat="44.81461" lon="-0.30216">
        <ele>70</ele>
        <time>2012-01-28T12:03:48Z</time>
      </trkpt>
      <trkpt lat="44.8146" lon="-0.30231">
        <ele>70</ele>
        <time>2012-01-28T12:03:52Z</time>
      </trkpt>
      <trkpt lat="44.81451" lon="-0.30227">
        <ele>70</ele>
        <time>2012-01-28T12:04:00Z</time>
      </trkpt>
      <trkpt lat="44.81442" lon="-0.30222">
        <ele>70</ele>
        <time>2012-01-28T12:04:05Z</time>
      </trkpt>
      <trkpt lat="44.81433" lon="-0.30216">
        <ele>70</ele>
        <time>2012-01-28T12:04:12Z</time>
      </trkpt>
      <trkpt lat="44.81422" lon="-0.30216">
        <ele>71</ele>
        <time>2012-01-28T12:05:47Z</time>
      </trkpt>
      <trkpt lat="44.81411" lon="-0.30212">
        <ele>71</ele>
        <time>2012-01-28T12:05:53Z</time>
      </trkpt>
      <trkpt lat="44.814" lon="-0.3021">
        <ele>71</ele>
        <time>2012-01-28T12:05:57Z</time>
      </trkpt>
      <trkpt lat="44.8139" lon="-0.30207">
        <ele>71</ele>
        <time>2012-01-28T12:06:00Z</time>
      </trkpt>
      <trkpt lat="44.8138" lon="-0.30204">
        <ele>71</ele>
        <time>2012-01-28T12:06:03Z</time>
      </trkpt>
      <trkpt lat="44.8137" lon="-0.30201">
        <ele>71</ele>
        <time>2012-01-28T12:06:06Z</time>
      </trkpt>
      <trkpt lat="44.8136" lon="-0.30198">
        <ele>71</ele>
        <time>2012-01-28T12:06:09Z</time>
      </trkpt>
      <trkpt lat="44.81351" lon="-0.30195">
        <ele>71</ele>
        <time>2012-01-28T12:06:12Z</time>
      </trkpt>
      <trkpt lat="44.81341" lon="-0.30192">
        <ele>71</ele>
        <time>2012-01-28T12:06:15Z</time>
      </trkpt>
      <trkpt lat="44.81331" lon="-0.30188">
        <ele>71</ele>
        <time>2012-01-28T12:06:18Z</time>
      </trkpt>
      <trkpt lat="44.81319" lon="-0.30185">
        <ele>71</ele>
        <time>2012-01-28T12:06:21Z</time>
      </trkpt>
      <trkpt lat="44.81307" lon="-0.30184">
        <ele>71</ele>
        <time>2012-01-28T12:06:24Z</time>
      </trkpt>
      <trkpt lat="44.81294" lon="-0.30184">
        <ele>71</ele>
        <time>2012-01-28T12:06:27Z</time>
      </trkpt>
      <trkpt lat="44.81281" lon="-0.30186">
        <ele>71</ele>
        <time>2012-01-28T12:06:30Z</time>
      </trkpt>
      <trkpt lat="44.81271" lon="-0.30186">
        <ele>71</ele>
        <time>2012-01-28T12:06:32Z</time>
      </trkpt>
      <trkpt lat="44.81261" lon="-0.30187">
        <ele>71</ele>
        <time>2012-01-28T12:06:34Z</time>
      </trkpt>
      <trkpt lat="44.81252" lon="-0.30188">
        <ele>71</ele>
        <time>2012-01-28T12:06:36Z</time>
      </trkpt>
      <trkpt lat="44.81242" lon="-0.30187">
        <ele>71</ele>
        <time>2012-01-28T12:06:38Z</time>
      </trkpt>
      <trkpt lat="44.81233" lon="-0.30185">
        <ele>71</ele>
        <time>2012-01-28T12:06:40Z</time>
      </trkpt>
      <trkpt lat="44.81223" lon="-0.30183">
        <ele>71</ele>
        <time>2012-01-28T12:06:42Z</time>
      </trkpt>
      <trkpt lat="44.8121" lon="-0.3018">
        <ele>71</ele>
        <time>2012-01-28T12:06:45Z</time>
      </trkpt>
      <trkpt lat="44.81199" lon="-0.30179">
        <ele>71</ele>
        <time>2012-01-28T12:06:48Z</time>
      </trkpt>
      <trkpt lat="44.8119" lon="-0.30183">
        <ele>71</ele>
        <time>2012-01-28T12:06:51Z</time>
      </trkpt>
      <trkpt lat="44.81178" lon="-0.30189">
        <ele>71</ele>
        <time>2012-01-28T12:06:55Z</time>
      </trkpt>
      <trkpt lat="44.81167" lon="-0.30197">
        <ele>70</ele>
        <time>2012-01-28T12:06:59Z</time>
      </trkpt>
      <trkpt lat="44.81158" lon="-0.30202">
        <ele>70</ele>
        <time>2012-01-28T12:07:02Z</time>
      </trkpt>
      <trkpt lat="44.81149" lon="-0.30209">
        <ele>71</ele>
        <time>2012-01-28T12:07:05Z</time>
      </trkpt>
      <trkpt lat="44.8114" lon="-0.30213">
        <ele>71</ele>
        <time>2012-01-28T12:07:08Z</time>
      </trkpt>
      <trkpt lat="44.81129" lon="-0.30218">
        <ele>71</ele>
        <time>2012-01-28T12:07:12Z</time>
      </trkpt>
      <trkpt lat="44.81119" lon="-0.30222">
        <ele>71</ele>
        <time>2012-01-28T12:07:16Z</time>
      </trkpt>
      <trkpt lat="44.81109" lon="-0.30227">
        <ele>71</ele>
        <time>2012-01-28T12:07:20Z</time>
      </trkpt>
      <trkpt lat="44.81099" lon="-0.30234">
        <ele>71</ele>
        <time>2012-01-28T12:07:24Z</time>
      </trkpt>
      <trkpt lat="44.8109" lon="-0.30238">
        <ele>71</ele>
        <time>2012-01-28T12:07:28Z</time>
      </trkpt>
      <trkpt lat="44.81081" lon="-0.30244">
        <ele>71</ele>
        <time>2012-01-28T12:07:32Z</time>
      </trkpt>
      <trkpt lat="44.81071" lon="-0.30248">
        <ele>71</ele>
        <time>2012-01-28T12:07:35Z</time>
      </trkpt>
      <trkpt lat="44.81062" lon="-0.30252">
        <ele>71</ele>
        <time>2012-01-28T12:07:38Z</time>
      </trkpt>
      <trkpt lat="44.81054" lon="-0.30257">
        <ele>71</ele>
        <time>2012-01-28T12:07:42Z</time>
      </trkpt>
      <trkpt lat="44.81043" lon="-0.30262">
        <ele>70</ele>
        <time>2012-01-28T12:07:46Z</time>
      </trkpt>
      <trkpt lat="44.81033" lon="-0.30268">
        <ele>70</ele>
        <time>2012-01-28T12:07:50Z</time>
      </trkpt>
      <trkpt lat="44.81023" lon="-0.30272">
        <ele>70</ele>
        <time>2012-01-28T12:07:54Z</time>
      </trkpt>
      <trkpt lat="44.81013" lon="-0.30276">
        <ele>70</ele>
        <time>2012-01-28T12:07:58Z</time>
      </trkpt>
      <trkpt lat="44.81002" lon="-0.30278">
        <ele>71</ele>
        <time>2012-01-28T12:08:02Z</time>
      </trkpt>
      <trkpt lat="44.80992" lon="-0.3028">
        <ele>71</ele>
        <time>2012-01-28T12:08:06Z</time>
      </trkpt>
      <trkpt lat="44.80981" lon="-0.30283">
        <ele>71</ele>
        <time>2012-01-28T12:08:10Z</time>
      </trkpt>
      <trkpt lat="44.80968" lon="-0.30286">
        <ele>71</ele>
        <time>2012-01-28T12:08:14Z</time>
      </trkpt>
      <trkpt lat="44.80958" lon="-0.30288">
        <ele>71</ele>
        <time>2012-01-28T12:08:18Z</time>
      </trkpt>
      <trkpt lat="44.80948" lon="-0.30289">
        <ele>72</ele>
        <time>2012-01-28T12:08:21Z</time>
      </trkpt>
      <trkpt lat="44.80937" lon="-0.30289">
        <ele>72</ele>
        <time>2012-01-28T12:08:25Z</time>
      </trkpt>
      <trkpt lat="44.80925" lon="-0.3029">
        <ele>72</ele>
        <time>2012-01-28T12:08:29Z</time>
      </trkpt>
      <trkpt lat="44.80913" lon="-0.30289">
        <ele>72</ele>
        <time>2012-01-28T12:08:33Z</time>
      </trkpt>
      <trkpt lat="44.80903" lon="-0.30289">
        <ele>73</ele>
        <time>2012-01-28T12:08:37Z</time>
      </trkpt>
      <trkpt lat="44.80892" lon="-0.30292">
        <ele>73</ele>
        <time>2012-01-28T12:08:41Z</time>
      </trkpt>
      <trkpt lat="44.80882" lon="-0.30295">
        <ele>73</ele>
        <time>2012-01-28T12:08:45Z</time>
      </trkpt>
      <trkpt lat="44.80871" lon="-0.30298">
        <ele>73</ele>
        <time>2012-01-28T12:08:49Z</time>
      </trkpt>
      <trkpt lat="44.8086" lon="-0.303">
        <ele>73</ele>
        <time>2012-01-28T12:08:53Z</time>
      </trkpt>
      <trkpt lat="44.8085" lon="-0.30304">
        <ele>72</ele>
        <time>2012-01-28T12:08:57Z</time>
      </trkpt>
      <trkpt lat="44.80839" lon="-0.30307">
        <ele>73</ele>
        <time>2012-01-28T12:09:01Z</time>
      </trkpt>
      <trkpt lat="44.80829" lon="-0.3031">
        <ele>73</ele>
        <time>2012-01-28T12:09:05Z</time>
      </trkpt>
      <trkpt lat="44.80819" lon="-0.30315">
        <ele>73</ele>
        <time>2012-01-28T12:09:09Z</time>
      </trkpt>
      <trkpt lat="44.80809" lon="-0.3032">
        <ele>73</ele>
        <time>2012-01-28T12:09:13Z</time>
      </trkpt>
      <trkpt lat="44.80798" lon="-0.30325">
        <ele>73</ele>
        <time>2012-01-28T12:09:17Z</time>
      </trkpt>
      <trkpt lat="44.80788" lon="-0.30331">
        <ele>73</ele>
        <time>2012-01-28T12:09:21Z</time>
      </trkpt>
      <trkpt lat="44.80778" lon="-0.30336">
        <ele>73</ele>
        <time>2012-01-28T12:09:25Z</time>
      </trkpt>
      <trkpt lat="44.80767" lon="-0.30342">
        <ele>73</ele>
        <time>2012-01-28T12:09:29Z</time>
      </trkpt>
      <trkpt lat="44.80756" lon="-0.30346">
        <ele>73</ele>
        <time>2012-01-28T12:09:33Z</time>
      </trkpt>
      <trkpt lat="44.80746" lon="-0.30351">
        <ele>73</ele>
        <time>2012-01-28T12:09:37Z</time>
      </trkpt>
      <trkpt lat="44.80736" lon="-0.30355">
        <ele>73</ele>
        <time>2012-01-28T12:09:41Z</time>
      </trkpt>
      <trkpt lat="44.80727" lon="-0.30359">
        <ele>73</ele>
        <time>2012-01-28T12:09:45Z</time>
      </trkpt>
      <trkpt lat="44.80717" lon="-0.30361">
        <ele>73</ele>
        <time>2012-01-28T12:09:49Z</time>
      </trkpt>
      <trkpt lat="44.80706" lon="-0.30364">
        <ele>74</ele>
        <time>2012-01-28T12:09:53Z</time>
      </trkpt>
      <trkpt lat="44.80696" lon="-0.30368">
        <ele>74</ele>
        <time>2012-01-28T12:10:01Z</time>
      </trkpt>
      <trkpt lat="44.80685" lon="-0.30371">
        <ele>73</ele>
        <time>2012-01-28T12:10:05Z</time>
      </trkpt>
      <trkpt lat="44.80674" lon="-0.30373">
        <ele>73</ele>
        <time>2012-01-28T12:10:09Z</time>
      </trkpt>
      <trkpt lat="44.80665" lon="-0.30379">
        <ele>73</ele>
        <time>2012-01-28T12:11:45Z</time>
      </trkpt>
      <trkpt lat="44.80655" lon="-0.30387">
        <ele>73</ele>
        <time>2012-01-28T12:11:51Z</time>
      </trkpt>
      <trkpt lat="44.80645" lon="-0.30395">
        <ele>73</ele>
        <time>2012-01-28T12:11:56Z</time>
      </trkpt>
      <trkpt lat="44.80635" lon="-0.30398">
        <ele>73</ele>
        <time>2012-01-28T12:12:00Z</time>
      </trkpt>
      <trkpt lat="44.80624" lon="-0.30401">
        <ele>74</ele>
        <time>2012-01-28T12:12:04Z</time>
      </trkpt>
      <trkpt lat="44.80613" lon="-0.30404">
        <ele>74</ele>
        <time>2012-01-28T12:12:08Z</time>
      </trkpt>
      <trkpt lat="44.80601" lon="-0.30405">
        <ele>74</ele>
        <time>2012-01-28T12:12:12Z</time>
      </trkpt>
      <trkpt lat="44.8059" lon="-0.30408">
        <ele>74</ele>
        <time>2012-01-28T12:12:16Z</time>
      </trkpt>
      <trkpt lat="44.8058" lon="-0.30413">
        <ele>74</ele>
        <time>2012-01-28T12:12:20Z</time>
      </trkpt>
      <trkpt lat="44.8057" lon="-0.30416">
        <ele>73</ele>
        <time>2012-01-28T12:12:24Z</time>
      </trkpt>
      <trkpt lat="44.80559" lon="-0.30423">
        <ele>73</ele>
        <time>2012-01-28T12:12:28Z</time>
      </trkpt>
      <trkpt lat="44.80548" lon="-0.3043">
        <ele>73</ele>
        <time>2012-01-28T12:12:32Z</time>
      </trkpt>
      <trkpt lat="44.80538" lon="-0.30438">
        <ele>73</ele>
        <time>2012-01-28T12:12:36Z</time>
      </trkpt>
      <trkpt lat="44.80529" lon="-0.30446">
        <ele>73</ele>
        <time>2012-01-28T12:12:40Z</time>
      </trkpt>
      <trkpt lat="44.8052" lon="-0.30455">
        <ele>73</ele>
        <time>2012-01-28T12:12:44Z</time>
      </trkpt>
      <trkpt lat="44.80511" lon="-0.30465">
        <ele>73</ele>
        <time>2012-01-28T12:12:48Z</time>
      </trkpt>
      <trkpt lat="44.80501" lon="-0.30473">
        <ele>73</ele>
        <time>2012-01-28T12:12:52Z</time>
      </trkpt>
      <trkpt lat="44.80493" lon="-0.30481">
        <ele>73</ele>
        <time>2012-01-28T12:12:56Z</time>
      </trkpt>
      <trkpt lat="44.80483" lon="-0.3049">
        <ele>73</ele>
        <time>2012-01-28T12:13:01Z</time>
      </trkpt>
      <trkpt lat="44.80474" lon="-0.30495">
        <ele>73</ele>
        <time>2012-01-28T12:13:05Z</time>
      </trkpt>
      <trkpt lat="44.80465" lon="-0.30501">
        <ele>74</ele>
        <time>2012-01-28T12:13:09Z</time>
      </trkpt>
      <trkpt lat="44.80454" lon="-0.30509">
        <ele>74</ele>
        <time>2012-01-28T12:13:14Z</time>
      </trkpt>
      <trkpt lat="44.80444" lon="-0.30515">
        <ele>74</ele>
        <time>2012-01-28T12:13:19Z</time>
      </trkpt>
      <trkpt lat="44.80434" lon="-0.30521">
        <ele>74</ele>
        <time>2012-01-28T12:13:24Z</time>
      </trkpt>
      <trkpt lat="44.80424" lon="-0.30525">
        <ele>75</ele>
        <time>2012-01-28T12:13:28Z</time>
      </trkpt>
      <trkpt lat="44.80415" lon="-0.30529">
        <ele>75</ele>
        <time>2012-01-28T12:13:32Z</time>
      </trkpt>
      <trkpt lat="44.80403" lon="-0.30533">
        <ele>76</ele>
        <time>2012-01-28T12:13:37Z</time>
      </trkpt>
      <trkpt lat="44.80394" lon="-0.30537">
        <ele>76</ele>
        <time>2012-01-28T12:13:41Z</time>
      </trkpt>
      <trkpt lat="44.80383" lon="-0.30542">
        <ele>76</ele>
        <time>2012-01-28T12:13:45Z</time>
      </trkpt>
      <trkpt lat="44.80372" lon="-0.30546">
        <ele>76</ele>
        <time>2012-01-28T12:13:49Z</time>
      </trkpt>
      <trkpt lat="44.80362" lon="-0.30552">
        <ele>77</ele>
        <time>2012-01-28T12:13:53Z</time>
      </trkpt>
      <trkpt lat="44.80351" lon="-0.30555">
        <ele>77</ele>
        <time>2012-01-28T12:13:57Z</time>
      </trkpt>
      <trkpt lat="44.80341" lon="-0.3056">
        <ele>77</ele>
        <time>2012-01-28T12:14:01Z</time>
      </trkpt>
      <trkpt lat="44.80332" lon="-0.30563">
        <ele>77</ele>
        <time>2012-01-28T12:14:05Z</time>
      </trkpt>
      <trkpt lat="44.80322" lon="-0.30568">
        <ele>78</ele>
        <time>2012-01-28T12:14:09Z</time>
      </trkpt>
      <trkpt lat="44.80312" lon="-0.30572">
        <ele>78</ele>
        <time>2012-01-28T12:14:14Z</time>
      </trkpt>
      <trkpt lat="44.80311" lon="-0.30585">
        <ele>78</ele>
        <time>2012-01-28T12:14:22Z</time>
      </trkpt>
      <trkpt lat="44.80314" lon="-0.30598">
        <ele>78</ele>
        <time>2012-01-28T12:14:30Z</time>
      </trkpt>
      <trkpt lat="44.80317" lon="-0.30613">
        <ele>78</ele>
        <time>2012-01-28T12:14:39Z</time>
      </trkpt>
      <trkpt lat="44.80317" lon="-0.30627">
        <ele>79</ele>
        <time>2012-01-28T12:14:46Z</time>
      </trkpt>
      <trkpt lat="44.80317" lon="-0.30642">
        <ele>79</ele>
        <time>2012-01-28T12:14:53Z</time>
      </trkpt>
      <trkpt lat="44.80316" lon="-0.30655">
        <ele>79</ele>
        <time>2012-01-28T12:15:55Z</time>
      </trkpt>
      <trkpt lat="44.80307" lon="-0.30663">
        <ele>80</ele>
        <time>2012-01-28T12:16:02Z</time>
      </trkpt>
      <trkpt lat="44.80304" lon="-0.30677">
        <ele>80</ele>
        <time>2012-01-28T12:16:10Z</time>
      </trkpt>
      <trkpt lat="44.80305" lon="-0.30692">
        <ele>80</ele>
        <time>2012-01-28T12:16:15Z</time>
      </trkpt>
      <trkpt lat="44.80305" lon="-0.30707">
        <ele>80</ele>
        <time>2012-01-28T12:16:19Z</time>
      </trkpt>
      <trkpt lat="44.80307" lon="-0.30723">
        <ele>80</ele>
        <time>2012-01-28T12:16:23Z</time>
      </trkpt>
      <trkpt lat="44.80307" lon="-0.30737">
        <ele>80</ele>
        <time>2012-01-28T12:16:26Z</time>
      </trkpt>
      <trkpt lat="44.80309" lon="-0.30751">
        <ele>80</ele>
        <time>2012-01-28T12:16:30Z</time>
      </trkpt>
      <trkpt lat="44.80312" lon="-0.30764">
        <ele>79</ele>
        <time>2012-01-28T12:16:35Z</time>
      </trkpt>
      <trkpt lat="44.80315" lon="-0.30776">
        <ele>79</ele>
        <time>2012-01-28T12:16:42Z</time>
      </trkpt>
      <trkpt lat="44.80318" lon="-0.30791">
        <ele>79</ele>
        <time>2012-01-28T12:16:49Z</time>
      </trkpt>
      <trkpt lat="44.80323" lon="-0.30805">
        <ele>78</ele>
        <time>2012-01-28T12:16:54Z</time>
      </trkpt>
      <trkpt lat="44.80326" lon="-0.30819">
        <ele>78</ele>
        <time>2012-01-28T12:16:59Z</time>
      </trkpt>
      <trkpt lat="44.80329" lon="-0.30832">
        <ele>78</ele>
        <time>2012-01-28T12:17:03Z</time>
      </trkpt>
      <trkpt lat="44.80333" lon="-0.30845">
        <ele>77</ele>
        <time>2012-01-28T12:17:08Z</time>
      </trkpt>
      <trkpt lat="44.80339" lon="-0.30858">
        <ele>77</ele>
        <time>2012-01-28T12:17:14Z</time>
      </trkpt>
      <trkpt lat="44.80346" lon="-0.30869">
        <ele>76</ele>
        <time>2012-01-28T12:17:19Z</time>
      </trkpt>
      <trkpt lat="44.80355" lon="-0.30881">
        <ele>76</ele>
        <time>2012-01-28T12:17:24Z</time>
      </trkpt>
      <trkpt lat="44.80364" lon="-0.30892">
        <ele>75</ele>
        <time>2012-01-28T12:17:28Z</time>
      </trkpt>
      <trkpt lat="44.80371" lon="-0.30904">
        <ele>74</ele>
        <time>2012-01-28T12:17:32Z</time>
      </trkpt>
      <trkpt lat="44.80377" lon="-0.30916">
        <ele>74</ele>
        <time>2012-01-28T12:17:35Z</time>
      </trkpt>
      <trkpt lat="44.80383" lon="-0.3093">
        <ele>73</ele>
        <time>2012-01-28T12:17:38Z</time>
      </trkpt>
      <trkpt lat="44.80388" lon="-0.30943">
        <ele>73</ele>
        <time>2012-01-28T12:17:41Z</time>
      </trkpt>
      <trkpt lat="44.80396" lon="-0.30956">
        <ele>73</ele>
        <time>2012-01-28T12:17:45Z</time>
      </trkpt>
      <trkpt lat="44.80403" lon="-0.3097">
        <ele>72</ele>
        <time>2012-01-28T12:17:49Z</time>
      </trkpt>
      <trkpt lat="44.80409" lon="-0.30982">
        <ele>72</ele>
        <time>2012-01-28T12:17:53Z</time>
      </trkpt>
      <trkpt lat="44.80417" lon="-0.30996">
        <ele>72</ele>
        <time>2012-01-28T12:17:58Z</time>
      </trkpt>
      <trkpt lat="44.80422" lon="-0.31008">
        <ele>71</ele>
        <time>2012-01-28T12:18:04Z</time>
      </trkpt>
      <trkpt lat="44.8043" lon="-0.3102">
        <ele>71</ele>
        <time>2012-01-28T12:18:11Z</time>
      </trkpt>
      <trkpt lat="44.80436" lon="-0.31031">
        <ele>70</ele>
        <time>2012-01-28T12:18:16Z</time>
      </trkpt>
      <trkpt lat="44.80439" lon="-0.31044">
        <ele>70</ele>
        <time>2012-01-28T12:18:22Z</time>
      </trkpt>
      <trkpt lat="44.80435" lon="-0.31058">
        <ele>70</ele>
        <time>2012-01-28T12:18:29Z</time>
      </trkpt>
      <trkpt lat="44.80426" lon="-0.31065">
        <ele>70</ele>
        <time>2012-01-28T12:18:34Z</time>
      </trkpt>
      <trkpt lat="44.80419" lon="-0.31074">
        <ele>70</ele>
        <time>2012-01-28T12:18:39Z</time>
      </trkpt>
      <trkpt lat="44.80411" lon="-0.31082">
        <ele>71</ele>
        <time>2012-01-28T12:18:44Z</time>
      </trkpt>
      <trkpt lat="44.80402" lon="-0.31092">
        <ele>71</ele>
        <time>2012-01-28T12:18:50Z</time>
      </trkpt>
      <trkpt lat="44.80394" lon="-0.311">
        <ele>71</ele>
        <time>2012-01-28T12:18:55Z</time>
      </trkpt>
      <trkpt lat="44.80387" lon="-0.31109">
        <ele>71</ele>
        <time>2012-01-28T12:19:00Z</time>
      </trkpt>
      <trkpt lat="44.8038" lon="-0.31118">
        <ele>71</ele>
        <time>2012-01-28T12:19:06Z</time>
      </trkpt>
      <trkpt lat="44.80372" lon="-0.31128">
        <ele>72</ele>
        <time>2012-01-28T12:19:12Z</time>
      </trkpt>
      <trkpt lat="44.80365" lon="-0.31137">
        <ele>72</ele>
        <time>2012-01-28T12:19:17Z</time>
      </trkpt>
      <trkpt lat="44.80358" lon="-0.31147">
        <ele>72</ele>
        <time>2012-01-28T12:19:23Z</time>
      </trkpt>
      <trkpt lat="44.80349" lon="-0.31153">
        <ele>72</ele>
        <time>2012-01-28T12:19:28Z</time>
      </trkpt>
      <trkpt lat="44.80342" lon="-0.31163">
        <ele>72</ele>
        <time>2012-01-28T12:19:34Z</time>
      </trkpt>
      <trkpt lat="44.80335" lon="-0.31172">
        <ele>72</ele>
        <time>2012-01-28T12:19:38Z</time>
      </trkpt>
      <trkpt lat="44.80326" lon="-0.31181">
        <ele>73</ele>
        <time>2012-01-28T12:19:44Z</time>
      </trkpt>
      <trkpt lat="44.80318" lon="-0.3119">
        <ele>73</ele>
        <time>2012-01-28T12:19:50Z</time>
      </trkpt>
      <trkpt lat="44.8031" lon="-0.31199">
        <ele>73</ele>
        <time>2012-01-28T12:19:57Z</time>
      </trkpt>
      <trkpt lat="44.803" lon="-0.31207">
        <ele>74</ele>
        <time>2012-01-28T12:20:02Z</time>
      </trkpt>
      <trkpt lat="44.80291" lon="-0.31211">
        <ele>74</ele>
        <time>2012-01-28T12:20:07Z</time>
      </trkpt>
      <trkpt lat="44.80281" lon="-0.31216">
        <ele>75</ele>
        <time>2012-01-28T12:20:14Z</time>
      </trkpt>
      <trkpt lat="44.80271" lon="-0.31219">
        <ele>76</ele>
        <time>2012-01-28T12:20:20Z</time>
      </trkpt>
      <trkpt lat="44.80262" lon="-0.31224">
        <ele>77</ele>
        <time>2012-01-28T12:20:26Z</time>
      </trkpt>
      <trkpt lat="44.80252" lon="-0.31227">
        <ele>78</ele>
        <time>2012-01-28T12:20:33Z</time>
      </trkpt>
      <trkpt lat="44.80241" lon="-0.31233">
        <ele>79</ele>
        <time>2012-01-28T12:20:42Z</time>
      </trkpt>
      <trkpt lat="44.80231" lon="-0.31235">
        <ele>81</ele>
        <time>2012-01-28T12:20:49Z</time>
      </trkpt>
      <trkpt lat="44.80222" lon="-0.31241">
        <ele>82</ele>
        <time>2012-01-28T12:20:56Z</time>
      </trkpt>
      <trkpt lat="44.80212" lon="-0.31245">
        <ele>83</ele>
        <time>2012-01-28T12:21:02Z</time>
      </trkpt>
      <trkpt lat="44.80202" lon="-0.31248">
        <ele>85</ele>
        <time>2012-01-28T12:21:10Z</time>
      </trkpt>
      <trkpt lat="44.80209" lon="-0.31238">
        <ele>83</ele>
        <time>2012-01-28T12:22:00Z</time>
      </trkpt>
      <trkpt lat="44.8022" lon="-0.31236">
        <ele>82</ele>
        <time>2012-01-28T12:22:05Z</time>
      </trkpt>
      <trkpt lat="44.8023" lon="-0.31234">
        <ele>81</ele>
        <time>2012-01-28T12:22:10Z</time>
      </trkpt>
      <trkpt lat="44.8024" lon="-0.31232">
        <ele>79</ele>
        <time>2012-01-28T12:22:13Z</time>
      </trkpt>
      <trkpt lat="44.8025" lon="-0.31227">
        <ele>78</ele>
        <time>2012-01-28T12:22:17Z</time>
      </trkpt>
      <trkpt lat="44.80261" lon="-0.31225">
        <ele>77</ele>
        <time>2012-01-28T12:22:21Z</time>
      </trkpt>
      <trkpt lat="44.80271" lon="-0.3122">
        <ele>76</ele>
        <time>2012-01-28T12:22:27Z</time>
      </trkpt>
      <trkpt lat="44.80282" lon="-0.31217">
        <ele>75</ele>
        <time>2012-01-28T12:22:32Z</time>
      </trkpt>
      <trkpt lat="44.80291" lon="-0.31214">
        <ele>74</ele>
        <time>2012-01-28T12:22:36Z</time>
      </trkpt>
      <trkpt lat="44.80301" lon="-0.31209">
        <ele>74</ele>
        <time>2012-01-28T12:22:40Z</time>
      </trkpt>
      <trkpt lat="44.8031" lon="-0.31201">
        <ele>73</ele>
        <time>2012-01-28T12:22:45Z</time>
      </trkpt>
      <trkpt lat="44.80317" lon="-0.31191">
        <ele>73</ele>
        <time>2012-01-28T12:22:50Z</time>
      </trkpt>
      <trkpt lat="44.80325" lon="-0.31184">
        <ele>73</ele>
        <time>2012-01-28T12:23:54Z</time>
      </trkpt>
      <trkpt lat="44.80332" lon="-0.31175">
        <ele>73</ele>
        <time>2012-01-28T12:24:01Z</time>
      </trkpt>
      <trkpt lat="44.8034" lon="-0.31167">
        <ele>72</ele>
        <time>2012-01-28T12:24:09Z</time>
      </trkpt>
      <trkpt lat="44.80349" lon="-0.31159">
        <ele>72</ele>
        <time>2012-01-28T12:24:15Z</time>
      </trkpt>
      <trkpt lat="44.80357" lon="-0.31152">
        <ele>72</ele>
        <time>2012-01-28T12:24:24Z</time>
      </trkpt>
      <trkpt lat="44.80365" lon="-0.31158">
        <ele>72</ele>
        <time>2012-01-28T12:24:37Z</time>
      </trkpt>
      <trkpt lat="44.80361" lon="-0.3117">
        <ele>72</ele>
        <time>2012-01-28T12:24:48Z</time>
      </trkpt>
      <trkpt lat="44.80356" lon="-0.31183">
        <ele>72</ele>
        <time>2012-01-28T12:25:12Z</time>
      </trkpt>
      <trkpt lat="44.80349" lon="-0.31193">
        <ele>72</ele>
        <time>2012-01-28T12:25:18Z</time>
      </trkpt>
      <trkpt lat="44.80342" lon="-0.31201">
        <ele>72</ele>
        <time>2012-01-28T12:25:25Z</time>
      </trkpt>
      <trkpt lat="44.80332" lon="-0.31204">
        <ele>72</ele>
        <time>2012-01-28T12:25:30Z</time>
      </trkpt>
      <trkpt lat="44.80323" lon="-0.31213">
        <ele>73</ele>
        <time>2012-01-28T12:25:36Z</time>
      </trkpt>
      <trkpt lat="44.80314" lon="-0.31223">
        <ele>73</ele>
        <time>2012-01-28T12:25:41Z</time>
      </trkpt>
      <trkpt lat="44.80305" lon="-0.3123">
        <ele>74</ele>
        <time>2012-01-28T12:25:45Z</time>
      </trkpt>
      <trkpt lat="44.80296" lon="-0.31234">
        <ele>74</ele>
        <time>2012-01-28T12:25:51Z</time>
      </trkpt>
      <trkpt lat="44.80288" lon="-0.31242">
        <ele>75</ele>
        <time>2012-01-28T12:25:57Z</time>
      </trkpt>
      <trkpt lat="44.80278" lon="-0.31244">
        <ele>76</ele>
        <time>2012-01-28T12:26:03Z</time>
      </trkpt>
      <trkpt lat="44.80269" lon="-0.31248">
        <ele>77</ele>
        <time>2012-01-28T12:26:08Z</time>
      </trkpt>
      <trkpt lat="44.80261" lon="-0.31237">
        <ele>77</ele>
        <time>2012-01-28T12:26:14Z</time>
      </trkpt>
      <trkpt lat="44.80251" lon="-0.31236">
        <ele>78</ele>
        <time>2012-01-28T12:26:20Z</time>
      </trkpt>
      <trkpt lat="44.80242" lon="-0.31242">
        <ele>79</ele>
        <time>2012-01-28T12:26:27Z</time>
      </trkpt>
      <trkpt lat="44.80232" lon="-0.31243">
        <ele>81</ele>
        <time>2012-01-28T12:26:32Z</time>
      </trkpt>
      <trkpt lat="44.80223" lon="-0.31247">
        <ele>82</ele>
        <time>2012-01-28T12:26:38Z</time>
      </trkpt>
      <trkpt lat="44.80216" lon="-0.31255">
        <ele>83</ele>
        <time>2012-01-28T12:26:43Z</time>
      </trkpt>
      <trkpt lat="44.80209" lon="-0.31265">
        <ele>84</ele>
        <time>2012-01-28T12:26:48Z</time>
      </trkpt>
      <trkpt lat="44.80201" lon="-0.31276">
        <ele>85</ele>
        <time>2012-01-28T12:26:52Z</time>
      </trkpt>
      <trkpt lat="44.80197" lon="-0.31288">
        <ele>85</ele>
        <time>2012-01-28T12:26:56Z</time>
      </trkpt>
      <trkpt lat="44.80195" lon="-0.31303">
        <ele>85</ele>
        <time>2012-01-28T12:27:00Z</time>
      </trkpt>
      <trkpt lat="44.80204" lon="-0.31311">
        <ele>85</ele>
        <time>2012-01-28T12:27:05Z</time>
      </trkpt>
      <trkpt lat="44.80206" lon="-0.31324">
        <ele>84</ele>
        <time>2012-01-28T12:27:11Z</time>
      </trkpt>
      <trkpt lat="44.8021" lon="-0.31339">
        <ele>84</ele>
        <time>2012-01-28T12:27:17Z</time>
      </trkpt>
      <trkpt lat="44.8021" lon="-0.31352">
        <ele>84</ele>
        <time>2012-01-28T12:27:40Z</time>
      </trkpt>
      <trkpt lat="44.80213" lon="-0.31365">
        <ele>83</ele>
        <time>2012-01-28T12:27:46Z</time>
      </trkpt>
      <trkpt lat="44.80222" lon="-0.31368">
        <ele>82</ele>
        <time>2012-01-28T12:28:18Z</time>
      </trkpt>
      <trkpt lat="44.80227" lon="-0.31383">
        <ele>82</ele>
        <time>2012-01-28T12:28:59Z</time>
      </trkpt>
      <trkpt lat="44.80234" lon="-0.31393">
        <ele>81</ele>
        <time>2012-01-28T12:29:04Z</time>
      </trkpt>
      <trkpt lat="44.80232" lon="-0.31407">
        <ele>81</ele>
        <time>2012-01-28T12:29:11Z</time>
      </trkpt>
      <trkpt lat="44.80238" lon="-0.31421">
        <ele>81</ele>
        <time>2012-01-28T12:29:16Z</time>
      </trkpt>
      <trkpt lat="44.80247" lon="-0.31414">
        <ele>80</ele>
        <time>2012-01-28T12:29:26Z</time>
      </trkpt>
      <trkpt lat="44.80246" lon="-0.31428">
        <ele>80</ele>
        <time>2012-01-28T12:29:37Z</time>
      </trkpt>
      <trkpt lat="44.80248" lon="-0.31443">
        <ele>79</ele>
        <time>2012-01-28T12:29:44Z</time>
      </trkpt>
      <trkpt lat="44.80252" lon="-0.31457">
        <ele>79</ele>
        <time>2012-01-28T12:29:49Z</time>
      </trkpt>
      <trkpt lat="44.80255" lon="-0.31472">
        <ele>78</ele>
        <time>2012-01-28T12:29:58Z</time>
      </trkpt>
      <trkpt lat="44.80262" lon="-0.31482">
        <ele>77</ele>
        <time>2012-01-28T12:30:03Z</time>
      </trkpt>
      <trkpt lat="44.80266" lon="-0.31495">
        <ele>76</ele>
        <time>2012-01-28T12:30:07Z</time>
      </trkpt>
      <trkpt lat="44.80273" lon="-0.31506">
        <ele>76</ele>
        <time>2012-01-28T12:30:11Z</time>
      </trkpt>
      <trkpt lat="44.80277" lon="-0.31517">
        <ele>75</ele>
        <time>2012-01-28T12:30:15Z</time>
      </trkpt>
      <trkpt lat="44.8028" lon="-0.3153">
        <ele>75</ele>
        <time>2012-01-28T12:30:18Z</time>
      </trkpt>
      <trkpt lat="44.80282" lon="-0.31543">
        <ele>74</ele>
        <time>2012-01-28T12:30:22Z</time>
      </trkpt>
      <trkpt lat="44.80282" lon="-0.31561">
        <ele>74</ele>
        <time>2012-01-28T12:30:27Z</time>
      </trkpt>
      <trkpt lat="44.80284" lon="-0.31575">
        <ele>74</ele>
        <time>2012-01-28T12:30:31Z</time>
      </trkpt>
      <trkpt lat="44.80284" lon="-0.3159">
        <ele>74</ele>
        <time>2012-01-28T12:30:36Z</time>
      </trkpt>
      <trkpt lat="44.80283" lon="-0.31605">
        <ele>75</ele>
        <time>2012-01-28T12:30:41Z</time>
      </trkpt>
      <trkpt lat="44.80282" lon="-0.3162">
        <ele>75</ele>
        <time>2012-01-28T12:30:46Z</time>
      </trkpt>
      <trkpt lat="44.80285" lon="-0.31633">
        <ele>75</ele>
        <time>2012-01-28T12:30:51Z</time>
      </trkpt>
      <trkpt lat="44.80283" lon="-0.31647">
        <ele>76</ele>
        <time>2012-01-28T12:30:56Z</time>
      </trkpt>
      <trkpt lat="44.80279" lon="-0.31659">
        <ele>77</ele>
        <time>2012-01-28T12:31:01Z</time>
      </trkpt>
      <trkpt lat="44.80275" lon="-0.31672">
        <ele>78</ele>
        <time>2012-01-28T12:31:07Z</time>
      </trkpt>
      <trkpt lat="44.80269" lon="-0.31682">
        <ele>79</ele>
        <time>2012-01-28T12:31:19Z</time>
      </trkpt>
      <trkpt lat="44.80266" lon="-0.31694">
        <ele>80</ele>
        <time>2012-01-28T12:31:38Z</time>
      </trkpt>
      <trkpt lat="44.80257" lon="-0.31701">
        <ele>81</ele>
        <time>2012-01-28T12:32:30Z</time>
      </trkpt>
      <trkpt lat="44.80253" lon="-0.31712">
        <ele>82</ele>
        <time>2012-01-28T12:32:38Z</time>
      </trkpt>
      <trkpt lat="44.80248" lon="-0.31725">
        <ele>83</ele>
        <time>2012-01-28T12:32:45Z</time>
      </trkpt>
      <trkpt lat="44.80245" lon="-0.31738">
        <ele>84</ele>
        <time>2012-01-28T12:32:51Z</time>
      </trkpt>
      <trkpt lat="44.80238" lon="-0.31748">
        <ele>85</ele>
        <time>2012-01-28T12:32:57Z</time>
      </trkpt>
      <trkpt lat="44.80231" lon="-0.3176">
        <ele>87</ele>
        <time>2012-01-28T12:33:03Z</time>
      </trkpt>
      <trkpt lat="44.80223" lon="-0.31768">
        <ele>89</ele>
        <time>2012-01-28T12:33:11Z</time>
      </trkpt>
      <trkpt lat="44.80218" lon="-0.31781">
        <ele>90</ele>
        <time>2012-01-28T12:33:30Z</time>
      </trkpt>
      <trkpt lat="44.80213" lon="-0.31791">
        <ele>92</ele>
        <time>2012-01-28T12:34:24Z</time>
      </trkpt>
      <trkpt lat="44.80222" lon="-0.31795">
        <ele>90</ele>
        <time>2012-01-28T12:34:48Z</time>
      </trkpt>
      <trkpt lat="44.80232" lon="-0.31795">
        <ele>88</ele>
        <time>2012-01-28T12:34:59Z</time>
      </trkpt>
      <trkpt lat="44.80243" lon="-0.31796">
        <ele>87</ele>
        <time>2012-01-28T12:35:13Z</time>
      </trkpt>
      <trkpt lat="44.80252" lon="-0.31797">
        <ele>87</ele>
        <time>2012-01-28T12:35:27Z</time>
      </trkpt>
      <trkpt lat="44.80261" lon="-0.3179">
        <ele>85</ele>
        <time>2012-01-28T12:35:38Z</time>
      </trkpt>
      <trkpt lat="44.80262" lon="-0.31804">
        <ele>86</ele>
        <time>2012-01-28T12:35:48Z</time>
      </trkpt>
      <trkpt lat="44.80269" lon="-0.31813">
        <ele>86</ele>
        <time>2012-01-28T12:35:58Z</time>
      </trkpt>
      <trkpt lat="44.80271" lon="-0.31826">
        <ele>86</ele>
        <time>2012-01-28T12:36:04Z</time>
      </trkpt>
      <trkpt lat="44.80275" lon="-0.31838">
        <ele>86</ele>
        <time>2012-01-28T12:36:10Z</time>
      </trkpt>
      <trkpt lat="44.80274" lon="-0.31853">
        <ele>86</ele>
        <time>2012-01-28T12:36:18Z</time>
      </trkpt>
      <trkpt lat="44.80275" lon="-0.31866">
        <ele>86</ele>
        <time>2012-01-28T12:36:29Z</time>
      </trkpt>
      <trkpt lat="44.80282" lon="-0.31875">
        <ele>86</ele>
        <time>2012-01-28T12:36:42Z</time>
      </trkpt>
      <trkpt lat="44.80288" lon="-0.31887">
        <ele>85</ele>
        <time>2012-01-28T12:36:50Z</time>
      </trkpt>
      <trkpt lat="44.80297" lon="-0.31895">
        <ele>84</ele>
        <time>2012-01-28T12:36:57Z</time>
      </trkpt>
      <trkpt lat="44.80306" lon="-0.31899">
        <ele>83</ele>
        <time>2012-01-28T12:37:02Z</time>
      </trkpt>
      <trkpt lat="44.80316" lon="-0.31901">
        <ele>81</ele>
        <time>2012-01-28T12:37:06Z</time>
      </trkpt>
      <trkpt lat="44.80321" lon="-0.31888">
        <ele>80</ele>
        <time>2012-01-28T12:37:15Z</time>
      </trkpt>
      <trkpt lat="44.80328" lon="-0.31878">
        <ele>79</ele>
        <time>2012-01-28T12:37:26Z</time>
      </trkpt>
      <trkpt lat="44.80335" lon="-0.31868">
        <ele>79</ele>
        <time>2012-01-28T12:37:32Z</time>
      </trkpt>
      <trkpt lat="44.8034" lon="-0.31856">
        <ele>78</ele>
        <time>2012-01-28T12:37:39Z</time>
      </trkpt>
      <trkpt lat="44.80349" lon="-0.31849">
        <ele>78</ele>
        <time>2012-01-28T12:37:46Z</time>
      </trkpt>
      <trkpt lat="44.80358" lon="-0.31844">
        <ele>77</ele>
        <time>2012-01-28T12:37:50Z</time>
      </trkpt>
      <trkpt lat="44.80368" lon="-0.31843">
        <ele>76</ele>
        <time>2012-01-28T12:40:17Z</time>
      </trkpt>
      <trkpt lat="44.80378" lon="-0.31844">
        <ele>76</ele>
        <time>2012-01-28T12:40:22Z</time>
      </trkpt>
      <trkpt lat="44.80388" lon="-0.31844">
        <ele>75</ele>
        <time>2012-01-28T12:40:26Z</time>
      </trkpt>
      <trkpt lat="44.80399" lon="-0.31841">
        <ele>75</ele>
        <time>2012-01-28T12:40:30Z</time>
      </trkpt>
      <trkpt lat="44.80409" lon="-0.31839">
        <ele>74</ele>
        <time>2012-01-28T12:40:33Z</time>
      </trkpt>
      <trkpt lat="44.80419" lon="-0.31837">
        <ele>74</ele>
        <time>2012-01-28T12:40:36Z</time>
      </trkpt>
      <trkpt lat="44.8043" lon="-0.31835">
        <ele>73</ele>
        <time>2012-01-28T12:40:39Z</time>
      </trkpt>
      <trkpt lat="44.80442" lon="-0.31832">
        <ele>73</ele>
        <time>2012-01-28T12:40:42Z</time>
      </trkpt>
      <trkpt lat="44.80454" lon="-0.31829">
        <ele>72</ele>
        <time>2012-01-28T12:40:45Z</time>
      </trkpt>
      <trkpt lat="44.80466" lon="-0.31826">
        <ele>72</ele>
        <time>2012-01-28T12:40:48Z</time>
      </trkpt>
      <trkpt lat="44.80475" lon="-0.31823">
        <ele>72</ele>
        <time>2012-01-28T12:40:51Z</time>
      </trkpt>
      <trkpt lat="44.80487" lon="-0.31819">
        <ele>71</ele>
        <time>2012-01-28T12:40:55Z</time>
      </trkpt>
      <trkpt lat="44.80495" lon="-0.31829">
        <ele>71</ele>
        <time>2012-01-28T12:40:59Z</time>
      </trkpt>
      <trkpt lat="44.80498" lon="-0.31842">
        <ele>71</ele>
        <time>2012-01-28T12:41:02Z</time>
      </trkpt>
      <trkpt lat="44.805" lon="-0.31855">
        <ele>71</ele>
        <time>2012-01-28T12:41:05Z</time>
      </trkpt>
      <trkpt lat="44.80503" lon="-0.31869">
        <ele>71</ele>
        <time>2012-01-28T12:41:08Z</time>
      </trkpt>
      <trkpt lat="44.80505" lon="-0.31882">
        <ele>71</ele>
        <time>2012-01-28T12:41:11Z</time>
      </trkpt>
      <trkpt lat="44.80508" lon="-0.31898">
        <ele>71</ele>
        <time>2012-01-28T12:41:15Z</time>
      </trkpt>
      <trkpt lat="44.80511" lon="-0.31915">
        <ele>71</ele>
        <time>2012-01-28T12:41:19Z</time>
      </trkpt>
      <trkpt lat="44.80513" lon="-0.31932">
        <ele>71</ele>
        <time>2012-01-28T12:41:23Z</time>
      </trkpt>
      <trkpt lat="44.80514" lon="-0.31945">
        <ele>71</ele>
        <time>2012-01-28T12:41:26Z</time>
      </trkpt>
      <trkpt lat="44.80516" lon="-0.3196">
        <ele>72</ele>
        <time>2012-01-28T12:41:29Z</time>
      </trkpt>
      <trkpt lat="44.80517" lon="-0.31974">
        <ele>72</ele>
        <time>2012-01-28T12:41:32Z</time>
      </trkpt>
      <trkpt lat="44.80518" lon="-0.31989">
        <ele>72</ele>
        <time>2012-01-28T12:41:35Z</time>
      </trkpt>
      <trkpt lat="44.80521" lon="-0.32004">
        <ele>72</ele>
        <time>2012-01-28T12:41:38Z</time>
      </trkpt>
      <trkpt lat="44.80524" lon="-0.32018">
        <ele>72</ele>
        <time>2012-01-28T12:41:41Z</time>
      </trkpt>
      <trkpt lat="44.80529" lon="-0.32029">
        <ele>72</ele>
        <time>2012-01-28T12:41:44Z</time>
      </trkpt>
      <trkpt lat="44.80532" lon="-0.32043">
        <ele>73</ele>
        <time>2012-01-28T12:41:48Z</time>
      </trkpt>
      <trkpt lat="44.80534" lon="-0.32058">
        <ele>73</ele>
        <time>2012-01-28T12:41:53Z</time>
      </trkpt>
      <trkpt lat="44.8053" lon="-0.32072">
        <ele>74</ele>
        <time>2012-01-28T12:41:58Z</time>
      </trkpt>
      <trkpt lat="44.80532" lon="-0.32086">
        <ele>74</ele>
        <time>2012-01-28T12:42:03Z</time>
      </trkpt>
      <trkpt lat="44.80538" lon="-0.321">
        <ele>75</ele>
        <time>2012-01-28T12:42:07Z</time>
      </trkpt>
      <trkpt lat="44.80544" lon="-0.3211">
        <ele>75</ele>
        <time>2012-01-28T12:42:11Z</time>
      </trkpt>
      <trkpt lat="44.80551" lon="-0.32125">
        <ele>75</ele>
        <time>2012-01-28T12:42:15Z</time>
      </trkpt>
      <trkpt lat="44.80556" lon="-0.32136">
        <ele>76</ele>
        <time>2012-01-28T12:42:19Z</time>
      </trkpt>
      <trkpt lat="44.80559" lon="-0.32149">
        <ele>76</ele>
        <time>2012-01-28T12:42:23Z</time>
      </trkpt>
      <trkpt lat="44.80553" lon="-0.3216">
        <ele>77</ele>
        <time>2012-01-28T12:42:29Z</time>
      </trkpt>
      <trkpt lat="44.80544" lon="-0.32165">
        <ele>78</ele>
        <time>2012-01-28T12:42:34Z</time>
      </trkpt>
      <trkpt lat="44.80535" lon="-0.32169">
        <ele>80</ele>
        <time>2012-01-28T12:42:40Z</time>
      </trkpt>
      <trkpt lat="44.80525" lon="-0.32171">
        <ele>81</ele>
        <time>2012-01-28T12:42:47Z</time>
      </trkpt>
      <trkpt lat="44.80515" lon="-0.32171">
        <ele>82</ele>
        <time>2012-01-28T12:42:55Z</time>
      </trkpt>
      <trkpt lat="44.80505" lon="-0.32174">
        <ele>84</ele>
        <time>2012-01-28T12:43:03Z</time>
      </trkpt>
      <trkpt lat="44.80495" lon="-0.32178">
        <ele>85</ele>
        <time>2012-01-28T12:43:22Z</time>
      </trkpt>
      <trkpt lat="44.80486" lon="-0.3218">
        <ele>86</ele>
        <time>2012-01-28T12:43:41Z</time>
      </trkpt>
      <trkpt lat="44.80476" lon="-0.32181">
        <ele>87</ele>
        <time>2012-01-28T12:43:59Z</time>
      </trkpt>
      <trkpt lat="44.80468" lon="-0.32188">
        <ele>88</ele>
        <time>2012-01-28T12:44:11Z</time>
      </trkpt>
      <trkpt lat="44.80459" lon="-0.32191">
        <ele>89</ele>
        <time>2012-01-28T12:44:23Z</time>
      </trkpt>
      <trkpt lat="44.8045" lon="-0.32196">
        <ele>91</ele>
        <time>2012-01-28T12:44:41Z</time>
      </trkpt>
      <trkpt lat="44.80442" lon="-0.32204">
        <ele>92</ele>
        <time>2012-01-28T12:44:58Z</time>
      </trkpt>
      <trkpt lat="44.80433" lon="-0.32211">
        <ele>94</ele>
        <time>2012-01-28T12:45:15Z</time>
      </trkpt>
      <trkpt lat="44.80424" lon="-0.32215">
        <ele>96</ele>
        <time>2012-01-28T12:45:26Z</time>
      </trkpt>
      <trkpt lat="44.80415" lon="-0.32219">
        <ele>97</ele>
        <time>2012-01-28T12:45:37Z</time>
      </trkpt>
      <trkpt lat="44.80406" lon="-0.32223">
        <ele>98</ele>
        <time>2012-01-28T12:45:51Z</time>
      </trkpt>
      <trkpt lat="44.80396" lon="-0.32225">
        <ele>99</ele>
        <time>2012-01-28T12:46:06Z</time>
      </trkpt>
      <trkpt lat="44.80387" lon="-0.32228">
        <ele>100</ele>
        <time>2012-01-28T12:46:52Z</time>
      </trkpt>
      <trkpt lat="44.80378" lon="-0.32232">
        <ele>100</ele>
        <time>2012-01-28T12:47:05Z</time>
      </trkpt>
      <trkpt lat="44.80369" lon="-0.32235">
        <ele>101</ele>
        <time>2012-01-28T12:47:16Z</time>
      </trkpt>
      <trkpt lat="44.80359" lon="-0.3224">
        <ele>101</ele>
        <time>2012-01-28T12:48:27Z</time>
      </trkpt>
      <trkpt lat="44.80349" lon="-0.32243">
        <ele>101</ele>
        <time>2012-01-28T12:49:04Z</time>
      </trkpt>
      <trkpt lat="44.8034" lon="-0.3225">
        <ele>101</ele>
        <time>2012-01-28T12:49:10Z</time>
      </trkpt>
      <trkpt lat="44.80331" lon="-0.32257">
        <ele>101</ele>
        <time>2012-01-28T12:49:14Z</time>
      </trkpt>
      <trkpt lat="44.80321" lon="-0.32263">
        <ele>101</ele>
        <time>2012-01-28T12:49:19Z</time>
      </trkpt>
      <trkpt lat="44.80312" lon="-0.32269">
        <ele>100</ele>
        <time>2012-01-28T12:49:25Z</time>
      </trkpt>
      <trkpt lat="44.80303" lon="-0.32277">
        <ele>98</ele>
        <time>2012-01-28T12:49:32Z</time>
      </trkpt>
      <trkpt lat="44.80294" lon="-0.32284">
        <ele>97</ele>
        <time>2012-01-28T12:49:39Z</time>
      </trkpt>
      <trkpt lat="44.80286" lon="-0.32277">
        <ele>96</ele>
        <time>2012-01-28T12:49:47Z</time>
      </trkpt>
      <trkpt lat="44.80278" lon="-0.32268">
        <ele>96</ele>
        <time>2012-01-28T12:49:57Z</time>
      </trkpt>
      <trkpt lat="44.80271" lon="-0.32256">
        <ele>96</ele>
        <time>2012-01-28T12:50:02Z</time>
      </trkpt>
      <trkpt lat="44.80266" lon="-0.32242">
        <ele>97</ele>
        <time>2012-01-28T12:50:07Z</time>
      </trkpt>
      <trkpt lat="44.80259" lon="-0.3223">
        <ele>97</ele>
        <time>2012-01-28T12:50:13Z</time>
      </trkpt>
      <trkpt lat="44.8025" lon="-0.32222">
        <ele>97</ele>
        <time>2012-01-28T12:50:18Z</time>
      </trkpt>
      <trkpt lat="44.80239" lon="-0.32215">
        <ele>96</ele>
        <time>2012-01-28T12:50:22Z</time>
      </trkpt>
      <trkpt lat="44.8023" lon="-0.32207">
        <ele>97</ele>
        <time>2012-01-28T12:50:26Z</time>
      </trkpt>
      <trkpt lat="44.8022" lon="-0.322">
        <ele>97</ele>
        <time>2012-01-28T12:50:30Z</time>
      </trkpt>
      <trkpt lat="44.80211" lon="-0.32195">
        <ele>97</ele>
        <time>2012-01-28T12:50:35Z</time>
      </trkpt>
      <trkpt lat="44.80201" lon="-0.3219">
        <ele>97</ele>
        <time>2012-01-28T12:50:39Z</time>
      </trkpt>
      <trkpt lat="44.80191" lon="-0.32188">
        <ele>97</ele>
        <time>2012-01-28T12:50:43Z</time>
      </trkpt>
      <trkpt lat="44.80179" lon="-0.32193">
        <ele>96</ele>
        <time>2012-01-28T12:50:47Z</time>
      </trkpt>
      <trkpt lat="44.80168" lon="-0.32196">
        <ele>96</ele>
        <time>2012-01-28T12:50:50Z</time>
      </trkpt>
      <trkpt lat="44.80158" lon="-0.32203">
        <ele>96</ele>
        <time>2012-01-28T12:50:54Z</time>
      </trkpt>
      <trkpt lat="44.80148" lon="-0.3221">
        <ele>96</ele>
        <time>2012-01-28T12:50:58Z</time>
      </trkpt>
      <trkpt lat="44.80138" lon="-0.3222">
        <ele>95</ele>
        <time>2012-01-28T12:51:02Z</time>
      </trkpt>
      <trkpt lat="44.80131" lon="-0.32231">
        <ele>95</ele>
        <time>2012-01-28T12:51:05Z</time>
      </trkpt>
      <trkpt lat="44.80123" lon="-0.32242">
        <ele>94</ele>
        <time>2012-01-28T12:51:08Z</time>
      </trkpt>
      <trkpt lat="44.80115" lon="-0.3225">
        <ele>93</ele>
        <time>2012-01-28T12:51:11Z</time>
      </trkpt>
      <trkpt lat="44.80106" lon="-0.32262">
        <ele>93</ele>
        <time>2012-01-28T12:51:14Z</time>
      </trkpt>
      <trkpt lat="44.80098" lon="-0.32272">
        <ele>92</ele>
        <time>2012-01-28T12:51:17Z</time>
      </trkpt>
      <trkpt lat="44.80089" lon="-0.32282">
        <ele>92</ele>
        <time>2012-01-28T12:51:21Z</time>
      </trkpt>
      <trkpt lat="44.80082" lon="-0.32292">
        <ele>91</ele>
        <time>2012-01-28T12:51:24Z</time>
      </trkpt>
      <trkpt lat="44.80075" lon="-0.32301">
        <ele>91</ele>
        <time>2012-01-28T12:51:27Z</time>
      </trkpt>
      <trkpt lat="44.80067" lon="-0.32309">
        <ele>91</ele>
        <time>2012-01-28T12:51:30Z</time>
      </trkpt>
      <trkpt lat="44.8006" lon="-0.32318">
        <ele>91</ele>
        <time>2012-01-28T12:51:33Z</time>
      </trkpt>
      <trkpt lat="44.80053" lon="-0.3233">
        <ele>90</ele>
        <time>2012-01-28T12:51:36Z</time>
      </trkpt>
      <trkpt lat="44.80044" lon="-0.3234">
        <ele>90</ele>
        <time>2012-01-28T12:51:39Z</time>
      </trkpt>
      <trkpt lat="44.8004" lon="-0.32353">
        <ele>89</ele>
        <time>2012-01-28T12:51:42Z</time>
      </trkpt>
      <trkpt lat="44.80031" lon="-0.32365">
        <ele>89</ele>
        <time>2012-01-28T12:51:45Z</time>
      </trkpt>
      <trkpt lat="44.80022" lon="-0.32376">
        <ele>89</ele>
        <time>2012-01-28T12:51:49Z</time>
      </trkpt>
      <trkpt lat="44.80016" lon="-0.32388">
        <ele>88</ele>
        <time>2012-01-28T12:51:53Z</time>
      </trkpt>
      <trkpt lat="44.80008" lon="-0.32401">
        <ele>88</ele>
        <time>2012-01-28T12:51:57Z</time>
      </trkpt>
      <trkpt lat="44.8" lon="-0.32412">
        <ele>89</ele>
        <time>2012-01-28T12:52:00Z</time>
      </trkpt>
      <trkpt lat="44.79993" lon="-0.32423">
        <ele>89</ele>
        <time>2012-01-28T12:52:03Z</time>
      </trkpt>
      <trkpt lat="44.79986" lon="-0.32435">
        <ele>89</ele>
        <time>2012-01-28T12:52:06Z</time>
      </trkpt>
      <trkpt lat="44.79982" lon="-0.32446">
        <ele>89</ele>
        <time>2012-01-28T12:52:09Z</time>
      </trkpt>
      <trkpt lat="44.79976" lon="-0.32462">
        <ele>88</ele>
        <time>2012-01-28T12:52:12Z</time>
      </trkpt>
      <trkpt lat="44.79968" lon="-0.32478">
        <ele>88</ele>
        <time>2012-01-28T12:52:15Z</time>
      </trkpt>
      <trkpt lat="44.79963" lon="-0.32495">
        <ele>88</ele>
        <time>2012-01-28T12:52:18Z</time>
      </trkpt>
      <trkpt lat="44.79961" lon="-0.32508">
        <ele>87</ele>
        <time>2012-01-28T12:52:20Z</time>
      </trkpt>
      <trkpt lat="44.79958" lon="-0.32526">
        <ele>85</ele>
        <time>2012-01-28T12:52:23Z</time>
      </trkpt>
      <trkpt lat="44.79955" lon="-0.32543">
        <ele>84</ele>
        <time>2012-01-28T12:52:26Z</time>
      </trkpt>
      <trkpt lat="44.7995" lon="-0.32559">
        <ele>83</ele>
        <time>2012-01-28T12:52:29Z</time>
      </trkpt>
      <trkpt lat="44.79943" lon="-0.32573">
        <ele>82</ele>
        <time>2012-01-28T12:52:32Z</time>
      </trkpt>
      <trkpt lat="44.79934" lon="-0.32584">
        <ele>82</ele>
        <time>2012-01-28T12:52:35Z</time>
      </trkpt>
      <trkpt lat="44.79925" lon="-0.32592">
        <ele>82</ele>
        <time>2012-01-28T12:52:37Z</time>
      </trkpt>
      <trkpt lat="44.79917" lon="-0.32601">
        <ele>82</ele>
        <time>2012-01-28T12:52:39Z</time>
      </trkpt>
      <trkpt lat="44.79904" lon="-0.32612">
        <ele>81</ele>
        <time>2012-01-28T12:52:42Z</time>
      </trkpt>
      <trkpt lat="44.79895" lon="-0.32618">
        <ele>81</ele>
        <time>2012-01-28T12:52:44Z</time>
      </trkpt>
      <trkpt lat="44.79883" lon="-0.32623">
        <ele>82</ele>
        <time>2012-01-28T12:52:47Z</time>
      </trkpt>
      <trkpt lat="44.79874" lon="-0.32627">
        <ele>83</ele>
        <time>2012-01-28T12:52:49Z</time>
      </trkpt>
      <trkpt lat="44.79861" lon="-0.3263">
        <ele>83</ele>
        <time>2012-01-28T12:52:52Z</time>
      </trkpt>
      <trkpt lat="44.79849" lon="-0.32635">
        <ele>84</ele>
        <time>2012-01-28T12:52:55Z</time>
      </trkpt>
      <trkpt lat="44.79838" lon="-0.32643">
        <ele>85</ele>
        <time>2012-01-28T12:52:58Z</time>
      </trkpt>
      <trkpt lat="44.79829" lon="-0.32655">
        <ele>85</ele>
        <time>2012-01-28T12:53:01Z</time>
      </trkpt>
      <trkpt lat="44.79821" lon="-0.32665">
        <ele>85</ele>
        <time>2012-01-28T12:53:04Z</time>
      </trkpt>
      <trkpt lat="44.79813" lon="-0.32678">
        <ele>85</ele>
        <time>2012-01-28T12:53:08Z</time>
      </trkpt>
      <trkpt lat="44.79805" lon="-0.32691">
        <ele>85</ele>
        <time>2012-01-28T12:53:11Z</time>
      </trkpt>
      <trkpt lat="44.79796" lon="-0.32704">
        <ele>83</ele>
        <time>2012-01-28T12:53:14Z</time>
      </trkpt>
      <trkpt lat="44.79789" lon="-0.32713">
        <ele>83</ele>
        <time>2012-01-28T12:53:16Z</time>
      </trkpt>
      <trkpt lat="44.79782" lon="-0.32724">
        <ele>82</ele>
        <time>2012-01-28T12:53:18Z</time>
      </trkpt>
      <trkpt lat="44.79773" lon="-0.32738">
        <ele>81</ele>
        <time>2012-01-28T12:53:21Z</time>
      </trkpt>
      <trkpt lat="44.79764" lon="-0.32753">
        <ele>79</ele>
        <time>2012-01-28T12:53:24Z</time>
      </trkpt>
      <trkpt lat="44.79758" lon="-0.32766">
        <ele>78</ele>
        <time>2012-01-28T12:53:27Z</time>
      </trkpt>
      <trkpt lat="44.7975" lon="-0.32778">
        <ele>77</ele>
        <time>2012-01-28T12:53:30Z</time>
      </trkpt>
      <trkpt lat="44.79742" lon="-0.32791">
        <ele>76</ele>
        <time>2012-01-28T12:53:34Z</time>
      </trkpt>
      <trkpt lat="44.79735" lon="-0.32802">
        <ele>75</ele>
        <time>2012-01-28T12:53:38Z</time>
      </trkpt>
      <trkpt lat="44.79728" lon="-0.32816">
        <ele>74</ele>
        <time>2012-01-28T12:53:43Z</time>
      </trkpt>
      <trkpt lat="44.79724" lon="-0.32828">
        <ele>73</ele>
        <time>2012-01-28T12:53:47Z</time>
      </trkpt>
      <trkpt lat="44.79724" lon="-0.32842">
        <ele>71</ele>
        <time>2012-01-28T12:53:51Z</time>
      </trkpt>
      <trkpt lat="44.79728" lon="-0.32858">
        <ele>70</ele>
        <time>2012-01-28T12:53:55Z</time>
      </trkpt>
      <trkpt lat="44.7973" lon="-0.32875">
        <ele>69</ele>
        <time>2012-01-28T12:53:59Z</time>
      </trkpt>
      <trkpt lat="44.79728" lon="-0.32889">
        <ele>68</ele>
        <time>2012-01-28T12:54:03Z</time>
      </trkpt>
      <trkpt lat="44.79726" lon="-0.32905">
        <ele>66</ele>
        <time>2012-01-28T12:54:07Z</time>
      </trkpt>
      <trkpt lat="44.79725" lon="-0.32919">
        <ele>65</ele>
        <time>2012-01-28T12:54:10Z</time>
      </trkpt>
      <trkpt lat="44.79724" lon="-0.32936">
        <ele>64</ele>
        <time>2012-01-28T12:54:14Z</time>
      </trkpt>
      <trkpt lat="44.79723" lon="-0.32951">
        <ele>63</ele>
        <time>2012-01-28T12:54:18Z</time>
      </trkpt>
      <trkpt lat="44.79723" lon="-0.32965">
        <ele>62</ele>
        <time>2012-01-28T12:54:22Z</time>
      </trkpt>
      <trkpt lat="44.7972" lon="-0.32977">
        <ele>61</ele>
        <time>2012-01-28T12:54:26Z</time>
      </trkpt>
      <trkpt lat="44.79718" lon="-0.32991">
        <ele>60</ele>
        <time>2012-01-28T12:54:30Z</time>
      </trkpt>
      <trkpt lat="44.79716" lon="-0.33005">
        <ele>59</ele>
        <time>2012-01-28T12:54:34Z</time>
      </trkpt>
      <trkpt lat="44.79714" lon="-0.33021">
        <ele>58</ele>
        <time>2012-01-28T12:54:38Z</time>
      </trkpt>
      <trkpt lat="44.79712" lon="-0.33036">
        <ele>57</ele>
        <time>2012-01-28T12:54:42Z</time>
      </trkpt>
      <trkpt lat="44.7971" lon="-0.33049">
        <ele>56</ele>
        <time>2012-01-28T12:54:50Z</time>
      </trkpt>
      <trkpt lat="44.79714" lon="-0.33063">
        <ele>55</ele>
        <time>2012-01-28T12:54:56Z</time>
      </trkpt>
      <trkpt lat="44.79719" lon="-0.33077">
        <ele>54</ele>
        <time>2012-01-28T12:55:01Z</time>
      </trkpt>
      <trkpt lat="44.79725" lon="-0.33091">
        <ele>54</ele>
        <time>2012-01-28T12:55:06Z</time>
      </trkpt>
      <trkpt lat="44.79729" lon="-0.33103">
        <ele>53</ele>
        <time>2012-01-28T12:55:10Z</time>
      </trkpt>
      <trkpt lat="44.79733" lon="-0.33119">
        <ele>52</ele>
        <time>2012-01-28T12:55:14Z</time>
      </trkpt>
      <trkpt lat="44.79735" lon="-0.33134">
        <ele>52</ele>
        <time>2012-01-28T12:55:22Z</time>
      </trkpt>
      <trkpt lat="44.79738" lon="-0.33147">
        <ele>53</ele>
        <time>2012-01-28T12:55:37Z</time>
      </trkpt>
      <trkpt lat="44.79746" lon="-0.33155">
        <ele>53</ele>
        <time>2012-01-28T12:56:31Z</time>
      </trkpt>
      <trkpt lat="44.79738" lon="-0.33147">
        <ele>53</ele>
        <time>2012-01-28T12:57:49Z</time>
      </trkpt>
      <trkpt lat="44.79741" lon="-0.3316">
        <ele>53</ele>
        <time>2012-01-28T13:02:19Z</time>
      </trkpt>
      <trkpt lat="44.79749" lon="-0.33169">
        <ele>53</ele>
        <time>2012-01-28T13:07:07Z</time>
      </trkpt>
      <trkpt lat="44.79755" lon="-0.3318">
        <ele>54</ele>
        <time>2012-01-28T13:07:16Z</time>
      </trkpt>
      <trkpt lat="44.79762" lon="-0.33189">
        <ele>55</ele>
        <time>2012-01-28T13:07:26Z</time>
      </trkpt>
      <trkpt lat="44.7977" lon="-0.33197">
        <ele>56</ele>
        <time>2012-01-28T13:07:36Z</time>
      </trkpt>
      <trkpt lat="44.79776" lon="-0.33208">
        <ele>57</ele>
        <time>2012-01-28T13:07:46Z</time>
      </trkpt>
      <trkpt lat="44.79782" lon="-0.33219">
        <ele>58</ele>
        <time>2012-01-28T13:07:56Z</time>
      </trkpt>
      <trkpt lat="44.79789" lon="-0.33229">
        <ele>59</ele>
        <time>2012-01-28T13:08:11Z</time>
      </trkpt>
      <trkpt lat="44.79796" lon="-0.33238">
        <ele>60</ele>
        <time>2012-01-28T13:08:21Z</time>
      </trkpt>
      <trkpt lat="44.79803" lon="-0.33248">
        <ele>61</ele>
        <time>2012-01-28T13:09:08Z</time>
      </trkpt>
      <trkpt lat="44.7981" lon="-0.33258">
        <ele>61</ele>
        <time>2012-01-28T13:09:17Z</time>
      </trkpt>
      <trkpt lat="44.79818" lon="-0.33269">
        <ele>60</ele>
        <time>2012-01-28T13:09:23Z</time>
      </trkpt>
      <trkpt lat="44.79826" lon="-0.33279">
        <ele>60</ele>
        <time>2012-01-28T13:09:28Z</time>
      </trkpt>
      <trkpt lat="44.79833" lon="-0.33291">
        <ele>60</ele>
        <time>2012-01-28T13:09:33Z</time>
      </trkpt>
      <trkpt lat="44.79841" lon="-0.33303">
        <ele>60</ele>
        <time>2012-01-28T13:09:37Z</time>
      </trkpt>
      <trkpt lat="44.79848" lon="-0.33312">
        <ele>60</ele>
        <time>2012-01-28T13:09:40Z</time>
      </trkpt>
      <trkpt lat="44.79856" lon="-0.33324">
        <ele>60</ele>
        <time>2012-01-28T13:09:44Z</time>
      </trkpt>
      <trkpt lat="44.79865" lon="-0.33335">
        <ele>60</ele>
        <time>2012-01-28T13:09:48Z</time>
      </trkpt>
      <trkpt lat="44.79873" lon="-0.33345">
        <ele>61</ele>
        <time>2012-01-28T13:09:52Z</time>
      </trkpt>
      <trkpt lat="44.7988" lon="-0.33354">
        <ele>61</ele>
        <time>2012-01-28T13:09:56Z</time>
      </trkpt>
      <trkpt lat="44.79888" lon="-0.33363">
        <ele>62</ele>
        <time>2012-01-28T13:10:01Z</time>
      </trkpt>
      <trkpt lat="44.79896" lon="-0.33372">
        <ele>62</ele>
        <time>2012-01-28T13:10:05Z</time>
      </trkpt>
      <trkpt lat="44.79904" lon="-0.33382">
        <ele>62</ele>
        <time>2012-01-28T13:10:09Z</time>
      </trkpt>
      <trkpt lat="44.79911" lon="-0.33393">
        <ele>62</ele>
        <time>2012-01-28T13:10:13Z</time>
      </trkpt>
      <trkpt lat="44.79918" lon="-0.33403">
        <ele>62</ele>
        <time>2012-01-28T13:10:17Z</time>
      </trkpt>
      <trkpt lat="44.79926" lon="-0.33413">
        <ele>62</ele>
        <time>2012-01-28T13:10:21Z</time>
      </trkpt>
      <trkpt lat="44.79933" lon="-0.33422">
        <ele>62</ele>
        <time>2012-01-28T13:10:25Z</time>
      </trkpt>
      <trkpt lat="44.7994" lon="-0.33431">
        <ele>62</ele>
        <time>2012-01-28T13:10:29Z</time>
      </trkpt>
      <trkpt lat="44.79948" lon="-0.33441">
        <ele>62</ele>
        <time>2012-01-28T13:10:33Z</time>
      </trkpt>
      <trkpt lat="44.79955" lon="-0.3345">
        <ele>62</ele>
        <time>2012-01-28T13:10:37Z</time>
      </trkpt>
      <trkpt lat="44.79964" lon="-0.33459">
        <ele>62</ele>
        <time>2012-01-28T13:10:41Z</time>
      </trkpt>
      <trkpt lat="44.79971" lon="-0.33469">
        <ele>62</ele>
        <time>2012-01-28T13:10:45Z</time>
      </trkpt>
      <trkpt lat="44.7998" lon="-0.3348">
        <ele>62</ele>
        <time>2012-01-28T13:10:49Z</time>
      </trkpt>
      <trkpt lat="44.79989" lon="-0.3349">
        <ele>62</ele>
        <time>2012-01-28T13:10:53Z</time>
      </trkpt>
      <trkpt lat="44.79997" lon="-0.335">
        <ele>62</ele>
        <time>2012-01-28T13:10:57Z</time>
      </trkpt>
      <trkpt lat="44.80006" lon="-0.33511">
        <ele>62</ele>
        <time>2012-01-28T13:11:01Z</time>
      </trkpt>
      <trkpt lat="44.80014" lon="-0.3352">
        <ele>62</ele>
        <time>2012-01-28T13:11:05Z</time>
      </trkpt>
      <trkpt lat="44.80022" lon="-0.3353">
        <ele>62</ele>
        <time>2012-01-28T13:11:09Z</time>
      </trkpt>
      <trkpt lat="44.80029" lon="-0.3354">
        <ele>62</ele>
        <time>2012-01-28T13:11:13Z</time>
      </trkpt>
      <trkpt lat="44.80037" lon="-0.3355">
        <ele>62</ele>
        <time>2012-01-28T13:11:20Z</time>
      </trkpt>
      <trkpt lat="44.80046" lon="-0.33562">
        <ele>62</ele>
        <time>2012-01-28T13:11:24Z</time>
      </trkpt>
      <trkpt lat="44.80051" lon="-0.33573">
        <ele>61</ele>
        <time>2012-01-28T13:11:30Z</time>
      </trkpt>
      <trkpt lat="44.8006" lon="-0.33564">
        <ele>62</ele>
        <time>2012-01-28T13:12:23Z</time>
      </trkpt>
      <trkpt lat="44.80067" lon="-0.33552">
        <ele>63</ele>
        <time>2012-01-28T13:12:29Z</time>
      </trkpt>
      <trkpt lat="44.80074" lon="-0.3354">
        <ele>64</ele>
        <time>2012-01-28T13:12:35Z</time>
      </trkpt>
      <trkpt lat="44.80081" lon="-0.33527">
        <ele>65</ele>
        <time>2012-01-28T13:12:41Z</time>
      </trkpt>
      <trkpt lat="44.80087" lon="-0.33516">
        <ele>65</ele>
        <time>2012-01-28T13:12:47Z</time>
      </trkpt>
      <trkpt lat="44.80093" lon="-0.33505">
        <ele>66</ele>
        <time>2012-01-28T13:12:52Z</time>
      </trkpt>
      <trkpt lat="44.80099" lon="-0.33495">
        <ele>67</ele>
        <time>2012-01-28T13:12:57Z</time>
      </trkpt>
      <trkpt lat="44.80107" lon="-0.33487">
        <ele>67</ele>
        <time>2012-01-28T13:13:03Z</time>
      </trkpt>
      <trkpt lat="44.80117" lon="-0.33485">
        <ele>67</ele>
        <time>2012-01-28T13:13:12Z</time>
      </trkpt>
      <trkpt lat="44.80126" lon="-0.33491">
        <ele>67</ele>
        <time>2012-01-28T13:13:19Z</time>
      </trkpt>
      <trkpt lat="44.80135" lon="-0.33496">
        <ele>66</ele>
        <time>2012-01-28T13:13:29Z</time>
      </trkpt>
      <trkpt lat="44.80144" lon="-0.33505">
        <ele>65</ele>
        <time>2012-01-28T13:13:33Z</time>
      </trkpt>
      <trkpt lat="44.80153" lon="-0.33515">
        <ele>65</ele>
        <time>2012-01-28T13:13:37Z</time>
      </trkpt>
      <trkpt lat="44.80161" lon="-0.33522">
        <ele>65</ele>
        <time>2012-01-28T13:13:41Z</time>
      </trkpt>
      <trkpt lat="44.8017" lon="-0.33529">
        <ele>65</ele>
        <time>2012-01-28T13:13:46Z</time>
      </trkpt>
      <trkpt lat="44.80178" lon="-0.33539">
        <ele>66</ele>
        <time>2012-01-28T13:13:52Z</time>
      </trkpt>
      <trkpt lat="44.80187" lon="-0.33545">
        <ele>66</ele>
        <time>2012-01-28T13:13:58Z</time>
      </trkpt>
      <trkpt lat="44.80195" lon="-0.33551">
        <ele>66</ele>
        <time>2012-01-28T13:14:02Z</time>
      </trkpt>
      <trkpt lat="44.80207" lon="-0.33555">
        <ele>67</ele>
        <time>2012-01-28T13:14:07Z</time>
      </trkpt>
      <trkpt lat="44.80218" lon="-0.33557">
        <ele>68</ele>
        <time>2012-01-28T13:14:12Z</time>
      </trkpt>
      <trkpt lat="44.80228" lon="-0.33558">
        <ele>69</ele>
        <time>2012-01-28T13:14:17Z</time>
      </trkpt>
      <trkpt lat="44.80238" lon="-0.33559">
        <ele>70</ele>
        <time>2012-01-28T13:14:22Z</time>
      </trkpt>
      <trkpt lat="44.80247" lon="-0.33558">
        <ele>71</ele>
        <time>2012-01-28T13:14:28Z</time>
      </trkpt>
      <trkpt lat="44.80257" lon="-0.33555">
        <ele>72</ele>
        <time>2012-01-28T13:14:35Z</time>
      </trkpt>
      <trkpt lat="44.80268" lon="-0.33552">
        <ele>74</ele>
        <time>2012-01-28T13:14:42Z</time>
      </trkpt>
      <trkpt lat="44.80276" lon="-0.33559">
        <ele>74</ele>
        <time>2012-01-28T13:15:56Z</time>
      </trkpt>
      <trkpt lat="44.80277" lon="-0.33575">
        <ele>73</ele>
        <time>2012-01-28T13:16:00Z</time>
      </trkpt>
      <trkpt lat="44.8028" lon="-0.33591">
        <ele>72</ele>
        <time>2012-01-28T13:16:03Z</time>
      </trkpt>
      <trkpt lat="44.80286" lon="-0.33607">
        <ele>72</ele>
        <time>2012-01-28T13:16:06Z</time>
      </trkpt>
      <trkpt lat="44.80294" lon="-0.33619">
        <ele>72</ele>
        <time>2012-01-28T13:16:09Z</time>
      </trkpt>
      <trkpt lat="44.80303" lon="-0.3363">
        <ele>72</ele>
        <time>2012-01-28T13:16:12Z</time>
      </trkpt>
      <trkpt lat="44.80311" lon="-0.33642">
        <ele>72</ele>
        <time>2012-01-28T13:16:15Z</time>
      </trkpt>
      <trkpt lat="44.80319" lon="-0.33655">
        <ele>72</ele>
        <time>2012-01-28T13:16:18Z</time>
      </trkpt>
      <trkpt lat="44.80326" lon="-0.3367">
        <ele>72</ele>
        <time>2012-01-28T13:16:21Z</time>
      </trkpt>
      <trkpt lat="44.80334" lon="-0.33687">
        <ele>71</ele>
        <time>2012-01-28T13:16:24Z</time>
      </trkpt>
      <trkpt lat="44.8034" lon="-0.33699">
        <ele>71</ele>
        <time>2012-01-28T13:16:26Z</time>
      </trkpt>
      <trkpt lat="44.80347" lon="-0.33714">
        <ele>70</ele>
        <time>2012-01-28T13:16:29Z</time>
      </trkpt>
      <trkpt lat="44.80353" lon="-0.33728">
        <ele>70</ele>
        <time>2012-01-28T13:16:32Z</time>
      </trkpt>
      <trkpt lat="44.80353" lon="-0.33746">
        <ele>70</ele>
        <time>2012-01-28T13:16:35Z</time>
      </trkpt>
      <trkpt lat="44.80348" lon="-0.3376">
        <ele>69</ele>
        <time>2012-01-28T13:16:37Z</time>
      </trkpt>
      <trkpt lat="44.8034" lon="-0.33773">
        <ele>68</ele>
        <time>2012-01-28T13:16:39Z</time>
      </trkpt>
      <trkpt lat="44.80333" lon="-0.33787">
        <ele>67</ele>
        <time>2012-01-28T13:16:41Z</time>
      </trkpt>
      <trkpt lat="44.80326" lon="-0.33799">
        <ele>66</ele>
        <time>2012-01-28T13:16:43Z</time>
      </trkpt>
      <trkpt lat="44.8032" lon="-0.3381">
        <ele>65</ele>
        <time>2012-01-28T13:16:45Z</time>
      </trkpt>
      <trkpt lat="44.80314" lon="-0.33822">
        <ele>64</ele>
        <time>2012-01-28T13:16:47Z</time>
      </trkpt>
      <trkpt lat="44.80307" lon="-0.33836">
        <ele>63</ele>
        <time>2012-01-28T13:16:50Z</time>
      </trkpt>
      <trkpt lat="44.80298" lon="-0.33849">
        <ele>62</ele>
        <time>2012-01-28T13:16:53Z</time>
      </trkpt>
      <trkpt lat="44.80298" lon="-0.33865">
        <ele>61</ele>
        <time>2012-01-28T13:16:57Z</time>
      </trkpt>
      <trkpt lat="44.80307" lon="-0.33873">
        <ele>60</ele>
        <time>2012-01-28T13:17:00Z</time>
      </trkpt>
      <trkpt lat="44.80316" lon="-0.33879">
        <ele>59</ele>
        <time>2012-01-28T13:17:02Z</time>
      </trkpt>
      <trkpt lat="44.80328" lon="-0.33888">
        <ele>58</ele>
        <time>2012-01-28T13:17:05Z</time>
      </trkpt>
      <trkpt lat="44.80338" lon="-0.33895">
        <ele>57</ele>
        <time>2012-01-28T13:17:09Z</time>
      </trkpt>
      <trkpt lat="44.80346" lon="-0.33902">
        <ele>56</ele>
        <time>2012-01-28T13:17:12Z</time>
      </trkpt>
      <trkpt lat="44.80357" lon="-0.33909">
        <ele>55</ele>
        <time>2012-01-28T13:17:15Z</time>
      </trkpt>
      <trkpt lat="44.8037" lon="-0.33917">
        <ele>53</ele>
        <time>2012-01-28T13:17:18Z</time>
      </trkpt>
      <trkpt lat="44.8038" lon="-0.33923">
        <ele>53</ele>
        <time>2012-01-28T13:17:20Z</time>
      </trkpt>
      <trkpt lat="44.8039" lon="-0.33931">
        <ele>52</ele>
        <time>2012-01-28T13:17:22Z</time>
      </trkpt>
      <trkpt lat="44.80401" lon="-0.33938">
        <ele>51</ele>
        <time>2012-01-28T13:17:24Z</time>
      </trkpt>
      <trkpt lat="44.80409" lon="-0.33948">
        <ele>51</ele>
        <time>2012-01-28T13:17:26Z</time>
      </trkpt>
      <trkpt lat="44.80416" lon="-0.33959">
        <ele>51</ele>
        <time>2012-01-28T13:17:28Z</time>
      </trkpt>
      <trkpt lat="44.80424" lon="-0.33972">
        <ele>51</ele>
        <time>2012-01-28T13:17:31Z</time>
      </trkpt>
      <trkpt lat="44.80431" lon="-0.33982">
        <ele>52</ele>
        <time>2012-01-28T13:17:35Z</time>
      </trkpt>
      <trkpt lat="44.80439" lon="-0.33994">
        <ele>53</ele>
        <time>2012-01-28T13:17:39Z</time>
      </trkpt>
      <trkpt lat="44.80446" lon="-0.34004">
        <ele>54</ele>
        <time>2012-01-28T13:17:43Z</time>
      </trkpt>
      <trkpt lat="44.80452" lon="-0.34016">
        <ele>55</ele>
        <time>2012-01-28T13:17:47Z</time>
      </trkpt>
      <trkpt lat="44.80459" lon="-0.34026">
        <ele>56</ele>
        <time>2012-01-28T13:17:51Z</time>
      </trkpt>
      <trkpt lat="44.80466" lon="-0.34038">
        <ele>57</ele>
        <time>2012-01-28T13:17:55Z</time>
      </trkpt>
      <trkpt lat="44.80471" lon="-0.3405">
        <ele>58</ele>
        <time>2012-01-28T13:17:59Z</time>
      </trkpt>
      <trkpt lat="44.80475" lon="-0.34063">
        <ele>57</ele>
        <time>2012-01-28T13:18:04Z</time>
      </trkpt>
      <trkpt lat="44.80481" lon="-0.34075">
        <ele>57</ele>
        <time>2012-01-28T13:18:08Z</time>
      </trkpt>
      <trkpt lat="44.80486" lon="-0.34087">
        <ele>56</ele>
        <time>2012-01-28T13:18:11Z</time>
      </trkpt>
      <trkpt lat="44.80491" lon="-0.34099">
        <ele>56</ele>
        <time>2012-01-28T13:18:14Z</time>
      </trkpt>
      <trkpt lat="44.80497" lon="-0.34112">
        <ele>55</ele>
        <time>2012-01-28T13:18:17Z</time>
      </trkpt>
      <trkpt lat="44.80503" lon="-0.34125">
        <ele>54</ele>
        <time>2012-01-28T13:18:21Z</time>
      </trkpt>
      <trkpt lat="44.80509" lon="-0.34139">
        <ele>52</ele>
        <time>2012-01-28T13:18:26Z</time>
      </trkpt>
      <trkpt lat="44.80518" lon="-0.3415">
        <ele>52</ele>
        <time>2012-01-28T13:18:29Z</time>
      </trkpt>
      <trkpt lat="44.80525" lon="-0.34159">
        <ele>51</ele>
        <time>2012-01-28T13:18:31Z</time>
      </trkpt>
      <trkpt lat="44.80533" lon="-0.34169">
        <ele>50</ele>
        <time>2012-01-28T13:18:33Z</time>
      </trkpt>
      <trkpt lat="44.8054" lon="-0.3418">
        <ele>50</ele>
        <time>2012-01-28T13:18:35Z</time>
      </trkpt>
      <trkpt lat="44.80546" lon="-0.34192">
        <ele>50</ele>
        <time>2012-01-28T13:18:37Z</time>
      </trkpt>
      <trkpt lat="44.80553" lon="-0.34207">
        <ele>50</ele>
        <time>2012-01-28T13:18:40Z</time>
      </trkpt>
      <trkpt lat="44.8056" lon="-0.3422">
        <ele>50</ele>
        <time>2012-01-28T13:18:43Z</time>
      </trkpt>
      <trkpt lat="44.80566" lon="-0.34233">
        <ele>50</ele>
        <time>2012-01-28T13:18:46Z</time>
      </trkpt>
      <trkpt lat="44.80573" lon="-0.34247">
        <ele>51</ele>
        <time>2012-01-28T13:18:49Z</time>
      </trkpt>
      <trkpt lat="44.8058" lon="-0.34259">
        <ele>52</ele>
        <time>2012-01-28T13:18:52Z</time>
      </trkpt>
      <trkpt lat="44.80587" lon="-0.34272">
        <ele>53</ele>
        <time>2012-01-28T13:18:55Z</time>
      </trkpt>
      <trkpt lat="44.80595" lon="-0.34281">
        <ele>54</ele>
        <time>2012-01-28T13:18:59Z</time>
      </trkpt>
      <trkpt lat="44.80602" lon="-0.3429">
        <ele>55</ele>
        <time>2012-01-28T13:19:03Z</time>
      </trkpt>
      <trkpt lat="44.80607" lon="-0.34301">
        <ele>55</ele>
        <time>2012-01-28T13:19:07Z</time>
      </trkpt>
      <trkpt lat="44.8061" lon="-0.34314">
        <ele>55</ele>
        <time>2012-01-28T13:19:13Z</time>
      </trkpt>
      <trkpt lat="44.80615" lon="-0.34326">
        <ele>56</ele>
        <time>2012-01-28T13:19:28Z</time>
      </trkpt>
      <trkpt lat="44.80615" lon="-0.34339">
        <ele>55</ele>
        <time>2012-01-28T13:20:53Z</time>
      </trkpt>
      <trkpt lat="44.80614" lon="-0.34326">
        <ele>55</ele>
        <time>2012-01-28T13:26:19Z</time>
      </trkpt>
      <trkpt lat="44.80607" lon="-0.34335">
        <ele>54</ele>
        <time>2012-01-28T13:32:18Z</time>
      </trkpt>
      <trkpt lat="44.80601" lon="-0.34347">
        <ele>52</ele>
        <time>2012-01-28T13:32:24Z</time>
      </trkpt>
      <trkpt lat="44.80596" lon="-0.34362">
        <ele>50</ele>
        <time>2012-01-28T13:32:29Z</time>
      </trkpt>
      <trkpt lat="44.80591" lon="-0.34373">
        <ele>49</ele>
        <time>2012-01-28T13:32:32Z</time>
      </trkpt>
      <trkpt lat="44.80586" lon="-0.34385">
        <ele>48</ele>
        <time>2012-01-28T13:32:35Z</time>
      </trkpt>
      <trkpt lat="44.80579" lon="-0.34397">
        <ele>46</ele>
        <time>2012-01-28T13:32:38Z</time>
      </trkpt>
      <trkpt lat="44.80571" lon="-0.34411">
        <ele>45</ele>
        <time>2012-01-28T13:32:41Z</time>
      </trkpt>
      <trkpt lat="44.80565" lon="-0.34422">
        <ele>44</ele>
        <time>2012-01-28T13:32:43Z</time>
      </trkpt>
      <trkpt lat="44.80558" lon="-0.34432">
        <ele>43</ele>
        <time>2012-01-28T13:32:45Z</time>
      </trkpt>
      <trkpt lat="44.80549" lon="-0.34444">
        <ele>42</ele>
        <time>2012-01-28T13:32:48Z</time>
      </trkpt>
      <trkpt lat="44.80542" lon="-0.34457">
        <ele>42</ele>
        <time>2012-01-28T13:32:51Z</time>
      </trkpt>
      <trkpt lat="44.80536" lon="-0.34468">
        <ele>41</ele>
        <time>2012-01-28T13:32:54Z</time>
      </trkpt>
      <trkpt lat="44.80529" lon="-0.34479">
        <ele>41</ele>
        <time>2012-01-28T13:32:57Z</time>
      </trkpt>
      <trkpt lat="44.80523" lon="-0.34492">
        <ele>41</ele>
        <time>2012-01-28T13:33:00Z</time>
      </trkpt>
      <trkpt lat="44.80516" lon="-0.34504">
        <ele>41</ele>
        <time>2012-01-28T13:33:04Z</time>
      </trkpt>
      <trkpt lat="44.80511" lon="-0.34517">
        <ele>42</ele>
        <time>2012-01-28T13:33:14Z</time>
      </trkpt>
      <trkpt lat="44.80502" lon="-0.34524">
        <ele>42</ele>
        <time>2012-01-28T13:33:25Z</time>
      </trkpt>
      <trkpt lat="44.80493" lon="-0.34532">
        <ele>42</ele>
        <time>2012-01-28T13:33:31Z</time>
      </trkpt>
      <trkpt lat="44.80483" lon="-0.34538">
        <ele>43</ele>
        <time>2012-01-28T13:33:35Z</time>
      </trkpt>
      <trkpt lat="44.80474" lon="-0.34549">
        <ele>43</ele>
        <time>2012-01-28T13:33:39Z</time>
      </trkpt>
      <trkpt lat="44.80463" lon="-0.34557">
        <ele>44</ele>
        <time>2012-01-28T13:33:43Z</time>
      </trkpt>
      <trkpt lat="44.80453" lon="-0.34565">
        <ele>44</ele>
        <time>2012-01-28T13:33:47Z</time>
      </trkpt>
      <trkpt lat="44.80443" lon="-0.34574">
        <ele>45</ele>
        <time>2012-01-28T13:33:51Z</time>
      </trkpt>
      <trkpt lat="44.80434" lon="-0.34582">
        <ele>45</ele>
        <time>2012-01-28T13:33:55Z</time>
      </trkpt>
      <trkpt lat="44.80429" lon="-0.34594">
        <ele>45</ele>
        <time>2012-01-28T13:34:31Z</time>
      </trkpt>
      <trkpt lat="44.80433" lon="-0.34608">
        <ele>45</ele>
        <time>2012-01-28T13:34:39Z</time>
      </trkpt>
      <trkpt lat="44.8044" lon="-0.34619">
        <ele>45</ele>
        <time>2012-01-28T13:34:45Z</time>
      </trkpt>
      <trkpt lat="44.80445" lon="-0.34631">
        <ele>45</ele>
        <time>2012-01-28T13:34:50Z</time>
      </trkpt>
      <trkpt lat="44.80452" lon="-0.34645">
        <ele>45</ele>
        <time>2012-01-28T13:34:55Z</time>
      </trkpt>
      <trkpt lat="44.80459" lon="-0.34658">
        <ele>45</ele>
        <time>2012-01-28T13:34:59Z</time>
      </trkpt>
      <trkpt lat="44.80463" lon="-0.34671">
        <ele>46</ele>
        <time>2012-01-28T13:35:02Z</time>
      </trkpt>
      <trkpt lat="44.80467" lon="-0.34685">
        <ele>45</ele>
        <time>2012-01-28T13:35:05Z</time>
      </trkpt>
      <trkpt lat="44.80472" lon="-0.34697">
        <ele>45</ele>
        <time>2012-01-28T13:35:08Z</time>
      </trkpt>
      <trkpt lat="44.80477" lon="-0.34711">
        <ele>45</ele>
        <time>2012-01-28T13:35:12Z</time>
      </trkpt>
      <trkpt lat="44.80482" lon="-0.34725">
        <ele>45</ele>
        <time>2012-01-28T13:35:16Z</time>
      </trkpt>
      <trkpt lat="44.80488" lon="-0.34736">
        <ele>44</ele>
        <time>2012-01-28T13:35:19Z</time>
      </trkpt>
      <trkpt lat="44.80495" lon="-0.3475">
        <ele>44</ele>
        <time>2012-01-28T13:35:23Z</time>
      </trkpt>
      <trkpt lat="44.80489" lon="-0.34762">
        <ele>45</ele>
        <time>2012-01-28T13:35:27Z</time>
      </trkpt>
      <trkpt lat="44.80483" lon="-0.34774">
        <ele>45</ele>
        <time>2012-01-28T13:35:31Z</time>
      </trkpt>
      <trkpt lat="44.80475" lon="-0.34783">
        <ele>45</ele>
        <time>2012-01-28T13:35:35Z</time>
      </trkpt>
      <trkpt lat="44.80468" lon="-0.34794">
        <ele>45</ele>
        <time>2012-01-28T13:35:39Z</time>
      </trkpt>
      <trkpt lat="44.80459" lon="-0.34801">
        <ele>46</ele>
        <time>2012-01-28T13:35:46Z</time>
      </trkpt>
      <trkpt lat="44.8045" lon="-0.34809">
        <ele>46</ele>
        <time>2012-01-28T13:35:55Z</time>
      </trkpt>
      <trkpt lat="44.80442" lon="-0.34817">
        <ele>47</ele>
        <time>2012-01-28T13:35:59Z</time>
      </trkpt>
      <trkpt lat="44.80435" lon="-0.3483">
        <ele>47</ele>
        <time>2012-01-28T13:36:04Z</time>
      </trkpt>
      <trkpt lat="44.80433" lon="-0.34842">
        <ele>48</ele>
        <time>2012-01-28T13:36:09Z</time>
      </trkpt>
      <trkpt lat="44.80428" lon="-0.34854">
        <ele>48</ele>
        <time>2012-01-28T13:36:14Z</time>
      </trkpt>
      <trkpt lat="44.80426" lon="-0.34868">
        <ele>48</ele>
        <time>2012-01-28T13:36:21Z</time>
      </trkpt>
      <trkpt lat="44.80422" lon="-0.34881">
        <ele>49</ele>
        <time>2012-01-28T13:36:25Z</time>
      </trkpt>
      <trkpt lat="44.80417" lon="-0.34892">
        <ele>50</ele>
        <time>2012-01-28T13:36:30Z</time>
      </trkpt>
      <trkpt lat="44.80415" lon="-0.34907">
        <ele>50</ele>
        <time>2012-01-28T13:36:36Z</time>
      </trkpt>
      <trkpt lat="44.80411" lon="-0.34919">
        <ele>51</ele>
        <time>2012-01-28T13:36:42Z</time>
      </trkpt>
      <trkpt lat="44.8041" lon="-0.34934">
        <ele>51</ele>
        <time>2012-01-28T13:36:52Z</time>
      </trkpt>
      <trkpt lat="44.80408" lon="-0.34948">
        <ele>52</ele>
        <time>2012-01-28T13:37:05Z</time>
      </trkpt>
      <trkpt lat="44.80403" lon="-0.3496">
        <ele>53</ele>
        <time>2012-01-28T13:37:15Z</time>
      </trkpt>
      <trkpt lat="44.80401" lon="-0.34972">
        <ele>54</ele>
        <time>2012-01-28T13:37:33Z</time>
      </trkpt>
      <trkpt lat="44.80394" lon="-0.34981">
        <ele>55</ele>
        <time>2012-01-28T13:38:04Z</time>
      </trkpt>
      <trkpt lat="44.80387" lon="-0.34991">
        <ele>55</ele>
        <time>2012-01-28T13:38:14Z</time>
      </trkpt>
      <trkpt lat="44.80382" lon="-0.35003">
        <ele>56</ele>
        <time>2012-01-28T13:38:24Z</time>
      </trkpt>
      <trkpt lat="44.80378" lon="-0.35015">
        <ele>57</ele>
        <time>2012-01-28T13:39:00Z</time>
      </trkpt>
      <trkpt lat="44.80372" lon="-0.35027">
        <ele>57</ele>
        <time>2012-01-28T13:39:36Z</time>
      </trkpt>
      <trkpt lat="44.80365" lon="-0.35037">
        <ele>57</ele>
        <time>2012-01-28T13:40:25Z</time>
      </trkpt>
      <trkpt lat="44.80359" lon="-0.35048">
        <ele>58</ele>
        <time>2012-01-28T13:45:13Z</time>
      </trkpt>
      <trkpt lat="44.80353" lon="-0.3506">
        <ele>58</ele>
        <time>2012-01-28T13:45:21Z</time>
      </trkpt>
      <trkpt lat="44.80349" lon="-0.35073">
        <ele>59</ele>
        <time>2012-01-28T13:45:28Z</time>
      </trkpt>
      <trkpt lat="44.80344" lon="-0.35086">
        <ele>59</ele>
        <time>2012-01-28T13:45:36Z</time>
      </trkpt>
      <trkpt lat="44.80338" lon="-0.35097">
        <ele>60</ele>
        <time>2012-01-28T13:45:43Z</time>
      </trkpt>
      <trkpt lat="44.80332" lon="-0.3511">
        <ele>61</ele>
        <time>2012-01-28T13:45:52Z</time>
      </trkpt>
      <trkpt lat="44.80326" lon="-0.35122">
        <ele>62</ele>
        <time>2012-01-28T13:46:00Z</time>
      </trkpt>
      <trkpt lat="44.8032" lon="-0.35134">
        <ele>63</ele>
        <time>2012-01-28T13:46:08Z</time>
      </trkpt>
      <trkpt lat="44.80316" lon="-0.35147">
        <ele>64</ele>
        <time>2012-01-28T13:46:16Z</time>
      </trkpt>
      <trkpt lat="44.80313" lon="-0.35159">
        <ele>65</ele>
        <time>2012-01-28T13:46:24Z</time>
      </trkpt>
      <trkpt lat="44.80306" lon="-0.35169">
        <ele>65</ele>
        <time>2012-01-28T13:46:39Z</time>
      </trkpt>
      <trkpt lat="44.80301" lon="-0.35181">
        <ele>66</ele>
        <time>2012-01-28T13:47:00Z</time>
      </trkpt>
      <trkpt lat="44.80297" lon="-0.35193">
        <ele>67</ele>
        <time>2012-01-28T13:48:19Z</time>
      </trkpt>
      <trkpt lat="44.80297" lon="-0.35207">
        <ele>68</ele>
        <time>2012-01-28T13:48:39Z</time>
      </trkpt>
      <trkpt lat="44.80297" lon="-0.3522">
        <ele>70</ele>
        <time>2012-01-28T13:48:46Z</time>
      </trkpt>
      <trkpt lat="44.80293" lon="-0.35232">
        <ele>71</ele>
        <time>2012-01-28T13:48:55Z</time>
      </trkpt>
      <trkpt lat="44.80291" lon="-0.35245">
        <ele>72</ele>
        <time>2012-01-28T13:49:01Z</time>
      </trkpt>
      <trkpt lat="44.80289" lon="-0.3526">
        <ele>73</ele>
        <time>2012-01-28T13:49:10Z</time>
      </trkpt>
      <trkpt lat="44.80291" lon="-0.35274">
        <ele>74</ele>
        <time>2012-01-28T13:49:18Z</time>
      </trkpt>
      <trkpt lat="44.80291" lon="-0.35288">
        <ele>75</ele>
        <time>2012-01-28T13:49:28Z</time>
      </trkpt>
      <trkpt lat="44.80287" lon="-0.35301">
        <ele>76</ele>
        <time>2012-01-28T13:49:38Z</time>
      </trkpt>
      <trkpt lat="44.80284" lon="-0.35314">
        <ele>78</ele>
        <time>2012-01-28T13:49:52Z</time>
      </trkpt>
      <trkpt lat="44.80282" lon="-0.35328">
        <ele>79</ele>
        <time>2012-01-28T13:50:04Z</time>
      </trkpt>
      <trkpt lat="44.80278" lon="-0.35341">
        <ele>81</ele>
        <time>2012-01-28T13:50:16Z</time>
      </trkpt>
      <trkpt lat="44.80276" lon="-0.35354">
        <ele>82</ele>
        <time>2012-01-28T13:50:30Z</time>
      </trkpt>
      <trkpt lat="44.80275" lon="-0.35368">
        <ele>83</ele>
        <time>2012-01-28T13:50:43Z</time>
      </trkpt>
      <trkpt lat="44.80275" lon="-0.35382">
        <ele>84</ele>
        <time>2012-01-28T13:50:52Z</time>
      </trkpt>
      <trkpt lat="44.80269" lon="-0.35393">
        <ele>85</ele>
        <time>2012-01-28T13:51:11Z</time>
      </trkpt>
      <trkpt lat="44.8026" lon="-0.354">
        <ele>86</ele>
        <time>2012-01-28T13:51:17Z</time>
      </trkpt>
      <trkpt lat="44.80251" lon="-0.35408">
        <ele>87</ele>
        <time>2012-01-28T13:51:24Z</time>
      </trkpt>
      <trkpt lat="44.80243" lon="-0.35416">
        <ele>89</ele>
        <time>2012-01-28T13:51:30Z</time>
      </trkpt>
      <trkpt lat="44.80236" lon="-0.35427">
        <ele>90</ele>
        <time>2012-01-28T13:51:36Z</time>
      </trkpt>
      <trkpt lat="44.80229" lon="-0.35437">
        <ele>90</ele>
        <time>2012-01-28T13:51:42Z</time>
      </trkpt>
      <trkpt lat="44.80223" lon="-0.35448">
        <ele>90</ele>
        <time>2012-01-28T13:51:48Z</time>
      </trkpt>
      <trkpt lat="44.80216" lon="-0.35462">
        <ele>90</ele>
        <time>2012-01-28T13:51:53Z</time>
      </trkpt>
      <trkpt lat="44.80209" lon="-0.35473">
        <ele>91</ele>
        <time>2012-01-28T13:51:57Z</time>
      </trkpt>
      <trkpt lat="44.80202" lon="-0.35483">
        <ele>91</ele>
        <time>2012-01-28T13:52:00Z</time>
      </trkpt>
      <trkpt lat="44.80195" lon="-0.35494">
        <ele>91</ele>
        <time>2012-01-28T13:52:03Z</time>
      </trkpt>
      <trkpt lat="44.80188" lon="-0.35505">
        <ele>91</ele>
        <time>2012-01-28T13:52:06Z</time>
      </trkpt>
      <trkpt lat="44.80181" lon="-0.35515">
        <ele>91</ele>
        <time>2012-01-28T13:52:09Z</time>
      </trkpt>
      <trkpt lat="44.80174" lon="-0.35524">
        <ele>91</ele>
        <time>2012-01-28T13:52:12Z</time>
      </trkpt>
      <trkpt lat="44.80167" lon="-0.35535">
        <ele>91</ele>
        <time>2012-01-28T13:52:15Z</time>
      </trkpt>
      <trkpt lat="44.80161" lon="-0.35546">
        <ele>91</ele>
        <time>2012-01-28T13:52:18Z</time>
      </trkpt>
      <trkpt lat="44.80154" lon="-0.35557">
        <ele>91</ele>
        <time>2012-01-28T13:52:21Z</time>
      </trkpt>
      <trkpt lat="44.80145" lon="-0.35566">
        <ele>91</ele>
        <time>2012-01-28T13:52:24Z</time>
      </trkpt>
      <trkpt lat="44.80136" lon="-0.35573">
        <ele>91</ele>
        <time>2012-01-28T13:52:27Z</time>
      </trkpt>
      <trkpt lat="44.80126" lon="-0.3558">
        <ele>91</ele>
        <time>2012-01-28T13:52:30Z</time>
      </trkpt>
      <trkpt lat="44.80115" lon="-0.35589">
        <ele>92</ele>
        <time>2012-01-28T13:52:33Z</time>
      </trkpt>
      <trkpt lat="44.80105" lon="-0.35598">
        <ele>92</ele>
        <time>2012-01-28T13:52:36Z</time>
      </trkpt>
      <trkpt lat="44.80096" lon="-0.35608">
        <ele>93</ele>
        <time>2012-01-28T13:52:39Z</time>
      </trkpt>
      <trkpt lat="44.80088" lon="-0.35618">
        <ele>93</ele>
        <time>2012-01-28T13:52:42Z</time>
      </trkpt>
      <trkpt lat="44.8008" lon="-0.35628">
        <ele>93</ele>
        <time>2012-01-28T13:52:45Z</time>
      </trkpt>
      <trkpt lat="44.80071" lon="-0.35638">
        <ele>93</ele>
        <time>2012-01-28T13:52:48Z</time>
      </trkpt>
      <trkpt lat="44.80063" lon="-0.35648">
        <ele>93</ele>
        <time>2012-01-28T13:52:51Z</time>
      </trkpt>
      <trkpt lat="44.80055" lon="-0.35656">
        <ele>94</ele>
        <time>2012-01-28T13:52:54Z</time>
      </trkpt>
      <trkpt lat="44.80047" lon="-0.35664">
        <ele>94</ele>
        <time>2012-01-28T13:52:58Z</time>
      </trkpt>
      <trkpt lat="44.80039" lon="-0.35673">
        <ele>94</ele>
        <time>2012-01-28T13:53:03Z</time>
      </trkpt>
      <trkpt lat="44.80047" lon="-0.35682">
        <ele>94</ele>
        <time>2012-01-28T13:55:53Z</time>
      </trkpt>
      <trkpt lat="44.80054" lon="-0.35693">
        <ele>94</ele>
        <time>2012-01-28T13:56:01Z</time>
      </trkpt>
      <trkpt lat="44.80061" lon="-0.35702">
        <ele>93</ele>
        <time>2012-01-28T13:56:06Z</time>
      </trkpt>
      <trkpt lat="44.8007" lon="-0.35713">
        <ele>93</ele>
        <time>2012-01-28T13:56:11Z</time>
      </trkpt>
      <trkpt lat="44.80077" lon="-0.35722">
        <ele>92</ele>
        <time>2012-01-28T13:56:14Z</time>
      </trkpt>
      <trkpt lat="44.80086" lon="-0.35731">
        <ele>92</ele>
        <time>2012-01-28T13:56:17Z</time>
      </trkpt>
      <trkpt lat="44.80095" lon="-0.35739">
        <ele>91</ele>
        <time>2012-01-28T13:56:20Z</time>
      </trkpt>
      <trkpt lat="44.80105" lon="-0.35749">
        <ele>90</ele>
        <time>2012-01-28T13:56:24Z</time>
      </trkpt>
      <trkpt lat="44.80113" lon="-0.35757">
        <ele>90</ele>
        <time>2012-01-28T13:56:27Z</time>
      </trkpt>
      <trkpt lat="44.80122" lon="-0.35766">
        <ele>90</ele>
        <time>2012-01-28T13:56:30Z</time>
      </trkpt>
      <trkpt lat="44.8013" lon="-0.35774">
        <ele>90</ele>
        <time>2012-01-28T13:56:33Z</time>
      </trkpt>
      <trkpt lat="44.80139" lon="-0.35781">
        <ele>89</ele>
        <time>2012-01-28T13:56:36Z</time>
      </trkpt>
      <trkpt lat="44.80147" lon="-0.3579">
        <ele>89</ele>
        <time>2012-01-28T13:56:39Z</time>
      </trkpt>
      <trkpt lat="44.80154" lon="-0.35798">
        <ele>89</ele>
        <time>2012-01-28T13:56:42Z</time>
      </trkpt>
      <trkpt lat="44.80163" lon="-0.35807">
        <ele>89</ele>
        <time>2012-01-28T13:56:47Z</time>
      </trkpt>
      <trkpt lat="44.80172" lon="-0.3581">
        <ele>88</ele>
        <time>2012-01-28T13:56:51Z</time>
      </trkpt>
      <trkpt lat="44.80183" lon="-0.35816">
        <ele>88</ele>
        <time>2012-01-28T13:56:55Z</time>
      </trkpt>
      <trkpt lat="44.80195" lon="-0.3582">
        <ele>88</ele>
        <time>2012-01-28T13:56:59Z</time>
      </trkpt>
      <trkpt lat="44.80204" lon="-0.35824">
        <ele>88</ele>
        <time>2012-01-28T13:57:03Z</time>
      </trkpt>
      <trkpt lat="44.80214" lon="-0.35831">
        <ele>88</ele>
        <time>2012-01-28T13:57:09Z</time>
      </trkpt>
      <trkpt lat="44.80223" lon="-0.35836">
        <ele>88</ele>
        <time>2012-01-28T13:57:23Z</time>
      </trkpt>
      <trkpt lat="44.80225" lon="-0.35849">
        <ele>89</ele>
        <time>2012-01-28T13:58:31Z</time>
      </trkpt>
      <trkpt lat="44.80226" lon="-0.35863">
        <ele>91</ele>
        <time>2012-01-28T13:58:48Z</time>
      </trkpt>
      <trkpt lat="44.80227" lon="-0.35877">
        <ele>91</ele>
        <time>2012-01-28T13:59:02Z</time>
      </trkpt>
      <trkpt lat="44.80229" lon="-0.35891">
        <ele>92</ele>
        <time>2012-01-28T13:59:07Z</time>
      </trkpt>
      <trkpt lat="44.80231" lon="-0.35906">
        <ele>93</ele>
        <time>2012-01-28T13:59:12Z</time>
      </trkpt>
      <trkpt lat="44.8023" lon="-0.35922">
        <ele>94</ele>
        <time>2012-01-28T13:59:17Z</time>
      </trkpt>
      <trkpt lat="44.8023" lon="-0.35938">
        <ele>94</ele>
        <time>2012-01-28T13:59:22Z</time>
      </trkpt>
      <trkpt lat="44.80229" lon="-0.35952">
        <ele>95</ele>
        <time>2012-01-28T13:59:27Z</time>
      </trkpt>
      <trkpt lat="44.80232" lon="-0.35966">
        <ele>95</ele>
        <time>2012-01-28T13:59:32Z</time>
      </trkpt>
      <trkpt lat="44.80241" lon="-0.35977">
        <ele>95</ele>
        <time>2012-01-28T13:59:38Z</time>
      </trkpt>
      <trkpt lat="44.80251" lon="-0.3598">
        <ele>95</ele>
        <time>2012-01-28T13:59:46Z</time>
      </trkpt>
      <trkpt lat="44.8026" lon="-0.35984">
        <ele>95</ele>
        <time>2012-01-28T13:59:51Z</time>
      </trkpt>
      <trkpt lat="44.80268" lon="-0.35992">
        <ele>95</ele>
        <time>2012-01-28T13:59:55Z</time>
      </trkpt>
      <trkpt lat="44.80277" lon="-0.35999">
        <ele>95</ele>
        <time>2012-01-28T14:00:01Z</time>
      </trkpt>
      <trkpt lat="44.80289" lon="-0.36003">
        <ele>94</ele>
        <time>2012-01-28T14:00:08Z</time>
      </trkpt>
      <trkpt lat="44.80299" lon="-0.36005">
        <ele>94</ele>
        <time>2012-01-28T14:00:12Z</time>
      </trkpt>
      <trkpt lat="44.8031" lon="-0.36007">
        <ele>94</ele>
        <time>2012-01-28T14:00:16Z</time>
      </trkpt>
      <trkpt lat="44.80322" lon="-0.3601">
        <ele>94</ele>
        <time>2012-01-28T14:00:20Z</time>
      </trkpt>
      <trkpt lat="44.80332" lon="-0.36012">
        <ele>94</ele>
        <time>2012-01-28T14:00:23Z</time>
      </trkpt>
      <trkpt lat="44.80342" lon="-0.36014">
        <ele>94</ele>
        <time>2012-01-28T14:00:26Z</time>
      </trkpt>
      <trkpt lat="44.80353" lon="-0.36016">
        <ele>95</ele>
        <time>2012-01-28T14:00:29Z</time>
      </trkpt>
      <trkpt lat="44.80364" lon="-0.36018">
        <ele>95</ele>
        <time>2012-01-28T14:00:32Z</time>
      </trkpt>
      <trkpt lat="44.80374" lon="-0.36021">
        <ele>95</ele>
        <time>2012-01-28T14:00:35Z</time>
      </trkpt>
      <trkpt lat="44.80384" lon="-0.36023">
        <ele>96</ele>
        <time>2012-01-28T14:00:38Z</time>
      </trkpt>
      <trkpt lat="44.80396" lon="-0.36027">
        <ele>96</ele>
        <time>2012-01-28T14:00:42Z</time>
      </trkpt>
      <trkpt lat="44.80407" lon="-0.36029">
        <ele>96</ele>
        <time>2012-01-28T14:00:46Z</time>
      </trkpt>
      <trkpt lat="44.80414" lon="-0.36038">
        <ele>96</ele>
        <time>2012-01-28T14:01:09Z</time>
      </trkpt>
      <trkpt lat="44.80411" lon="-0.3605">
        <ele>96</ele>
        <time>2012-01-28T14:01:15Z</time>
      </trkpt>
      <trkpt lat="44.80412" lon="-0.36064">
        <ele>96</ele>
        <time>2012-01-28T14:01:20Z</time>
      </trkpt>
      <trkpt lat="44.80411" lon="-0.36079">
        <ele>96</ele>
        <time>2012-01-28T14:01:26Z</time>
      </trkpt>
      <trkpt lat="44.80409" lon="-0.36093">
        <ele>96</ele>
        <time>2012-01-28T14:01:31Z</time>
      </trkpt>
      <trkpt lat="44.80408" lon="-0.36106">
        <ele>96</ele>
        <time>2012-01-28T14:01:36Z</time>
      </trkpt>
      <trkpt lat="44.80411" lon="-0.36119">
        <ele>96</ele>
        <time>2012-01-28T14:01:43Z</time>
      </trkpt>
      <trkpt lat="44.80423" lon="-0.36115">
        <ele>96</ele>
        <time>2012-01-28T14:01:48Z</time>
      </trkpt>
      <trkpt lat="44.80433" lon="-0.36113">
        <ele>96</ele>
        <time>2012-01-28T14:01:51Z</time>
      </trkpt>
      <trkpt lat="44.80443" lon="-0.36111">
        <ele>96</ele>
        <time>2012-01-28T14:01:54Z</time>
      </trkpt>
      <trkpt lat="44.80455" lon="-0.36109">
        <ele>96</ele>
        <time>2012-01-28T14:01:58Z</time>
      </trkpt>
      <trkpt lat="44.80465" lon="-0.36107">
        <ele>95</ele>
        <time>2012-01-28T14:02:03Z</time>
      </trkpt>
      <trkpt lat="44.80475" lon="-0.36106">
        <ele>95</ele>
        <time>2012-01-28T14:02:10Z</time>
      </trkpt>
      <trkpt lat="44.80486" lon="-0.36109">
        <ele>95</ele>
        <time>2012-01-28T14:02:38Z</time>
      </trkpt>
      <trkpt lat="44.80496" lon="-0.36102">
        <ele>95</ele>
        <time>2012-01-28T14:03:13Z</time>
      </trkpt>
      <trkpt lat="44.80507" lon="-0.36101">
        <ele>94</ele>
        <time>2012-01-28T14:03:16Z</time>
      </trkpt>
      <trkpt lat="44.80518" lon="-0.36099">
        <ele>94</ele>
        <time>2012-01-28T14:03:19Z</time>
      </trkpt>
      <trkpt lat="44.80532" lon="-0.36096">
        <ele>93</ele>
        <time>2012-01-28T14:03:22Z</time>
      </trkpt>
      <trkpt lat="44.80545" lon="-0.36093">
        <ele>93</ele>
        <time>2012-01-28T14:03:25Z</time>
      </trkpt>
      <trkpt lat="44.80559" lon="-0.36092">
        <ele>93</ele>
        <time>2012-01-28T14:03:28Z</time>
      </trkpt>
      <trkpt lat="44.80571" lon="-0.36089">
        <ele>93</ele>
        <time>2012-01-28T14:03:31Z</time>
      </trkpt>
      <trkpt lat="44.80584" lon="-0.36086">
        <ele>93</ele>
        <time>2012-01-28T14:03:34Z</time>
      </trkpt>
      <trkpt lat="44.80595" lon="-0.36083">
        <ele>94</ele>
        <time>2012-01-28T14:03:37Z</time>
      </trkpt>
      <trkpt lat="44.80608" lon="-0.36079">
        <ele>94</ele>
        <time>2012-01-28T14:03:40Z</time>
      </trkpt>
      <trkpt lat="44.80619" lon="-0.36075">
        <ele>95</ele>
        <time>2012-01-28T14:03:43Z</time>
      </trkpt>
      <trkpt lat="44.80631" lon="-0.36073">
        <ele>95</ele>
        <time>2012-01-28T14:03:46Z</time>
      </trkpt>
      <trkpt lat="44.80644" lon="-0.36068">
        <ele>95</ele>
        <time>2012-01-28T14:03:49Z</time>
      </trkpt>
      <trkpt lat="44.80655" lon="-0.36066">
        <ele>95</ele>
        <time>2012-01-28T14:03:52Z</time>
      </trkpt>
      <trkpt lat="44.80667" lon="-0.36063">
        <ele>95</ele>
        <time>2012-01-28T14:03:55Z</time>
      </trkpt>
      <trkpt lat="44.80679" lon="-0.3606">
        <ele>96</ele>
        <time>2012-01-28T14:03:58Z</time>
      </trkpt>
      <trkpt lat="44.80692" lon="-0.36059">
        <ele>96</ele>
        <time>2012-01-28T14:04:01Z</time>
      </trkpt>
      <trkpt lat="44.80703" lon="-0.36058">
        <ele>96</ele>
        <time>2012-01-28T14:04:04Z</time>
      </trkpt>
      <trkpt lat="44.80713" lon="-0.36058">
        <ele>96</ele>
        <time>2012-01-28T14:04:07Z</time>
      </trkpt>
      <trkpt lat="44.80722" lon="-0.36064">
        <ele>96</ele>
        <time>2012-01-28T14:04:11Z</time>
      </trkpt>
      <trkpt lat="44.8073" lon="-0.36074">
        <ele>96</ele>
        <time>2012-01-28T14:04:15Z</time>
      </trkpt>
      <trkpt lat="44.80736" lon="-0.36086">
        <ele>95</ele>
        <time>2012-01-28T14:04:19Z</time>
      </trkpt>
      <trkpt lat="44.80744" lon="-0.36099">
        <ele>94</ele>
        <time>2012-01-28T14:04:23Z</time>
      </trkpt>
      <trkpt lat="44.80751" lon="-0.3611">
        <ele>93</ele>
        <time>2012-01-28T14:04:26Z</time>
      </trkpt>
      <trkpt lat="44.80758" lon="-0.36121">
        <ele>93</ele>
        <time>2012-01-28T14:04:29Z</time>
      </trkpt>
      <trkpt lat="44.80766" lon="-0.3613">
        <ele>93</ele>
        <time>2012-01-28T14:04:32Z</time>
      </trkpt>
      <trkpt lat="44.80775" lon="-0.36141">
        <ele>92</ele>
        <time>2012-01-28T14:04:35Z</time>
      </trkpt>
      <trkpt lat="44.80782" lon="-0.36154">
        <ele>92</ele>
        <time>2012-01-28T14:04:38Z</time>
      </trkpt>
      <trkpt lat="44.80791" lon="-0.36164">
        <ele>92</ele>
        <time>2012-01-28T14:04:41Z</time>
      </trkpt>
      <trkpt lat="44.80801" lon="-0.36174">
        <ele>92</ele>
        <time>2012-01-28T14:04:44Z</time>
      </trkpt>
      <trkpt lat="44.80811" lon="-0.36183">
        <ele>92</ele>
        <time>2012-01-28T14:04:47Z</time>
      </trkpt>
      <trkpt lat="44.8082" lon="-0.36193">
        <ele>91</ele>
        <time>2012-01-28T14:04:50Z</time>
      </trkpt>
      <trkpt lat="44.8083" lon="-0.36206">
        <ele>90</ele>
        <time>2012-01-28T14:04:53Z</time>
      </trkpt>
      <trkpt lat="44.8084" lon="-0.36219">
        <ele>90</ele>
        <time>2012-01-28T14:04:56Z</time>
      </trkpt>
      <trkpt lat="44.80848" lon="-0.36231">
        <ele>89</ele>
        <time>2012-01-28T14:04:59Z</time>
      </trkpt>
      <trkpt lat="44.80856" lon="-0.3624">
        <ele>88</ele>
        <time>2012-01-28T14:05:02Z</time>
      </trkpt>
      <trkpt lat="44.80865" lon="-0.36245">
        <ele>88</ele>
        <time>2012-01-28T14:05:05Z</time>
      </trkpt>
      <trkpt lat="44.80872" lon="-0.36254">
        <ele>87</ele>
        <time>2012-01-28T14:05:08Z</time>
      </trkpt>
      <trkpt lat="44.80882" lon="-0.36264">
        <ele>87</ele>
        <time>2012-01-28T14:05:11Z</time>
      </trkpt>
      <trkpt lat="44.80891" lon="-0.36272">
        <ele>87</ele>
        <time>2012-01-28T14:05:14Z</time>
      </trkpt>
      <trkpt lat="44.80901" lon="-0.36283">
        <ele>85</ele>
        <time>2012-01-28T14:05:18Z</time>
      </trkpt>
      <trkpt lat="44.80906" lon="-0.36295">
        <ele>84</ele>
        <time>2012-01-28T14:05:21Z</time>
      </trkpt>
      <trkpt lat="44.80913" lon="-0.36305">
        <ele>82</ele>
        <time>2012-01-28T14:05:24Z</time>
      </trkpt>
      <trkpt lat="44.80919" lon="-0.36318">
        <ele>81</ele>
        <time>2012-01-28T14:05:27Z</time>
      </trkpt>
      <trkpt lat="44.80926" lon="-0.36331">
        <ele>79</ele>
        <time>2012-01-28T14:05:30Z</time>
      </trkpt>
      <trkpt lat="44.80931" lon="-0.36342">
        <ele>78</ele>
        <time>2012-01-28T14:05:33Z</time>
      </trkpt>
      <trkpt lat="44.80938" lon="-0.36355">
        <ele>76</ele>
        <time>2012-01-28T14:05:36Z</time>
      </trkpt>
      <trkpt lat="44.80946" lon="-0.36368">
        <ele>74</ele>
        <time>2012-01-28T14:05:39Z</time>
      </trkpt>
      <trkpt lat="44.80952" lon="-0.36381">
        <ele>72</ele>
        <time>2012-01-28T14:05:42Z</time>
      </trkpt>
      <trkpt lat="44.80957" lon="-0.36395">
        <ele>71</ele>
        <time>2012-01-28T14:05:46Z</time>
      </trkpt>
      <trkpt lat="44.8096" lon="-0.3641">
        <ele>70</ele>
        <time>2012-01-28T14:05:50Z</time>
      </trkpt>
      <trkpt lat="44.80965" lon="-0.36422">
        <ele>68</ele>
        <time>2012-01-28T14:05:54Z</time>
      </trkpt>
      <trkpt lat="44.8097" lon="-0.36438">
        <ele>67</ele>
        <time>2012-01-28T14:05:57Z</time>
      </trkpt>
      <trkpt lat="44.80976" lon="-0.36452">
        <ele>66</ele>
        <time>2012-01-28T14:05:59Z</time>
      </trkpt>
      <trkpt lat="44.80983" lon="-0.3647">
        <ele>64</ele>
        <time>2012-01-28T14:06:01Z</time>
      </trkpt>
      <trkpt lat="44.80986" lon="-0.36488">
        <ele>62</ele>
        <time>2012-01-28T14:06:03Z</time>
      </trkpt>
      <trkpt lat="44.80992" lon="-0.36501">
        <ele>61</ele>
        <time>2012-01-28T14:06:05Z</time>
      </trkpt>
      <trkpt lat="44.80996" lon="-0.36515">
        <ele>60</ele>
        <time>2012-01-28T14:06:07Z</time>
      </trkpt>
      <trkpt lat="44.81001" lon="-0.36529">
        <ele>59</ele>
        <time>2012-01-28T14:06:10Z</time>
      </trkpt>
      <trkpt lat="44.81006" lon="-0.36545">
        <ele>58</ele>
        <time>2012-01-28T14:06:13Z</time>
      </trkpt>
      <trkpt lat="44.81011" lon="-0.36557">
        <ele>58</ele>
        <time>2012-01-28T14:06:16Z</time>
      </trkpt>
      <trkpt lat="44.81016" lon="-0.3657">
        <ele>57</ele>
        <time>2012-01-28T14:06:19Z</time>
      </trkpt>
      <trkpt lat="44.81023" lon="-0.36585">
        <ele>56</ele>
        <time>2012-01-28T14:06:23Z</time>
      </trkpt>
      <trkpt lat="44.81032" lon="-0.36595">
        <ele>54</ele>
        <time>2012-01-28T14:06:27Z</time>
      </trkpt>
      <trkpt lat="44.81041" lon="-0.36605">
        <ele>53</ele>
        <time>2012-01-28T14:06:31Z</time>
      </trkpt>
      <trkpt lat="44.81048" lon="-0.36615">
        <ele>51</ele>
        <time>2012-01-28T14:06:34Z</time>
      </trkpt>
      <trkpt lat="44.81059" lon="-0.36623">
        <ele>50</ele>
        <time>2012-01-28T14:06:37Z</time>
      </trkpt>
      <trkpt lat="44.8107" lon="-0.36632">
        <ele>48</ele>
        <time>2012-01-28T14:06:40Z</time>
      </trkpt>
      <trkpt lat="44.81077" lon="-0.3664">
        <ele>47</ele>
        <time>2012-01-28T14:06:49Z</time>
      </trkpt>
      <trkpt lat="44.81086" lon="-0.36646">
        <ele>46</ele>
        <time>2012-01-28T14:07:03Z</time>
      </trkpt>
      <trkpt lat="44.81088" lon="-0.3666">
        <ele>45</ele>
        <time>2012-01-28T14:08:30Z</time>
      </trkpt>
      <trkpt lat="44.81083" lon="-0.36673">
        <ele>45</ele>
        <time>2012-01-28T14:08:36Z</time>
      </trkpt>
      <trkpt lat="44.8108" lon="-0.36686">
        <ele>45</ele>
        <time>2012-01-28T14:08:43Z</time>
      </trkpt>
      <trkpt lat="44.81076" lon="-0.36699">
        <ele>45</ele>
        <time>2012-01-28T14:08:47Z</time>
      </trkpt>
      <trkpt lat="44.81071" lon="-0.36715">
        <ele>45</ele>
        <time>2012-01-28T14:08:51Z</time>
      </trkpt>
      <trkpt lat="44.81068" lon="-0.36729">
        <ele>45</ele>
        <time>2012-01-28T14:08:54Z</time>
      </trkpt>
      <trkpt lat="44.81063" lon="-0.36745">
        <ele>45</ele>
        <time>2012-01-28T14:08:57Z</time>
      </trkpt>
      <trkpt lat="44.81059" lon="-0.36761">
        <ele>44</ele>
        <time>2012-01-28T14:09:00Z</time>
      </trkpt>
      <trkpt lat="44.81055" lon="-0.36777">
        <ele>44</ele>
        <time>2012-01-28T14:09:03Z</time>
      </trkpt>
      <trkpt lat="44.81051" lon="-0.36792">
        <ele>44</ele>
        <time>2012-01-28T14:09:06Z</time>
      </trkpt>
      <trkpt lat="44.8105" lon="-0.3681">
        <ele>44</ele>
        <time>2012-01-28T14:09:09Z</time>
      </trkpt>
      <trkpt lat="44.81051" lon="-0.36826">
        <ele>44</ele>
        <time>2012-01-28T14:09:12Z</time>
      </trkpt>
      <trkpt lat="44.81052" lon="-0.36844">
        <ele>44</ele>
        <time>2012-01-28T14:09:15Z</time>
      </trkpt>
      <trkpt lat="44.81055" lon="-0.36862">
        <ele>44</ele>
        <time>2012-01-28T14:09:18Z</time>
      </trkpt>
      <trkpt lat="44.81057" lon="-0.36877">
        <ele>45</ele>
        <time>2012-01-28T14:09:21Z</time>
      </trkpt>
      <trkpt lat="44.81059" lon="-0.36891">
        <ele>45</ele>
        <time>2012-01-28T14:09:24Z</time>
      </trkpt>
      <trkpt lat="44.81061" lon="-0.36906">
        <ele>46</ele>
        <time>2012-01-28T14:09:27Z</time>
      </trkpt>
      <trkpt lat="44.81062" lon="-0.36921">
        <ele>46</ele>
        <time>2012-01-28T14:09:30Z</time>
      </trkpt>
      <trkpt lat="44.81073" lon="-0.36922">
        <ele>47</ele>
        <time>2012-01-28T14:09:34Z</time>
      </trkpt>
      <trkpt lat="44.81082" lon="-0.36917">
        <ele>47</ele>
        <time>2012-01-28T14:09:37Z</time>
      </trkpt>
      <trkpt lat="44.81093" lon="-0.36912">
        <ele>47</ele>
        <time>2012-01-28T14:09:40Z</time>
      </trkpt>
      <trkpt lat="44.81103" lon="-0.36907">
        <ele>47</ele>
        <time>2012-01-28T14:09:43Z</time>
      </trkpt>
      <trkpt lat="44.81113" lon="-0.36902">
        <ele>47</ele>
        <time>2012-01-28T14:09:46Z</time>
      </trkpt>
      <trkpt lat="44.81123" lon="-0.36902">
        <ele>48</ele>
        <time>2012-01-28T14:09:49Z</time>
      </trkpt>
      <trkpt lat="44.81132" lon="-0.36912">
        <ele>49</ele>
        <time>2012-01-28T14:09:53Z</time>
      </trkpt>
      <trkpt lat="44.8114" lon="-0.36921">
        <ele>50</ele>
        <time>2012-01-28T14:09:58Z</time>
      </trkpt>
      <trkpt lat="44.81146" lon="-0.36933">
        <ele>51</ele>
        <time>2012-01-28T14:10:05Z</time>
      </trkpt>
      <trkpt lat="44.81151" lon="-0.36946">
        <ele>52</ele>
        <time>2012-01-28T14:10:11Z</time>
      </trkpt>
      <trkpt lat="44.8116" lon="-0.36953">
        <ele>54</ele>
        <time>2012-01-28T14:10:17Z</time>
      </trkpt>
      <trkpt lat="44.81167" lon="-0.36963">
        <ele>55</ele>
        <time>2012-01-28T14:10:23Z</time>
      </trkpt>
      <trkpt lat="44.81172" lon="-0.36976">
        <ele>57</ele>
        <time>2012-01-28T14:10:31Z</time>
      </trkpt>
      <trkpt lat="44.8118" lon="-0.36985">
        <ele>60</ele>
        <time>2012-01-28T14:10:38Z</time>
      </trkpt>
      <trkpt lat="44.81187" lon="-0.36995">
        <ele>61</ele>
        <time>2012-01-28T14:10:46Z</time>
      </trkpt>
      <trkpt lat="44.81193" lon="-0.37006">
        <ele>62</ele>
        <time>2012-01-28T14:10:53Z</time>
      </trkpt>
      <trkpt lat="44.812" lon="-0.37015">
        <ele>62</ele>
        <time>2012-01-28T14:11:01Z</time>
      </trkpt>
      <trkpt lat="44.81207" lon="-0.37024">
        <ele>63</ele>
        <time>2012-01-28T14:11:08Z</time>
      </trkpt>
      <trkpt lat="44.81215" lon="-0.37034">
        <ele>65</ele>
        <time>2012-01-28T14:11:15Z</time>
      </trkpt>
      <trkpt lat="44.81222" lon="-0.37045">
        <ele>66</ele>
        <time>2012-01-28T14:11:22Z</time>
      </trkpt>
      <trkpt lat="44.8123" lon="-0.37055">
        <ele>67</ele>
        <time>2012-01-28T14:11:28Z</time>
      </trkpt>
      <trkpt lat="44.81238" lon="-0.37064">
        <ele>67</ele>
        <time>2012-01-28T14:11:34Z</time>
      </trkpt>
      <trkpt lat="44.81247" lon="-0.37074">
        <ele>68</ele>
        <time>2012-01-28T14:11:40Z</time>
      </trkpt>
      <trkpt lat="44.81254" lon="-0.37082">
        <ele>69</ele>
        <time>2012-01-28T14:11:46Z</time>
      </trkpt>
      <trkpt lat="44.81261" lon="-0.37093">
        <ele>70</ele>
        <time>2012-01-28T14:11:53Z</time>
      </trkpt>
      <trkpt lat="44.81265" lon="-0.37108">
        <ele>71</ele>
        <time>2012-01-28T14:12:00Z</time>
      </trkpt>
      <trkpt lat="44.8127" lon="-0.3712">
        <ele>72</ele>
        <time>2012-01-28T14:12:07Z</time>
      </trkpt>
      <trkpt lat="44.81275" lon="-0.37133">
        <ele>72</ele>
        <time>2012-01-28T14:12:15Z</time>
      </trkpt>
      <trkpt lat="44.81281" lon="-0.37143">
        <ele>73</ele>
        <time>2012-01-28T14:12:21Z</time>
      </trkpt>
      <trkpt lat="44.81286" lon="-0.37154">
        <ele>74</ele>
        <time>2012-01-28T14:12:27Z</time>
      </trkpt>
      <trkpt lat="44.81289" lon="-0.37169">
        <ele>74</ele>
        <time>2012-01-28T14:12:34Z</time>
      </trkpt>
      <trkpt lat="44.81294" lon="-0.37181">
        <ele>75</ele>
        <time>2012-01-28T14:12:42Z</time>
      </trkpt>
      <trkpt lat="44.813" lon="-0.37192">
        <ele>77</ele>
        <time>2012-01-28T14:12:49Z</time>
      </trkpt>
      <trkpt lat="44.81307" lon="-0.37201">
        <ele>78</ele>
        <time>2012-01-28T14:12:56Z</time>
      </trkpt>
      <trkpt lat="44.81314" lon="-0.37212">
        <ele>80</ele>
        <time>2012-01-28T14:13:03Z</time>
      </trkpt>
      <trkpt lat="44.81317" lon="-0.37224">
        <ele>81</ele>
        <time>2012-01-28T14:13:09Z</time>
      </trkpt>
      <trkpt lat="44.81321" lon="-0.37238">
        <ele>82</ele>
        <time>2012-01-28T14:13:16Z</time>
      </trkpt>
      <trkpt lat="44.81325" lon="-0.3725">
        <ele>83</ele>
        <time>2012-01-28T14:13:22Z</time>
      </trkpt>
      <trkpt lat="44.81328" lon="-0.37264">
        <ele>84</ele>
        <time>2012-01-28T14:13:28Z</time>
      </trkpt>
      <trkpt lat="44.81332" lon="-0.37277">
        <ele>85</ele>
        <time>2012-01-28T14:13:35Z</time>
      </trkpt>
      <trkpt lat="44.81337" lon="-0.3729">
        <ele>85</ele>
        <time>2012-01-28T14:13:41Z</time>
      </trkpt>
      <trkpt lat="44.81343" lon="-0.37303">
        <ele>86</ele>
        <time>2012-01-28T14:13:47Z</time>
      </trkpt>
      <trkpt lat="44.81348" lon="-0.37315">
        <ele>87</ele>
        <time>2012-01-28T14:13:53Z</time>
      </trkpt>
      <trkpt lat="44.81352" lon="-0.37329">
        <ele>88</ele>
        <time>2012-01-28T14:14:00Z</time>
      </trkpt>
      <trkpt lat="44.81358" lon="-0.37342">
        <ele>89</ele>
        <time>2012-01-28T14:14:07Z</time>
      </trkpt>
      <trkpt lat="44.81363" lon="-0.37355">
        <ele>89</ele>
        <time>2012-01-28T14:14:14Z</time>
      </trkpt>
      <trkpt lat="44.81368" lon="-0.37367">
        <ele>89</ele>
        <time>2012-01-28T14:14:20Z</time>
      </trkpt>
      <trkpt lat="44.81375" lon="-0.37379">
        <ele>90</ele>
        <time>2012-01-28T14:14:26Z</time>
      </trkpt>
      <trkpt lat="44.81378" lon="-0.37392">
        <ele>90</ele>
        <time>2012-01-28T14:14:32Z</time>
      </trkpt>
      <trkpt lat="44.81382" lon="-0.37407">
        <ele>90</ele>
        <time>2012-01-28T14:14:38Z</time>
      </trkpt>
      <trkpt lat="44.81387" lon="-0.37419">
        <ele>91</ele>
        <time>2012-01-28T14:14:44Z</time>
      </trkpt>
      <trkpt lat="44.81395" lon="-0.37428">
        <ele>92</ele>
        <time>2012-01-28T14:14:49Z</time>
      </trkpt>
      <trkpt lat="44.81402" lon="-0.37439">
        <ele>93</ele>
        <time>2012-01-28T14:14:55Z</time>
      </trkpt>
      <trkpt lat="44.81409" lon="-0.37449">
        <ele>93</ele>
        <time>2012-01-28T14:15:00Z</time>
      </trkpt>
      <trkpt lat="44.81415" lon="-0.3746">
        <ele>93</ele>
        <time>2012-01-28T14:15:05Z</time>
      </trkpt>
      <trkpt lat="44.81421" lon="-0.37471">
        <ele>93</ele>
        <time>2012-01-28T14:15:10Z</time>
      </trkpt>
      <trkpt lat="44.81426" lon="-0.37484">
        <ele>94</ele>
        <time>2012-01-28T14:15:16Z</time>
      </trkpt>
      <trkpt lat="44.81432" lon="-0.37498">
        <ele>94</ele>
        <time>2012-01-28T14:15:22Z</time>
      </trkpt>
      <trkpt lat="44.81442" lon="-0.37504">
        <ele>95</ele>
        <time>2012-01-28T14:15:26Z</time>
      </trkpt>
      <trkpt lat="44.81451" lon="-0.37512">
        <ele>95</ele>
        <time>2012-01-28T14:15:30Z</time>
      </trkpt>
      <trkpt lat="44.81459" lon="-0.3752">
        <ele>94</ele>
        <time>2012-01-28T14:15:34Z</time>
      </trkpt>
      <trkpt lat="44.81467" lon="-0.37529">
        <ele>94</ele>
        <time>2012-01-28T14:15:38Z</time>
      </trkpt>
      <trkpt lat="44.81474" lon="-0.37538">
        <ele>94</ele>
        <time>2012-01-28T14:15:42Z</time>
      </trkpt>
      <trkpt lat="44.81482" lon="-0.37548">
        <ele>95</ele>
        <time>2012-01-28T14:15:46Z</time>
      </trkpt>
      <trkpt lat="44.8149" lon="-0.37556">
        <ele>95</ele>
        <time>2012-01-28T14:15:50Z</time>
      </trkpt>
      <trkpt lat="44.81498" lon="-0.37563">
        <ele>94</ele>
        <time>2012-01-28T14:15:54Z</time>
      </trkpt>
      <trkpt lat="44.81506" lon="-0.37572">
        <ele>94</ele>
        <time>2012-01-28T14:15:58Z</time>
      </trkpt>
      <trkpt lat="44.81515" lon="-0.3758">
        <ele>94</ele>
        <time>2012-01-28T14:16:02Z</time>
      </trkpt>
      <trkpt lat="44.81524" lon="-0.3759">
        <ele>94</ele>
        <time>2012-01-28T14:16:07Z</time>
      </trkpt>
      <trkpt lat="44.81531" lon="-0.37599">
        <ele>94</ele>
        <time>2012-01-28T14:16:11Z</time>
      </trkpt>
      <trkpt lat="44.81538" lon="-0.3761">
        <ele>94</ele>
        <time>2012-01-28T14:16:16Z</time>
      </trkpt>
      <trkpt lat="44.81546" lon="-0.37621">
        <ele>95</ele>
        <time>2012-01-28T14:16:21Z</time>
      </trkpt>
      <trkpt lat="44.81554" lon="-0.37633">
        <ele>95</ele>
        <time>2012-01-28T14:16:26Z</time>
      </trkpt>
      <trkpt lat="44.81563" lon="-0.3764">
        <ele>95</ele>
        <time>2012-01-28T14:16:30Z</time>
      </trkpt>
      <trkpt lat="44.81571" lon="-0.37648">
        <ele>96</ele>
        <time>2012-01-28T14:16:34Z</time>
      </trkpt>
      <trkpt lat="44.81579" lon="-0.37659">
        <ele>96</ele>
        <time>2012-01-28T14:16:39Z</time>
      </trkpt>
      <trkpt lat="44.81589" lon="-0.37657">
        <ele>96</ele>
        <time>2012-01-28T14:16:47Z</time>
      </trkpt>
      <trkpt lat="44.81596" lon="-0.37646">
        <ele>96</ele>
        <time>2012-01-28T14:16:52Z</time>
      </trkpt>
      <trkpt lat="44.81602" lon="-0.37636">
        <ele>95</ele>
        <time>2012-01-28T14:16:56Z</time>
      </trkpt>
      <trkpt lat="44.81609" lon="-0.37623">
        <ele>95</ele>
        <time>2012-01-28T14:17:00Z</time>
      </trkpt>
      <trkpt lat="44.81616" lon="-0.37609">
        <ele>94</ele>
        <time>2012-01-28T14:17:04Z</time>
      </trkpt>
      <trkpt lat="44.81621" lon="-0.37597">
        <ele>94</ele>
        <time>2012-01-28T14:17:07Z</time>
      </trkpt>
      <trkpt lat="44.81627" lon="-0.37586">
        <ele>94</ele>
        <time>2012-01-28T14:17:10Z</time>
      </trkpt>
      <trkpt lat="44.81632" lon="-0.37573">
        <ele>93</ele>
        <time>2012-01-28T14:17:13Z</time>
      </trkpt>
      <trkpt lat="44.81638" lon="-0.37561">
        <ele>93</ele>
        <time>2012-01-28T14:17:16Z</time>
      </trkpt>
      <trkpt lat="44.81644" lon="-0.37548">
        <ele>92</ele>
        <time>2012-01-28T14:17:19Z</time>
      </trkpt>
      <trkpt lat="44.81651" lon="-0.37533">
        <ele>92</ele>
        <time>2012-01-28T14:17:22Z</time>
      </trkpt>
      <trkpt lat="44.81657" lon="-0.37521">
        <ele>92</ele>
        <time>2012-01-28T14:17:25Z</time>
      </trkpt>
      <trkpt lat="44.81663" lon="-0.37507">
        <ele>92</ele>
        <time>2012-01-28T14:17:28Z</time>
      </trkpt>
      <trkpt lat="44.81669" lon="-0.37493">
        <ele>93</ele>
        <time>2012-01-28T14:17:31Z</time>
      </trkpt>
      <trkpt lat="44.81674" lon="-0.3748">
        <ele>93</ele>
        <time>2012-01-28T14:17:34Z</time>
      </trkpt>
      <trkpt lat="44.8168" lon="-0.37466">
        <ele>93</ele>
        <time>2012-01-28T14:17:37Z</time>
      </trkpt>
      <trkpt lat="44.81685" lon="-0.37453">
        <ele>93</ele>
        <time>2012-01-28T14:17:40Z</time>
      </trkpt>
      <trkpt lat="44.8169" lon="-0.37439">
        <ele>93</ele>
        <time>2012-01-28T14:17:43Z</time>
      </trkpt>
      <trkpt lat="44.81696" lon="-0.37426">
        <ele>94</ele>
        <time>2012-01-28T14:17:46Z</time>
      </trkpt>
      <trkpt lat="44.81701" lon="-0.37412">
        <ele>94</ele>
        <time>2012-01-28T14:17:49Z</time>
      </trkpt>
      <trkpt lat="44.81707" lon="-0.37399">
        <ele>94</ele>
        <time>2012-01-28T14:17:52Z</time>
      </trkpt>
      <trkpt lat="44.81713" lon="-0.37384">
        <ele>94</ele>
        <time>2012-01-28T14:17:55Z</time>
      </trkpt>
      <trkpt lat="44.81719" lon="-0.37371">
        <ele>94</ele>
        <time>2012-01-28T14:17:58Z</time>
      </trkpt>
      <trkpt lat="44.81725" lon="-0.37356">
        <ele>94</ele>
        <time>2012-01-28T14:18:01Z</time>
      </trkpt>
      <trkpt lat="44.81731" lon="-0.37343">
        <ele>94</ele>
        <time>2012-01-28T14:18:04Z</time>
      </trkpt>
      <trkpt lat="44.81736" lon="-0.37329">
        <ele>94</ele>
        <time>2012-01-28T14:18:07Z</time>
      </trkpt>
      <trkpt lat="44.81743" lon="-0.37315">
        <ele>94</ele>
        <time>2012-01-28T14:18:10Z</time>
      </trkpt>
      <trkpt lat="44.81749" lon="-0.37301">
        <ele>94</ele>
        <time>2012-01-28T14:18:13Z</time>
      </trkpt>
      <trkpt lat="44.81755" lon="-0.37286">
        <ele>95</ele>
        <time>2012-01-28T14:18:16Z</time>
      </trkpt>
      <trkpt lat="44.81761" lon="-0.37273">
        <ele>95</ele>
        <time>2012-01-28T14:18:19Z</time>
      </trkpt>
      <trkpt lat="44.81767" lon="-0.37258">
        <ele>95</ele>
        <time>2012-01-28T14:18:22Z</time>
      </trkpt>
      <trkpt lat="44.81774" lon="-0.37243">
        <ele>95</ele>
        <time>2012-01-28T14:18:25Z</time>
      </trkpt>
      <trkpt lat="44.8178" lon="-0.3723">
        <ele>95</ele>
        <time>2012-01-28T14:18:28Z</time>
      </trkpt>
      <trkpt lat="44.81786" lon="-0.37215">
        <ele>95</ele>
        <time>2012-01-28T14:18:31Z</time>
      </trkpt>
      <trkpt lat="44.81793" lon="-0.37201">
        <ele>96</ele>
        <time>2012-01-28T14:18:34Z</time>
      </trkpt>
      <trkpt lat="44.818" lon="-0.37187">
        <ele>96</ele>
        <time>2012-01-28T14:18:37Z</time>
      </trkpt>
      <trkpt lat="44.81806" lon="-0.37172">
        <ele>96</ele>
        <time>2012-01-28T14:18:40Z</time>
      </trkpt>
      <trkpt lat="44.81813" lon="-0.37158">
        <ele>96</ele>
        <time>2012-01-28T14:18:43Z</time>
      </trkpt>
      <trkpt lat="44.81818" lon="-0.37144">
        <ele>96</ele>
        <time>2012-01-28T14:18:46Z</time>
      </trkpt>
      <trkpt lat="44.81825" lon="-0.37133">
        <ele>96</ele>
        <time>2012-01-28T14:18:49Z</time>
      </trkpt>
      <trkpt lat="44.81834" lon="-0.37127">
        <ele>96</ele>
        <time>2012-01-28T14:18:52Z</time>
      </trkpt>
      <trkpt lat="44.81844" lon="-0.37122">
        <ele>96</ele>
        <time>2012-01-28T14:18:55Z</time>
      </trkpt>
      <trkpt lat="44.81855" lon="-0.37119">
        <ele>96</ele>
        <time>2012-01-28T14:18:58Z</time>
      </trkpt>
      <trkpt lat="44.81868" lon="-0.37116">
        <ele>95</ele>
        <time>2012-01-28T14:19:01Z</time>
      </trkpt>
      <trkpt lat="44.81881" lon="-0.37113">
        <ele>94</ele>
        <time>2012-01-28T14:19:04Z</time>
      </trkpt>
      <trkpt lat="44.81894" lon="-0.3711">
        <ele>94</ele>
        <time>2012-01-28T14:19:07Z</time>
      </trkpt>
      <trkpt lat="44.81908" lon="-0.37107">
        <ele>93</ele>
        <time>2012-01-28T14:19:10Z</time>
      </trkpt>
      <trkpt lat="44.81919" lon="-0.37105">
        <ele>93</ele>
        <time>2012-01-28T14:19:12Z</time>
      </trkpt>
      <trkpt lat="44.8193" lon="-0.37101">
        <ele>92</ele>
        <time>2012-01-28T14:19:14Z</time>
      </trkpt>
      <trkpt lat="44.8194" lon="-0.371">
        <ele>92</ele>
        <time>2012-01-28T14:19:16Z</time>
      </trkpt>
      <trkpt lat="44.81949" lon="-0.37097">
        <ele>91</ele>
        <time>2012-01-28T14:19:18Z</time>
      </trkpt>
      <trkpt lat="44.8196" lon="-0.37095">
        <ele>91</ele>
        <time>2012-01-28T14:19:20Z</time>
      </trkpt>
      <trkpt lat="44.8197" lon="-0.37092">
        <ele>91</ele>
        <time>2012-01-28T14:19:22Z</time>
      </trkpt>
      <trkpt lat="44.81982" lon="-0.37089">
        <ele>91</ele>
        <time>2012-01-28T14:19:25Z</time>
      </trkpt>
      <trkpt lat="44.81991" lon="-0.37084">
        <ele>91</ele>
        <time>2012-01-28T14:19:28Z</time>
      </trkpt>
      <trkpt lat="44.82001" lon="-0.37076">
        <ele>90</ele>
        <time>2012-01-28T14:19:31Z</time>
      </trkpt>
      <trkpt lat="44.82011" lon="-0.37068">
        <ele>89</ele>
        <time>2012-01-28T14:19:34Z</time>
      </trkpt>
      <trkpt lat="44.82024" lon="-0.37065">
        <ele>89</ele>
        <time>2012-01-28T14:19:37Z</time>
      </trkpt>
      <trkpt lat="44.82036" lon="-0.37065">
        <ele>88</ele>
        <time>2012-01-28T14:19:40Z</time>
      </trkpt>
      <trkpt lat="44.82047" lon="-0.37065">
        <ele>88</ele>
        <time>2012-01-28T14:19:43Z</time>
      </trkpt>
      <trkpt lat="44.82056" lon="-0.37066">
        <ele>88</ele>
        <time>2012-01-28T14:19:46Z</time>
      </trkpt>
      <trkpt lat="44.82066" lon="-0.37068">
        <ele>87</ele>
        <time>2012-01-28T14:19:51Z</time>
      </trkpt>
      <trkpt lat="44.82075" lon="-0.37068">
        <ele>87</ele>
        <time>2012-01-28T14:21:15Z</time>
      </trkpt>
      <trkpt lat="44.82068" lon="-0.37077">
        <ele>87</ele>
        <time>2012-01-28T14:23:05Z</time>
      </trkpt>
      <trkpt lat="44.82074" lon="-0.3709">
        <ele>86</ele>
        <time>2012-01-28T14:23:17Z</time>
      </trkpt>
      <trkpt lat="44.8208" lon="-0.37103">
        <ele>84</ele>
        <time>2012-01-28T14:23:22Z</time>
      </trkpt>
      <trkpt lat="44.82087" lon="-0.37114">
        <ele>82</ele>
        <time>2012-01-28T14:23:26Z</time>
      </trkpt>
      <trkpt lat="44.82098" lon="-0.37114">
        <ele>81</ele>
        <time>2012-01-28T14:23:31Z</time>
      </trkpt>
      <trkpt lat="44.82108" lon="-0.37114">
        <ele>80</ele>
        <time>2012-01-28T14:23:34Z</time>
      </trkpt>
      <trkpt lat="44.82119" lon="-0.37115">
        <ele>78</ele>
        <time>2012-01-28T14:23:37Z</time>
      </trkpt>
      <trkpt lat="44.82133" lon="-0.37118">
        <ele>77</ele>
        <time>2012-01-28T14:23:40Z</time>
      </trkpt>
      <trkpt lat="44.82144" lon="-0.37121">
        <ele>76</ele>
        <time>2012-01-28T14:23:44Z</time>
      </trkpt>
      <trkpt lat="44.82156" lon="-0.37121">
        <ele>75</ele>
        <time>2012-01-28T14:23:48Z</time>
      </trkpt>
      <trkpt lat="44.82168" lon="-0.37122">
        <ele>74</ele>
        <time>2012-01-28T14:23:53Z</time>
      </trkpt>
      <trkpt lat="44.82178" lon="-0.37123">
        <ele>73</ele>
        <time>2012-01-28T14:23:57Z</time>
      </trkpt>
      <trkpt lat="44.82188" lon="-0.37124">
        <ele>71</ele>
        <time>2012-01-28T14:24:00Z</time>
      </trkpt>
      <trkpt lat="44.82199" lon="-0.37124">
        <ele>70</ele>
        <time>2012-01-28T14:24:04Z</time>
      </trkpt>
      <trkpt lat="44.8221" lon="-0.37125">
        <ele>68</ele>
        <time>2012-01-28T14:24:11Z</time>
      </trkpt>
      <trkpt lat="44.82219" lon="-0.3713">
        <ele>67</ele>
        <time>2012-01-28T14:24:18Z</time>
      </trkpt>
      <trkpt lat="44.82229" lon="-0.3713">
        <ele>65</ele>
        <time>2012-01-28T14:24:24Z</time>
      </trkpt>
      <trkpt lat="44.82239" lon="-0.3713">
        <ele>64</ele>
        <time>2012-01-28T14:24:31Z</time>
      </trkpt>
      <trkpt lat="44.82249" lon="-0.3713">
        <ele>63</ele>
        <time>2012-01-28T14:24:38Z</time>
      </trkpt>
      <trkpt lat="44.82259" lon="-0.3713">
        <ele>61</ele>
        <time>2012-01-28T14:24:46Z</time>
      </trkpt>
      <trkpt lat="44.8227" lon="-0.37131">
        <ele>60</ele>
        <time>2012-01-28T14:24:52Z</time>
      </trkpt>
      <trkpt lat="44.82279" lon="-0.37129">
        <ele>59</ele>
        <time>2012-01-28T14:24:56Z</time>
      </trkpt>
      <trkpt lat="44.8229" lon="-0.37127">
        <ele>58</ele>
        <time>2012-01-28T14:25:02Z</time>
      </trkpt>
      <trkpt lat="44.82301" lon="-0.37125">
        <ele>57</ele>
        <time>2012-01-28T14:25:08Z</time>
      </trkpt>
      <trkpt lat="44.82312" lon="-0.37126">
        <ele>56</ele>
        <time>2012-01-28T14:25:13Z</time>
      </trkpt>
      <trkpt lat="44.82322" lon="-0.37126">
        <ele>56</ele>
        <time>2012-01-28T14:25:20Z</time>
      </trkpt>
      <trkpt lat="44.82332" lon="-0.37124">
        <ele>56</ele>
        <time>2012-01-28T14:25:25Z</time>
      </trkpt>
      <trkpt lat="44.82343" lon="-0.37121">
        <ele>55</ele>
        <time>2012-01-28T14:25:32Z</time>
      </trkpt>
      <trkpt lat="44.82352" lon="-0.37124">
        <ele>55</ele>
        <time>2012-01-28T14:25:37Z</time>
      </trkpt>
      <trkpt lat="44.82362" lon="-0.37131">
        <ele>54</ele>
        <time>2012-01-28T14:25:41Z</time>
      </trkpt>
      <trkpt lat="44.82371" lon="-0.37136">
        <ele>54</ele>
        <time>2012-01-28T14:25:45Z</time>
      </trkpt>
      <trkpt lat="44.82382" lon="-0.37138">
        <ele>54</ele>
        <time>2012-01-28T14:25:52Z</time>
      </trkpt>
      <trkpt lat="44.82394" lon="-0.37136">
        <ele>54</ele>
        <time>2012-01-28T14:25:58Z</time>
      </trkpt>
      <trkpt lat="44.82404" lon="-0.37138">
        <ele>53</ele>
        <time>2012-01-28T14:26:03Z</time>
      </trkpt>
      <trkpt lat="44.82413" lon="-0.37135">
        <ele>53</ele>
        <time>2012-01-28T14:26:07Z</time>
      </trkpt>
      <trkpt lat="44.82424" lon="-0.37128">
        <ele>52</ele>
        <time>2012-01-28T14:26:13Z</time>
      </trkpt>
      <trkpt lat="44.82435" lon="-0.37122">
        <ele>52</ele>
        <time>2012-01-28T14:26:18Z</time>
      </trkpt>
      <trkpt lat="44.82444" lon="-0.37121">
        <ele>51</ele>
        <time>2012-01-28T14:26:22Z</time>
      </trkpt>
      <trkpt lat="44.82453" lon="-0.37118">
        <ele>51</ele>
        <time>2012-01-28T14:26:24Z</time>
      </trkpt>
      <trkpt lat="44.82462" lon="-0.37113">
        <ele>51</ele>
        <time>2012-01-28T14:26:27Z</time>
      </trkpt>
      <trkpt lat="44.82473" lon="-0.37109">
        <ele>51</ele>
        <time>2012-01-28T14:26:32Z</time>
      </trkpt>
      <trkpt lat="44.82481" lon="-0.37118">
        <ele>51</ele>
        <time>2012-01-28T14:26:39Z</time>
      </trkpt>
      <trkpt lat="44.82486" lon="-0.3713">
        <ele>51</ele>
        <time>2012-01-28T14:26:44Z</time>
      </trkpt>
      <trkpt lat="44.8249" lon="-0.37144">
        <ele>51</ele>
        <time>2012-01-28T14:26:50Z</time>
      </trkpt>
      <trkpt lat="44.82494" lon="-0.37155">
        <ele>51</ele>
        <time>2012-01-28T14:26:56Z</time>
      </trkpt>
      <trkpt lat="44.82501" lon="-0.37165">
        <ele>51</ele>
        <time>2012-01-28T14:27:06Z</time>
      </trkpt>
      <trkpt lat="44.82507" lon="-0.37177">
        <ele>51</ele>
        <time>2012-01-28T14:27:17Z</time>
      </trkpt>
      <trkpt lat="44.82511" lon="-0.3719">
        <ele>52</ele>
        <time>2012-01-28T14:27:32Z</time>
      </trkpt>
      <trkpt lat="44.82516" lon="-0.37204">
        <ele>52</ele>
        <time>2012-01-28T14:27:44Z</time>
      </trkpt>
      <trkpt lat="44.82523" lon="-0.37213">
        <ele>52</ele>
        <time>2012-01-28T14:27:52Z</time>
      </trkpt>
      <trkpt lat="44.82526" lon="-0.37227">
        <ele>52</ele>
        <time>2012-01-28T14:27:58Z</time>
      </trkpt>
      <trkpt lat="44.82527" lon="-0.37241">
        <ele>52</ele>
        <time>2012-01-28T14:28:03Z</time>
      </trkpt>
      <trkpt lat="44.82527" lon="-0.37256">
        <ele>52</ele>
        <time>2012-01-28T14:28:09Z</time>
      </trkpt>
      <trkpt lat="44.82529" lon="-0.37269">
        <ele>52</ele>
        <time>2012-01-28T14:28:15Z</time>
      </trkpt>
      <trkpt lat="44.82538" lon="-0.37275">
        <ele>54</ele>
        <time>2012-01-28T14:28:35Z</time>
      </trkpt>
      <trkpt lat="44.82537" lon="-0.37288">
        <ele>54</ele>
        <time>2012-01-28T14:28:47Z</time>
      </trkpt>
      <trkpt lat="44.82537" lon="-0.37303">
        <ele>54</ele>
        <time>2012-01-28T14:28:52Z</time>
      </trkpt>
      <trkpt lat="44.82538" lon="-0.37317">
        <ele>54</ele>
        <time>2012-01-28T14:28:57Z</time>
      </trkpt>
      <trkpt lat="44.82536" lon="-0.3733">
        <ele>54</ele>
        <time>2012-01-28T14:29:02Z</time>
      </trkpt>
      <trkpt lat="44.82538" lon="-0.37344">
        <ele>54</ele>
        <time>2012-01-28T14:29:07Z</time>
      </trkpt>
      <trkpt lat="44.82538" lon="-0.3736">
        <ele>54</ele>
        <time>2012-01-28T14:29:14Z</time>
      </trkpt>
      <trkpt lat="44.8254" lon="-0.37374">
        <ele>54</ele>
        <time>2012-01-28T14:29:19Z</time>
      </trkpt>
      <trkpt lat="44.82539" lon="-0.37389">
        <ele>54</ele>
        <time>2012-01-28T14:29:24Z</time>
      </trkpt>
      <trkpt lat="44.82541" lon="-0.37401">
        <ele>54</ele>
        <time>2012-01-28T14:29:28Z</time>
      </trkpt>
      <trkpt lat="44.82543" lon="-0.37418">
        <ele>54</ele>
        <time>2012-01-28T14:29:33Z</time>
      </trkpt>
      <trkpt lat="44.82541" lon="-0.37432">
        <ele>54</ele>
        <time>2012-01-28T14:29:37Z</time>
      </trkpt>
      <trkpt lat="44.82542" lon="-0.37449">
        <ele>54</ele>
        <time>2012-01-28T14:29:41Z</time>
      </trkpt>
      <trkpt lat="44.82544" lon="-0.37464">
        <ele>54</ele>
        <time>2012-01-28T14:29:46Z</time>
      </trkpt>
      <trkpt lat="44.82549" lon="-0.37479">
        <ele>54</ele>
        <time>2012-01-28T14:29:51Z</time>
      </trkpt>
      <trkpt lat="44.82552" lon="-0.37491">
        <ele>54</ele>
        <time>2012-01-28T14:29:55Z</time>
      </trkpt>
      <trkpt lat="44.82555" lon="-0.37504">
        <ele>54</ele>
        <time>2012-01-28T14:29:59Z</time>
      </trkpt>
      <trkpt lat="44.82561" lon="-0.37518">
        <ele>54</ele>
        <time>2012-01-28T14:30:03Z</time>
      </trkpt>
      <trkpt lat="44.82565" lon="-0.3753">
        <ele>54</ele>
        <time>2012-01-28T14:30:06Z</time>
      </trkpt>
      <trkpt lat="44.8257" lon="-0.37542">
        <ele>54</ele>
        <time>2012-01-28T14:30:10Z</time>
      </trkpt>
      <trkpt lat="44.82575" lon="-0.37557">
        <ele>54</ele>
        <time>2012-01-28T14:30:14Z</time>
      </trkpt>
      <trkpt lat="44.82577" lon="-0.37572">
        <ele>54</ele>
        <time>2012-01-28T14:30:18Z</time>
      </trkpt>
      <trkpt lat="44.82578" lon="-0.37586">
        <ele>55</ele>
        <time>2012-01-28T14:30:22Z</time>
      </trkpt>
      <trkpt lat="44.82581" lon="-0.376">
        <ele>55</ele>
        <time>2012-01-28T14:30:27Z</time>
      </trkpt>
      <trkpt lat="44.82585" lon="-0.37613">
        <ele>55</ele>
        <time>2012-01-28T14:30:32Z</time>
      </trkpt>
      <trkpt lat="44.82588" lon="-0.37625">
        <ele>55</ele>
        <time>2012-01-28T14:30:36Z</time>
      </trkpt>
      <trkpt lat="44.82594" lon="-0.37638">
        <ele>55</ele>
        <time>2012-01-28T14:30:42Z</time>
      </trkpt>
      <trkpt lat="44.82598" lon="-0.37652">
        <ele>55</ele>
        <time>2012-01-28T14:30:48Z</time>
      </trkpt>
      <trkpt lat="44.82599" lon="-0.37666">
        <ele>55</ele>
        <time>2012-01-28T14:30:53Z</time>
      </trkpt>
      <trkpt lat="44.82606" lon="-0.37676">
        <ele>55</ele>
        <time>2012-01-28T14:30:59Z</time>
      </trkpt>
      <trkpt lat="44.8261" lon="-0.3769">
        <ele>55</ele>
        <time>2012-01-28T14:31:07Z</time>
      </trkpt>
      <trkpt lat="44.8262" lon="-0.37683">
        <ele>56</ele>
        <time>2012-01-28T14:31:17Z</time>
      </trkpt>
      <trkpt lat="44.82628" lon="-0.37672">
        <ele>56</ele>
        <time>2012-01-28T14:31:24Z</time>
      </trkpt>
      <trkpt lat="44.82637" lon="-0.37666">
        <ele>56</ele>
        <time>2012-01-28T14:31:30Z</time>
      </trkpt>
      <trkpt lat="44.82647" lon="-0.37664">
        <ele>57</ele>
        <time>2012-01-28T14:31:36Z</time>
      </trkpt>
      <trkpt lat="44.82653" lon="-0.37652">
        <ele>58</ele>
        <time>2012-01-28T14:31:43Z</time>
      </trkpt>
      <trkpt lat="44.82663" lon="-0.37645">
        <ele>58</ele>
        <time>2012-01-28T14:31:50Z</time>
      </trkpt>
      <trkpt lat="44.82672" lon="-0.37639">
        <ele>58</ele>
        <time>2012-01-28T14:32:14Z</time>
      </trkpt>
      <trkpt lat="44.82672" lon="-0.37625">
        <ele>59</ele>
        <time>2012-01-28T14:32:38Z</time>
      </trkpt>
      <trkpt lat="44.82666" lon="-0.37614">
        <ele>59</ele>
        <time>2012-01-28T14:32:43Z</time>
      </trkpt>
      <trkpt lat="44.8266" lon="-0.37603">
        <ele>59</ele>
        <time>2012-01-28T14:32:48Z</time>
      </trkpt>
      <trkpt lat="44.82654" lon="-0.3759">
        <ele>59</ele>
        <time>2012-01-28T14:32:53Z</time>
      </trkpt>
      <trkpt lat="44.82647" lon="-0.37577">
        <ele>59</ele>
        <time>2012-01-28T14:32:58Z</time>
      </trkpt>
      <trkpt lat="44.8264" lon="-0.37565">
        <ele>59</ele>
        <time>2012-01-28T14:33:02Z</time>
      </trkpt>
      <trkpt lat="44.82635" lon="-0.37553">
        <ele>59</ele>
        <time>2012-01-28T14:33:05Z</time>
      </trkpt>
      <trkpt lat="44.82629" lon="-0.3754">
        <ele>58</ele>
        <time>2012-01-28T14:33:09Z</time>
      </trkpt>
      <trkpt lat="44.82622" lon="-0.37526">
        <ele>58</ele>
        <time>2012-01-28T14:33:13Z</time>
      </trkpt>
      <trkpt lat="44.82616" lon="-0.37512">
        <ele>58</ele>
        <time>2012-01-28T14:33:17Z</time>
      </trkpt>
      <trkpt lat="44.82613" lon="-0.37499">
        <ele>58</ele>
        <time>2012-01-28T14:33:21Z</time>
      </trkpt>
      <trkpt lat="44.82608" lon="-0.37484">
        <ele>59</ele>
        <time>2012-01-28T14:33:25Z</time>
      </trkpt>
      <trkpt lat="44.82605" lon="-0.37469">
        <ele>59</ele>
        <time>2012-01-28T14:33:29Z</time>
      </trkpt>
      <trkpt lat="44.82601" lon="-0.37454">
        <ele>60</ele>
        <time>2012-01-28T14:33:33Z</time>
      </trkpt>
      <trkpt lat="44.82599" lon="-0.37439">
        <ele>60</ele>
        <time>2012-01-28T14:33:37Z</time>
      </trkpt>
      <trkpt lat="44.82596" lon="-0.37427">
        <ele>60</ele>
        <time>2012-01-28T14:33:41Z</time>
      </trkpt>
      <trkpt lat="44.82594" lon="-0.37414">
        <ele>60</ele>
        <time>2012-01-28T14:33:45Z</time>
      </trkpt>
      <trkpt lat="44.82591" lon="-0.37399">
        <ele>60</ele>
        <time>2012-01-28T14:33:50Z</time>
      </trkpt>
      <trkpt lat="44.8259" lon="-0.37384">
        <ele>60</ele>
        <time>2012-01-28T14:33:56Z</time>
      </trkpt>
      <trkpt lat="44.82588" lon="-0.3737">
        <ele>60</ele>
        <time>2012-01-28T14:34:03Z</time>
      </trkpt>
      <trkpt lat="44.82597" lon="-0.37362">
        <ele>61</ele>
        <time>2012-01-28T14:34:16Z</time>
      </trkpt>
      <trkpt lat="44.82607" lon="-0.37359">
        <ele>63</ele>
        <time>2012-01-28T14:37:43Z</time>
      </trkpt>
      <trkpt lat="44.82617" lon="-0.37356">
        <ele>64</ele>
        <time>2012-01-28T14:37:51Z</time>
      </trkpt>
      <trkpt lat="44.82628" lon="-0.37353">
        <ele>65</ele>
        <time>2012-01-28T14:37:59Z</time>
      </trkpt>
      <trkpt lat="44.82638" lon="-0.37349">
        <ele>67</ele>
        <time>2012-01-28T14:38:07Z</time>
      </trkpt>
      <trkpt lat="44.82647" lon="-0.37347">
        <ele>68</ele>
        <time>2012-01-28T14:38:14Z</time>
      </trkpt>
      <trkpt lat="44.82658" lon="-0.37344">
        <ele>69</ele>
        <time>2012-01-28T14:38:22Z</time>
      </trkpt>
      <trkpt lat="44.82668" lon="-0.37341">
        <ele>70</ele>
        <time>2012-01-28T14:38:31Z</time>
      </trkpt>
      <trkpt lat="44.82678" lon="-0.37339">
        <ele>71</ele>
        <time>2012-01-28T14:38:41Z</time>
      </trkpt>
      <trkpt lat="44.82688" lon="-0.37336">
        <ele>72</ele>
        <time>2012-01-28T14:38:50Z</time>
      </trkpt>
      <trkpt lat="44.82697" lon="-0.37333">
        <ele>73</ele>
        <time>2012-01-28T14:38:59Z</time>
      </trkpt>
      <trkpt lat="44.82707" lon="-0.37331">
        <ele>74</ele>
        <time>2012-01-28T14:39:08Z</time>
      </trkpt>
      <trkpt lat="44.82717" lon="-0.37329">
        <ele>75</ele>
        <time>2012-01-28T14:39:17Z</time>
      </trkpt>
      <trkpt lat="44.82727" lon="-0.37326">
        <ele>76</ele>
        <time>2012-01-28T14:39:26Z</time>
      </trkpt>
      <trkpt lat="44.82737" lon="-0.37322">
        <ele>76</ele>
        <time>2012-01-28T14:39:35Z</time>
      </trkpt>
      <trkpt lat="44.82747" lon="-0.3732">
        <ele>77</ele>
        <time>2012-01-28T14:39:43Z</time>
      </trkpt>
      <trkpt lat="44.82756" lon="-0.37317">
        <ele>78</ele>
        <time>2012-01-28T14:39:51Z</time>
      </trkpt>
      <trkpt lat="44.82766" lon="-0.37314">
        <ele>78</ele>
        <time>2012-01-28T14:39:59Z</time>
      </trkpt>
      <trkpt lat="44.82775" lon="-0.37312">
        <ele>78</ele>
        <time>2012-01-28T14:40:07Z</time>
      </trkpt>
      <trkpt lat="44.82786" lon="-0.3731">
        <ele>79</ele>
        <time>2012-01-28T14:40:16Z</time>
      </trkpt>
      <trkpt lat="44.82795" lon="-0.37305">
        <ele>79</ele>
        <time>2012-01-28T14:40:25Z</time>
      </trkpt>
      <trkpt lat="44.82805" lon="-0.37303">
        <ele>79</ele>
        <time>2012-01-28T14:40:35Z</time>
      </trkpt>
      <trkpt lat="44.82816" lon="-0.37301">
        <ele>79</ele>
        <time>2012-01-28T14:40:43Z</time>
      </trkpt>
      <trkpt lat="44.82826" lon="-0.37296">
        <ele>80</ele>
        <time>2012-01-28T14:40:51Z</time>
      </trkpt>
      <trkpt lat="44.82836" lon="-0.37294">
        <ele>80</ele>
        <time>2012-01-28T14:40:58Z</time>
      </trkpt>
      <trkpt lat="44.82846" lon="-0.37291">
        <ele>80</ele>
        <time>2012-01-28T14:41:05Z</time>
      </trkpt>
      <trkpt lat="44.82855" lon="-0.37288">
        <ele>80</ele>
        <time>2012-01-28T14:41:11Z</time>
      </trkpt>
      <trkpt lat="44.82865" lon="-0.37286">
        <ele>79</ele>
        <time>2012-01-28T14:41:18Z</time>
      </trkpt>
      <trkpt lat="44.82875" lon="-0.37282">
        <ele>79</ele>
        <time>2012-01-28T14:41:25Z</time>
      </trkpt>
      <trkpt lat="44.82886" lon="-0.37278">
        <ele>79</ele>
        <time>2012-01-28T14:41:31Z</time>
      </trkpt>
      <trkpt lat="44.82897" lon="-0.37276">
        <ele>78</ele>
        <time>2012-01-28T14:41:36Z</time>
      </trkpt>
      <trkpt lat="44.82907" lon="-0.37275">
        <ele>77</ele>
        <time>2012-01-28T14:41:43Z</time>
      </trkpt>
      <trkpt lat="44.82909" lon="-0.37261">
        <ele>77</ele>
        <time>2012-01-28T14:42:17Z</time>
      </trkpt>
      <trkpt lat="44.82907" lon="-0.37246">
        <ele>77</ele>
        <time>2012-01-28T14:42:24Z</time>
      </trkpt>
      <trkpt lat="44.82906" lon="-0.37232">
        <ele>78</ele>
        <time>2012-01-28T14:42:30Z</time>
      </trkpt>
      <trkpt lat="44.82904" lon="-0.37218">
        <ele>79</ele>
        <time>2012-01-28T14:42:34Z</time>
      </trkpt>
      <trkpt lat="44.82903" lon="-0.37203">
        <ele>79</ele>
        <time>2012-01-28T14:42:39Z</time>
      </trkpt>
      <trkpt lat="44.82901" lon="-0.37189">
        <ele>79</ele>
        <time>2012-01-28T14:42:43Z</time>
      </trkpt>
      <trkpt lat="44.82899" lon="-0.37174">
        <ele>80</ele>
        <time>2012-01-28T14:42:48Z</time>
      </trkpt>
      <trkpt lat="44.82896" lon="-0.37159">
        <ele>80</ele>
        <time>2012-01-28T14:42:53Z</time>
      </trkpt>
      <trkpt lat="44.82894" lon="-0.37143">
        <ele>81</ele>
        <time>2012-01-28T14:42:58Z</time>
      </trkpt>
      <trkpt lat="44.82893" lon="-0.37128">
        <ele>81</ele>
        <time>2012-01-28T14:43:03Z</time>
      </trkpt>
      <trkpt lat="44.82892" lon="-0.37115">
        <ele>81</ele>
        <time>2012-01-28T14:43:08Z</time>
      </trkpt>
      <trkpt lat="44.82901" lon="-0.37122">
        <ele>81</ele>
        <time>2012-01-28T14:43:55Z</time>
      </trkpt>
      <trkpt lat="44.82911" lon="-0.37121">
        <ele>81</ele>
        <time>2012-01-28T14:43:59Z</time>
      </trkpt>
      <trkpt lat="44.82922" lon="-0.3712">
        <ele>81</ele>
        <time>2012-01-28T14:44:03Z</time>
      </trkpt>
      <trkpt lat="44.82931" lon="-0.37114">
        <ele>81</ele>
        <time>2012-01-28T14:44:08Z</time>
      </trkpt>
      <trkpt lat="44.82938" lon="-0.37101">
        <ele>81</ele>
        <time>2012-01-28T14:44:15Z</time>
      </trkpt>
      <trkpt lat="44.82942" lon="-0.3709">
        <ele>81</ele>
        <time>2012-01-28T14:44:22Z</time>
      </trkpt>
      <trkpt lat="44.82949" lon="-0.37079">
        <ele>81</ele>
        <time>2012-01-28T14:44:29Z</time>
      </trkpt>
      <trkpt lat="44.82951" lon="-0.37065">
        <ele>80</ele>
        <time>2012-01-28T14:44:36Z</time>
      </trkpt>
      <trkpt lat="44.82947" lon="-0.37052">
        <ele>81</ele>
        <time>2012-01-28T14:44:42Z</time>
      </trkpt>
      <trkpt lat="44.82942" lon="-0.37039">
        <ele>81</ele>
        <time>2012-01-28T14:44:47Z</time>
      </trkpt>
      <trkpt lat="44.82939" lon="-0.37026">
        <ele>81</ele>
        <time>2012-01-28T14:44:52Z</time>
      </trkpt>
      <trkpt lat="44.82936" lon="-0.37012">
        <ele>81</ele>
        <time>2012-01-28T14:44:58Z</time>
      </trkpt>
      <trkpt lat="44.82936" lon="-0.36998">
        <ele>80</ele>
        <time>2012-01-28T14:45:07Z</time>
      </trkpt>
      <trkpt lat="44.82943" lon="-0.36988">
        <ele>79</ele>
        <time>2012-01-28T14:45:16Z</time>
      </trkpt>
      <trkpt lat="44.82952" lon="-0.36982">
        <ele>77</ele>
        <time>2012-01-28T14:45:22Z</time>
      </trkpt>
      <trkpt lat="44.82961" lon="-0.36977">
        <ele>76</ele>
        <time>2012-01-28T14:45:27Z</time>
      </trkpt>
      <trkpt lat="44.8297" lon="-0.36972">
        <ele>74</ele>
        <time>2012-01-28T14:45:32Z</time>
      </trkpt>
      <trkpt lat="44.82981" lon="-0.36968">
        <ele>72</ele>
        <time>2012-01-28T14:45:36Z</time>
      </trkpt>
      <trkpt lat="44.82992" lon="-0.36962">
        <ele>71</ele>
        <time>2012-01-28T14:45:39Z</time>
      </trkpt>
      <trkpt lat="44.83002" lon="-0.3696">
        <ele>70</ele>
        <time>2012-01-28T14:45:42Z</time>
      </trkpt>
      <trkpt lat="44.83011" lon="-0.36964">
        <ele>70</ele>
        <time>2012-01-28T14:45:46Z</time>
      </trkpt>
      <trkpt lat="44.83021" lon="-0.36968">
        <ele>69</ele>
        <time>2012-01-28T14:45:53Z</time>
      </trkpt>
      <trkpt lat="44.83024" lon="-0.36955">
        <ele>69</ele>
        <time>2012-01-28T14:46:00Z</time>
      </trkpt>
      <trkpt lat="44.83021" lon="-0.36941">
        <ele>68</ele>
        <time>2012-01-28T14:46:06Z</time>
      </trkpt>
      <trkpt lat="44.83018" lon="-0.36928">
        <ele>67</ele>
        <time>2012-01-28T14:46:10Z</time>
      </trkpt>
      <trkpt lat="44.83016" lon="-0.36915">
        <ele>66</ele>
        <time>2012-01-28T14:46:16Z</time>
      </trkpt>
      <trkpt lat="44.83013" lon="-0.36902">
        <ele>65</ele>
        <time>2012-01-28T14:46:21Z</time>
      </trkpt>
      <trkpt lat="44.8301" lon="-0.36888">
        <ele>64</ele>
        <time>2012-01-28T14:46:27Z</time>
      </trkpt>
      <trkpt lat="44.83006" lon="-0.36874">
        <ele>63</ele>
        <time>2012-01-28T14:46:33Z</time>
      </trkpt>
      <trkpt lat="44.83002" lon="-0.36858">
        <ele>61</ele>
        <time>2012-01-28T14:46:38Z</time>
      </trkpt>
      <trkpt lat="44.82997" lon="-0.36844">
        <ele>60</ele>
        <time>2012-01-28T14:46:42Z</time>
      </trkpt>
      <trkpt lat="44.82993" lon="-0.36831">
        <ele>60</ele>
        <time>2012-01-28T14:46:46Z</time>
      </trkpt>
      <trkpt lat="44.8299" lon="-0.36817">
        <ele>59</ele>
        <time>2012-01-28T14:46:50Z</time>
      </trkpt>
      <trkpt lat="44.82986" lon="-0.36802">
        <ele>58</ele>
        <time>2012-01-28T14:46:54Z</time>
      </trkpt>
      <trkpt lat="44.82983" lon="-0.36787">
        <ele>58</ele>
        <time>2012-01-28T14:46:58Z</time>
      </trkpt>
      <trkpt lat="44.8298" lon="-0.36771">
        <ele>57</ele>
        <time>2012-01-28T14:47:01Z</time>
      </trkpt>
      <trkpt lat="44.82975" lon="-0.36757">
        <ele>56</ele>
        <time>2012-01-28T14:47:04Z</time>
      </trkpt>
      <trkpt lat="44.82968" lon="-0.36746">
        <ele>57</ele>
        <time>2012-01-28T14:47:09Z</time>
      </trkpt>
      <trkpt lat="44.82961" lon="-0.36736">
        <ele>58</ele>
        <time>2012-01-28T14:47:17Z</time>
      </trkpt>
      <trkpt lat="44.82959" lon="-0.3672">
        <ele>58</ele>
        <time>2012-01-28T14:47:23Z</time>
      </trkpt>
      <trkpt lat="44.82957" lon="-0.36707">
        <ele>58</ele>
        <time>2012-01-28T14:47:28Z</time>
      </trkpt>
      <trkpt lat="44.82953" lon="-0.36693">
        <ele>58</ele>
        <time>2012-01-28T14:47:33Z</time>
      </trkpt>
      <trkpt lat="44.82951" lon="-0.36679">
        <ele>58</ele>
        <time>2012-01-28T14:47:38Z</time>
      </trkpt>
      <trkpt lat="44.82948" lon="-0.36667">
        <ele>58</ele>
        <time>2012-01-28T14:47:42Z</time>
      </trkpt>
      <trkpt lat="44.82946" lon="-0.36652">
        <ele>58</ele>
        <time>2012-01-28T14:47:46Z</time>
      </trkpt>
      <trkpt lat="44.82947" lon="-0.36639">
        <ele>57</ele>
        <time>2012-01-28T14:47:51Z</time>
      </trkpt>
      <trkpt lat="44.82951" lon="-0.36626">
        <ele>57</ele>
        <time>2012-01-28T14:49:05Z</time>
      </trkpt>
      <trkpt lat="44.82961" lon="-0.36621">
        <ele>56</ele>
        <time>2012-01-28T14:50:59Z</time>
      </trkpt>
      <trkpt lat="44.82972" lon="-0.36617">
        <ele>55</ele>
        <time>2012-01-28T14:51:04Z</time>
      </trkpt>
      <trkpt lat="44.82982" lon="-0.36615">
        <ele>54</ele>
        <time>2012-01-28T14:51:08Z</time>
      </trkpt>
      <trkpt lat="44.82985" lon="-0.36602">
        <ele>53</ele>
        <time>2012-01-28T14:51:13Z</time>
      </trkpt>
      <trkpt lat="44.82981" lon="-0.36588">
        <ele>53</ele>
        <time>2012-01-28T14:51:18Z</time>
      </trkpt>
      <trkpt lat="44.82977" lon="-0.36574">
        <ele>53</ele>
        <time>2012-01-28T14:51:23Z</time>
      </trkpt>
      <trkpt lat="44.82973" lon="-0.36561">
        <ele>53</ele>
        <time>2012-01-28T14:51:28Z</time>
      </trkpt>
      <trkpt lat="44.82973" lon="-0.36547">
        <ele>53</ele>
        <time>2012-01-28T14:51:34Z</time>
      </trkpt>
      <trkpt lat="44.82982" lon="-0.36536">
        <ele>52</ele>
        <time>2012-01-28T14:51:38Z</time>
      </trkpt>
      <trkpt lat="44.82991" lon="-0.36529">
        <ele>51</ele>
        <time>2012-01-28T14:51:40Z</time>
      </trkpt>
      <trkpt lat="44.83002" lon="-0.36518">
        <ele>49</ele>
        <time>2012-01-28T14:51:43Z</time>
      </trkpt>
      <trkpt lat="44.8301" lon="-0.3651">
        <ele>48</ele>
        <time>2012-01-28T14:51:45Z</time>
      </trkpt>
      <trkpt lat="44.83018" lon="-0.36503">
        <ele>48</ele>
        <time>2012-01-28T14:51:47Z</time>
      </trkpt>
      <trkpt lat="44.83027" lon="-0.36494">
        <ele>47</ele>
        <time>2012-01-28T14:51:49Z</time>
      </trkpt>
      <trkpt lat="44.83035" lon="-0.36486">
        <ele>46</ele>
        <time>2012-01-28T14:51:51Z</time>
      </trkpt>
      <trkpt lat="44.83044" lon="-0.36477">
        <ele>45</ele>
        <time>2012-01-28T14:51:54Z</time>
      </trkpt>
      <trkpt lat="44.83053" lon="-0.36469">
        <ele>44</ele>
        <time>2012-01-28T14:51:57Z</time>
      </trkpt>
      <trkpt lat="44.83062" lon="-0.36461">
        <ele>44</ele>
        <time>2012-01-28T14:52:00Z</time>
      </trkpt>
      <trkpt lat="44.83073" lon="-0.36451">
        <ele>43</ele>
        <time>2012-01-28T14:52:03Z</time>
      </trkpt>
      <trkpt lat="44.83084" lon="-0.36441">
        <ele>43</ele>
        <time>2012-01-28T14:52:06Z</time>
      </trkpt>
      <trkpt lat="44.83094" lon="-0.36431">
        <ele>43</ele>
        <time>2012-01-28T14:52:09Z</time>
      </trkpt>
      <trkpt lat="44.83103" lon="-0.36422">
        <ele>42</ele>
        <time>2012-01-28T14:52:12Z</time>
      </trkpt>
      <trkpt lat="44.83107" lon="-0.36409">
        <ele>42</ele>
        <time>2012-01-28T14:52:16Z</time>
      </trkpt>
      <trkpt lat="44.83102" lon="-0.36397">
        <ele>42</ele>
        <time>2012-01-28T14:52:20Z</time>
      </trkpt>
      <trkpt lat="44.83095" lon="-0.36385">
        <ele>42</ele>
        <time>2012-01-28T14:52:24Z</time>
      </trkpt>
      <trkpt lat="44.83089" lon="-0.36371">
        <ele>42</ele>
        <time>2012-01-28T14:52:28Z</time>
      </trkpt>
      <trkpt lat="44.83085" lon="-0.36358">
        <ele>41</ele>
        <time>2012-01-28T14:52:33Z</time>
      </trkpt>
      <trkpt lat="44.83091" lon="-0.36347">
        <ele>41</ele>
        <time>2012-01-28T14:52:37Z</time>
      </trkpt>
      <trkpt lat="44.83099" lon="-0.36341">
        <ele>41</ele>
        <time>2012-01-28T14:52:40Z</time>
      </trkpt>
      <trkpt lat="44.83109" lon="-0.36337">
        <ele>41</ele>
        <time>2012-01-28T14:52:43Z</time>
      </trkpt>
      <trkpt lat="44.83119" lon="-0.36333">
        <ele>40</ele>
        <time>2012-01-28T14:52:46Z</time>
      </trkpt>
      <trkpt lat="44.83129" lon="-0.3633">
        <ele>40</ele>
        <time>2012-01-28T14:52:49Z</time>
      </trkpt>
      <trkpt lat="44.83138" lon="-0.36326">
        <ele>40</ele>
        <time>2012-01-28T14:52:52Z</time>
      </trkpt>
      <trkpt lat="44.83146" lon="-0.36318">
        <ele>40</ele>
        <time>2012-01-28T14:52:55Z</time>
      </trkpt>
      <trkpt lat="44.83155" lon="-0.36311">
        <ele>40</ele>
        <time>2012-01-28T14:52:58Z</time>
      </trkpt>
      <trkpt lat="44.83164" lon="-0.36304">
        <ele>40</ele>
        <time>2012-01-28T14:53:01Z</time>
      </trkpt>
      <trkpt lat="44.83174" lon="-0.36296">
        <ele>39</ele>
        <time>2012-01-28T14:53:04Z</time>
      </trkpt>
      <trkpt lat="44.83184" lon="-0.36289">
        <ele>39</ele>
        <time>2012-01-28T14:53:07Z</time>
      </trkpt>
      <trkpt lat="44.83193" lon="-0.36285">
        <ele>39</ele>
        <time>2012-01-28T14:53:10Z</time>
      </trkpt>
      <trkpt lat="44.83203" lon="-0.3628">
        <ele>39</ele>
        <time>2012-01-28T14:53:13Z</time>
      </trkpt>
      <trkpt lat="44.83213" lon="-0.36275">
        <ele>39</ele>
        <time>2012-01-28T14:53:16Z</time>
      </trkpt>
      <trkpt lat="44.83225" lon="-0.36271">
        <ele>38</ele>
        <time>2012-01-28T14:53:19Z</time>
      </trkpt>
      <trkpt lat="44.83237" lon="-0.36269">
        <ele>37</ele>
        <time>2012-01-28T14:53:22Z</time>
      </trkpt>
      <trkpt lat="44.83246" lon="-0.36266">
        <ele>36</ele>
        <time>2012-01-28T14:53:24Z</time>
      </trkpt>
      <trkpt lat="44.83259" lon="-0.36265">
        <ele>35</ele>
        <time>2012-01-28T14:53:27Z</time>
      </trkpt>
      <trkpt lat="44.83269" lon="-0.36269">
        <ele>35</ele>
        <time>2012-01-28T14:53:29Z</time>
      </trkpt>
      <trkpt lat="44.83277" lon="-0.36276">
        <ele>34</ele>
        <time>2012-01-28T14:53:31Z</time>
      </trkpt>
      <trkpt lat="44.83289" lon="-0.36284">
        <ele>34</ele>
        <time>2012-01-28T14:53:34Z</time>
      </trkpt>
      <trkpt lat="44.83299" lon="-0.36293">
        <ele>34</ele>
        <time>2012-01-28T14:53:38Z</time>
      </trkpt>
      <trkpt lat="44.83307" lon="-0.36299">
        <ele>34</ele>
        <time>2012-01-28T14:53:42Z</time>
      </trkpt>
      <trkpt lat="44.83314" lon="-0.36286">
        <ele>32</ele>
        <time>2012-01-28T14:53:48Z</time>
      </trkpt>
      <trkpt lat="44.83317" lon="-0.36269">
        <ele>31</ele>
        <time>2012-01-28T14:53:51Z</time>
      </trkpt>
      <trkpt lat="44.8332" lon="-0.36255">
        <ele>31</ele>
        <time>2012-01-28T14:53:53Z</time>
      </trkpt>
      <trkpt lat="44.83323" lon="-0.3624">
        <ele>30</ele>
        <time>2012-01-28T14:53:55Z</time>
      </trkpt>
      <trkpt lat="44.83327" lon="-0.36224">
        <ele>29</ele>
        <time>2012-01-28T14:53:57Z</time>
      </trkpt>
      <trkpt lat="44.8333" lon="-0.36208">
        <ele>29</ele>
        <time>2012-01-28T14:53:59Z</time>
      </trkpt>
      <trkpt lat="44.83333" lon="-0.36193">
        <ele>28</ele>
        <time>2012-01-28T14:54:01Z</time>
      </trkpt>
      <trkpt lat="44.83336" lon="-0.3618">
        <ele>28</ele>
        <time>2012-01-28T14:54:03Z</time>
      </trkpt>
      <trkpt lat="44.83339" lon="-0.36167">
        <ele>28</ele>
        <time>2012-01-28T14:54:05Z</time>
      </trkpt>
      <trkpt lat="44.83342" lon="-0.36155">
        <ele>27</ele>
        <time>2012-01-28T14:54:07Z</time>
      </trkpt>
      <trkpt lat="44.83344" lon="-0.36142">
        <ele>27</ele>
        <time>2012-01-28T14:54:09Z</time>
      </trkpt>
      <trkpt lat="44.83347" lon="-0.36128">
        <ele>27</ele>
        <time>2012-01-28T14:54:11Z</time>
      </trkpt>
      <trkpt lat="44.8335" lon="-0.36116">
        <ele>27</ele>
        <time>2012-01-28T14:54:13Z</time>
      </trkpt>
      <trkpt lat="44.83353" lon="-0.36103">
        <ele>26</ele>
        <time>2012-01-28T14:54:15Z</time>
      </trkpt>
      <trkpt lat="44.83356" lon="-0.36085">
        <ele>26</ele>
        <time>2012-01-28T14:54:18Z</time>
      </trkpt>
      <trkpt lat="44.83358" lon="-0.36073">
        <ele>26</ele>
        <time>2012-01-28T14:54:20Z</time>
      </trkpt>
      <trkpt lat="44.83362" lon="-0.36055">
        <ele>26</ele>
        <time>2012-01-28T14:54:23Z</time>
      </trkpt>
      <trkpt lat="44.83365" lon="-0.36038">
        <ele>27</ele>
        <time>2012-01-28T14:54:26Z</time>
      </trkpt>
      <trkpt lat="44.83369" lon="-0.36021">
        <ele>27</ele>
        <time>2012-01-28T14:54:29Z</time>
      </trkpt>
      <trkpt lat="44.83372" lon="-0.36005">
        <ele>28</ele>
        <time>2012-01-28T14:54:32Z</time>
      </trkpt>
      <trkpt lat="44.83375" lon="-0.35989">
        <ele>29</ele>
        <time>2012-01-28T14:54:35Z</time>
      </trkpt>
      <trkpt lat="44.83378" lon="-0.35976">
        <ele>29</ele>
        <time>2012-01-28T14:54:38Z</time>
      </trkpt>
      <trkpt lat="44.8338" lon="-0.35963">
        <ele>30</ele>
        <time>2012-01-28T14:54:41Z</time>
      </trkpt>
      <trkpt lat="44.83383" lon="-0.35951">
        <ele>31</ele>
        <time>2012-01-28T14:54:44Z</time>
      </trkpt>
      <trkpt lat="44.83385" lon="-0.35934">
        <ele>32</ele>
        <time>2012-01-28T14:54:48Z</time>
      </trkpt>
      <trkpt lat="44.83386" lon="-0.3592">
        <ele>34</ele>
        <time>2012-01-28T14:54:52Z</time>
      </trkpt>
      <trkpt lat="44.8339" lon="-0.35905">
        <ele>35</ele>
        <time>2012-01-28T14:54:56Z</time>
      </trkpt>
      <trkpt lat="44.83392" lon="-0.3589">
        <ele>36</ele>
        <time>2012-01-28T14:55:00Z</time>
      </trkpt>
      <trkpt lat="44.83395" lon="-0.35877">
        <ele>37</ele>
        <time>2012-01-28T14:55:04Z</time>
      </trkpt>
      <trkpt lat="44.83392" lon="-0.35863">
        <ele>39</ele>
        <time>2012-01-28T14:55:09Z</time>
      </trkpt>
      <trkpt lat="44.83383" lon="-0.35855">
        <ele>39</ele>
        <time>2012-01-28T14:55:14Z</time>
      </trkpt>
      <trkpt lat="44.83374" lon="-0.35849">
        <ele>39</ele>
        <time>2012-01-28T14:55:19Z</time>
      </trkpt>
      <trkpt lat="44.83365" lon="-0.35844">
        <ele>39</ele>
        <time>2012-01-28T14:55:24Z</time>
      </trkpt>
      <trkpt lat="44.83357" lon="-0.35834">
        <ele>39</ele>
        <time>2012-01-28T14:56:20Z</time>
      </trkpt>
      <trkpt lat="44.83348" lon="-0.35828">
        <ele>39</ele>
        <time>2012-01-28T14:56:24Z</time>
      </trkpt>
      <trkpt lat="44.83339" lon="-0.35824">
        <ele>39</ele>
        <time>2012-01-28T14:56:27Z</time>
      </trkpt>
      <trkpt lat="44.83328" lon="-0.35819">
        <ele>38</ele>
        <time>2012-01-28T14:56:30Z</time>
      </trkpt>
      <trkpt lat="44.83317" lon="-0.35815">
        <ele>38</ele>
        <time>2012-01-28T14:56:33Z</time>
      </trkpt>
      <trkpt lat="44.83304" lon="-0.3581">
        <ele>37</ele>
        <time>2012-01-28T14:56:36Z</time>
      </trkpt>
      <trkpt lat="44.83292" lon="-0.35806">
        <ele>36</ele>
        <time>2012-01-28T14:56:39Z</time>
      </trkpt>
      <trkpt lat="44.83279" lon="-0.358">
        <ele>36</ele>
        <time>2012-01-28T14:56:42Z</time>
      </trkpt>
      <trkpt lat="44.83271" lon="-0.35793">
        <ele>36</ele>
        <time>2012-01-28T14:56:44Z</time>
      </trkpt>
      <trkpt lat="44.83262" lon="-0.35785">
        <ele>36</ele>
        <time>2012-01-28T14:56:46Z</time>
      </trkpt>
      <trkpt lat="44.83255" lon="-0.35775">
        <ele>36</ele>
        <time>2012-01-28T14:56:48Z</time>
      </trkpt>
      <trkpt lat="44.83248" lon="-0.35765">
        <ele>37</ele>
        <time>2012-01-28T14:56:50Z</time>
      </trkpt>
      <trkpt lat="44.83241" lon="-0.35755">
        <ele>37</ele>
        <time>2012-01-28T14:56:52Z</time>
      </trkpt>
      <trkpt lat="44.83232" lon="-0.3574">
        <ele>38</ele>
        <time>2012-01-28T14:56:55Z</time>
      </trkpt>
      <trkpt lat="44.83223" lon="-0.35726">
        <ele>39</ele>
        <time>2012-01-28T14:56:58Z</time>
      </trkpt>
      <trkpt lat="44.83215" lon="-0.35713">
        <ele>40</ele>
        <time>2012-01-28T14:57:01Z</time>
      </trkpt>
      <trkpt lat="44.83207" lon="-0.35697">
        <ele>41</ele>
        <time>2012-01-28T14:57:04Z</time>
      </trkpt>
      <trkpt lat="44.832" lon="-0.35687">
        <ele>41</ele>
        <time>2012-01-28T14:57:06Z</time>
      </trkpt>
      <trkpt lat="44.83193" lon="-0.35676">
        <ele>40</ele>
        <time>2012-01-28T14:57:08Z</time>
      </trkpt>
      <trkpt lat="44.83186" lon="-0.35664">
        <ele>39</ele>
        <time>2012-01-28T14:57:10Z</time>
      </trkpt>
      <trkpt lat="44.83176" lon="-0.35653">
        <ele>38</ele>
        <time>2012-01-28T14:57:12Z</time>
      </trkpt>
      <trkpt lat="44.83165" lon="-0.35644">
        <ele>37</ele>
        <time>2012-01-28T14:57:14Z</time>
      </trkpt>
      <trkpt lat="44.83154" lon="-0.35636">
        <ele>36</ele>
        <time>2012-01-28T14:57:16Z</time>
      </trkpt>
      <trkpt lat="44.8314" lon="-0.35629">
        <ele>35</ele>
        <time>2012-01-28T14:57:18Z</time>
      </trkpt>
      <trkpt lat="44.83128" lon="-0.35622">
        <ele>34</ele>
        <time>2012-01-28T14:57:20Z</time>
      </trkpt>
      <trkpt lat="44.83114" lon="-0.35616">
        <ele>33</ele>
        <time>2012-01-28T14:57:22Z</time>
      </trkpt>
      <trkpt lat="44.831" lon="-0.35607">
        <ele>32</ele>
        <time>2012-01-28T14:57:24Z</time>
      </trkpt>
      <trkpt lat="44.83089" lon="-0.35598">
        <ele>31</ele>
        <time>2012-01-28T14:57:26Z</time>
      </trkpt>
      <trkpt lat="44.83079" lon="-0.35584">
        <ele>31</ele>
        <time>2012-01-28T14:57:28Z</time>
      </trkpt>
      <trkpt lat="44.83073" lon="-0.35571">
        <ele>31</ele>
        <time>2012-01-28T14:57:30Z</time>
      </trkpt>
      <trkpt lat="44.83068" lon="-0.35556">
        <ele>31</ele>
        <time>2012-01-28T14:57:32Z</time>
      </trkpt>
      <trkpt lat="44.83064" lon="-0.35544">
        <ele>32</ele>
        <time>2012-01-28T14:57:34Z</time>
      </trkpt>
      <trkpt lat="44.83059" lon="-0.35531">
        <ele>33</ele>
        <time>2012-01-28T14:57:36Z</time>
      </trkpt>
      <trkpt lat="44.83053" lon="-0.35515">
        <ele>34</ele>
        <time>2012-01-28T14:57:39Z</time>
      </trkpt>
      <trkpt lat="44.83048" lon="-0.355">
        <ele>35</ele>
        <time>2012-01-28T14:57:42Z</time>
      </trkpt>
      <trkpt lat="44.83044" lon="-0.35486">
        <ele>35</ele>
        <time>2012-01-28T14:57:45Z</time>
      </trkpt>
      <trkpt lat="44.83039" lon="-0.35474">
        <ele>36</ele>
        <time>2012-01-28T14:57:48Z</time>
      </trkpt>
      <trkpt lat="44.83034" lon="-0.3546">
        <ele>36</ele>
        <time>2012-01-28T14:57:51Z</time>
      </trkpt>
      <trkpt lat="44.8303" lon="-0.35448">
        <ele>36</ele>
        <time>2012-01-28T14:57:54Z</time>
      </trkpt>
      <trkpt lat="44.83025" lon="-0.35436">
        <ele>36</ele>
        <time>2012-01-28T14:57:57Z</time>
      </trkpt>
      <trkpt lat="44.8302" lon="-0.35422">
        <ele>36</ele>
        <time>2012-01-28T14:58:00Z</time>
      </trkpt>
      <trkpt lat="44.83016" lon="-0.3541">
        <ele>37</ele>
        <time>2012-01-28T14:58:03Z</time>
      </trkpt>
      <trkpt lat="44.83011" lon="-0.35397">
        <ele>38</ele>
        <time>2012-01-28T14:58:06Z</time>
      </trkpt>
      <trkpt lat="44.83005" lon="-0.35386">
        <ele>38</ele>
        <time>2012-01-28T14:58:09Z</time>
      </trkpt>
      <trkpt lat="44.82998" lon="-0.35373">
        <ele>38</ele>
        <time>2012-01-28T14:58:12Z</time>
      </trkpt>
      <trkpt lat="44.8299" lon="-0.35361">
        <ele>38</ele>
        <time>2012-01-28T14:58:15Z</time>
      </trkpt>
      <trkpt lat="44.82981" lon="-0.35351">
        <ele>39</ele>
        <time>2012-01-28T14:58:18Z</time>
      </trkpt>
      <trkpt lat="44.82972" lon="-0.35342">
        <ele>39</ele>
        <time>2012-01-28T14:58:21Z</time>
      </trkpt>
      <trkpt lat="44.82963" lon="-0.35335">
        <ele>40</ele>
        <time>2012-01-28T14:58:24Z</time>
      </trkpt>
      <trkpt lat="44.82955" lon="-0.35328">
        <ele>40</ele>
        <time>2012-01-28T14:58:27Z</time>
      </trkpt>
      <trkpt lat="44.82945" lon="-0.35319">
        <ele>40</ele>
        <time>2012-01-28T14:58:31Z</time>
      </trkpt>
      <trkpt lat="44.82935" lon="-0.35312">
        <ele>40</ele>
        <time>2012-01-28T14:58:36Z</time>
      </trkpt>
      <trkpt lat="44.82925" lon="-0.35305">
        <ele>41</ele>
        <time>2012-01-28T14:58:41Z</time>
      </trkpt>
      <trkpt lat="44.82917" lon="-0.35298">
        <ele>41</ele>
        <time>2012-01-28T14:58:46Z</time>
      </trkpt>
      <trkpt lat="44.82908" lon="-0.35291">
        <ele>42</ele>
        <time>2012-01-28T14:58:52Z</time>
      </trkpt>
      <trkpt lat="44.82899" lon="-0.35285">
        <ele>42</ele>
        <time>2012-01-28T14:58:57Z</time>
      </trkpt>
      <trkpt lat="44.8289" lon="-0.35275">
        <ele>43</ele>
        <time>2012-01-28T14:59:03Z</time>
      </trkpt>
      <trkpt lat="44.82881" lon="-0.35267">
        <ele>43</ele>
        <time>2012-01-28T14:59:08Z</time>
      </trkpt>
      <trkpt lat="44.82872" lon="-0.3526">
        <ele>44</ele>
        <time>2012-01-28T14:59:13Z</time>
      </trkpt>
      <trkpt lat="44.82862" lon="-0.35254">
        <ele>44</ele>
        <time>2012-01-28T14:59:18Z</time>
      </trkpt>
      <trkpt lat="44.82853" lon="-0.35245">
        <ele>44</ele>
        <time>2012-01-28T14:59:22Z</time>
      </trkpt>
      <trkpt lat="44.82844" lon="-0.35237">
        <ele>44</ele>
        <time>2012-01-28T14:59:26Z</time>
      </trkpt>
      <trkpt lat="44.82834" lon="-0.3523">
        <ele>43</ele>
        <time>2012-01-28T14:59:30Z</time>
      </trkpt>
      <trkpt lat="44.82825" lon="-0.3522">
        <ele>43</ele>
        <time>2012-01-28T14:59:34Z</time>
      </trkpt>
      <trkpt lat="44.82817" lon="-0.35211">
        <ele>42</ele>
        <time>2012-01-28T14:59:37Z</time>
      </trkpt>
      <trkpt lat="44.8281" lon="-0.35201">
        <ele>42</ele>
        <time>2012-01-28T14:59:40Z</time>
      </trkpt>
      <trkpt lat="44.82802" lon="-0.35189">
        <ele>42</ele>
        <time>2012-01-28T14:59:43Z</time>
      </trkpt>
      <trkpt lat="44.82794" lon="-0.35176">
        <ele>42</ele>
        <time>2012-01-28T14:59:46Z</time>
      </trkpt>
      <trkpt lat="44.82786" lon="-0.35163">
        <ele>41</ele>
        <time>2012-01-28T14:59:49Z</time>
      </trkpt>
      <trkpt lat="44.82778" lon="-0.35151">
        <ele>42</ele>
        <time>2012-01-28T14:59:52Z</time>
      </trkpt>
      <trkpt lat="44.82771" lon="-0.35139">
        <ele>42</ele>
        <time>2012-01-28T14:59:55Z</time>
      </trkpt>
      <trkpt lat="44.82763" lon="-0.35128">
        <ele>42</ele>
        <time>2012-01-28T14:59:58Z</time>
      </trkpt>
      <trkpt lat="44.82754" lon="-0.35119">
        <ele>42</ele>
        <time>2012-01-28T15:00:01Z</time>
      </trkpt>
      <trkpt lat="44.82745" lon="-0.35112">
        <ele>42</ele>
        <time>2012-01-28T15:00:04Z</time>
      </trkpt>
      <trkpt lat="44.82737" lon="-0.35104">
        <ele>42</ele>
        <time>2012-01-28T15:00:08Z</time>
      </trkpt>
      <trkpt lat="44.82727" lon="-0.35099">
        <ele>41</ele>
        <time>2012-01-28T15:00:14Z</time>
      </trkpt>
      <trkpt lat="44.82718" lon="-0.35095">
        <ele>41</ele>
        <time>2012-01-28T15:00:18Z</time>
      </trkpt>
      <trkpt lat="44.82706" lon="-0.35093">
        <ele>40</ele>
        <time>2012-01-28T15:00:22Z</time>
      </trkpt>
      <trkpt lat="44.82696" lon="-0.35089">
        <ele>39</ele>
        <time>2012-01-28T15:00:25Z</time>
      </trkpt>
      <trkpt lat="44.82686" lon="-0.35086">
        <ele>38</ele>
        <time>2012-01-28T15:00:29Z</time>
      </trkpt>
      <trkpt lat="44.82675" lon="-0.3508">
        <ele>38</ele>
        <time>2012-01-28T15:00:33Z</time>
      </trkpt>
      <trkpt lat="44.82666" lon="-0.35074">
        <ele>37</ele>
        <time>2012-01-28T15:00:36Z</time>
      </trkpt>
      <trkpt lat="44.82657" lon="-0.35068">
        <ele>37</ele>
        <time>2012-01-28T15:00:39Z</time>
      </trkpt>
      <trkpt lat="44.82648" lon="-0.35059">
        <ele>37</ele>
        <time>2012-01-28T15:00:42Z</time>
      </trkpt>
      <trkpt lat="44.82639" lon="-0.35051">
        <ele>36</ele>
        <time>2012-01-28T15:00:45Z</time>
      </trkpt>
      <trkpt lat="44.82628" lon="-0.35041">
        <ele>36</ele>
        <time>2012-01-28T15:00:48Z</time>
      </trkpt>
      <trkpt lat="44.82617" lon="-0.35028">
        <ele>36</ele>
        <time>2012-01-28T15:00:51Z</time>
      </trkpt>
      <trkpt lat="44.82607" lon="-0.35015">
        <ele>36</ele>
        <time>2012-01-28T15:00:54Z</time>
      </trkpt>
      <trkpt lat="44.82596" lon="-0.35005">
        <ele>36</ele>
        <time>2012-01-28T15:00:57Z</time>
      </trkpt>
      <trkpt lat="44.82585" lon="-0.34998">
        <ele>36</ele>
        <time>2012-01-28T15:01:00Z</time>
      </trkpt>
      <trkpt lat="44.82573" lon="-0.34991">
        <ele>36</ele>
        <time>2012-01-28T15:01:03Z</time>
      </trkpt>
      <trkpt lat="44.82561" lon="-0.34988">
        <ele>36</ele>
        <time>2012-01-28T15:01:06Z</time>
      </trkpt>
      <trkpt lat="44.82547" lon="-0.34986">
        <ele>36</ele>
        <time>2012-01-28T15:01:09Z</time>
      </trkpt>
      <trkpt lat="44.82534" lon="-0.34987">
        <ele>36</ele>
        <time>2012-01-28T15:01:12Z</time>
      </trkpt>
      <trkpt lat="44.82522" lon="-0.34985">
        <ele>36</ele>
        <time>2012-01-28T15:01:15Z</time>
      </trkpt>
      <trkpt lat="44.82511" lon="-0.3498">
        <ele>36</ele>
        <time>2012-01-28T15:01:18Z</time>
      </trkpt>
      <trkpt lat="44.82502" lon="-0.34969">
        <ele>36</ele>
        <time>2012-01-28T15:01:21Z</time>
      </trkpt>
      <trkpt lat="44.82495" lon="-0.34953">
        <ele>37</ele>
        <time>2012-01-28T15:01:24Z</time>
      </trkpt>
      <trkpt lat="44.8249" lon="-0.3494">
        <ele>37</ele>
        <time>2012-01-28T15:01:27Z</time>
      </trkpt>
      <trkpt lat="44.82484" lon="-0.34927">
        <ele>38</ele>
        <time>2012-01-28T15:01:30Z</time>
      </trkpt>
      <trkpt lat="44.82479" lon="-0.34915">
        <ele>38</ele>
        <time>2012-01-28T15:01:33Z</time>
      </trkpt>
      <trkpt lat="44.82475" lon="-0.349">
        <ele>38</ele>
        <time>2012-01-28T15:01:36Z</time>
      </trkpt>
      <trkpt lat="44.8247" lon="-0.34887">
        <ele>39</ele>
        <time>2012-01-28T15:01:39Z</time>
      </trkpt>
      <trkpt lat="44.82463" lon="-0.34874">
        <ele>39</ele>
        <time>2012-01-28T15:01:42Z</time>
      </trkpt>
      <trkpt lat="44.82454" lon="-0.34865">
        <ele>38</ele>
        <time>2012-01-28T15:01:45Z</time>
      </trkpt>
      <trkpt lat="44.82442" lon="-0.34858">
        <ele>38</ele>
        <time>2012-01-28T15:01:48Z</time>
      </trkpt>
      <trkpt lat="44.8243" lon="-0.3486">
        <ele>38</ele>
        <time>2012-01-28T15:01:51Z</time>
      </trkpt>
      <trkpt lat="44.82419" lon="-0.34866">
        <ele>38</ele>
        <time>2012-01-28T15:01:54Z</time>
      </trkpt>
      <trkpt lat="44.82408" lon="-0.34874">
        <ele>38</ele>
        <time>2012-01-28T15:01:57Z</time>
      </trkpt>
      <trkpt lat="44.82399" lon="-0.34884">
        <ele>38</ele>
        <time>2012-01-28T15:02:00Z</time>
      </trkpt>
      <trkpt lat="44.82389" lon="-0.34893">
        <ele>38</ele>
        <time>2012-01-28T15:02:03Z</time>
      </trkpt>
      <trkpt lat="44.82376" lon="-0.349">
        <ele>38</ele>
        <time>2012-01-28T15:02:06Z</time>
      </trkpt>
      <trkpt lat="44.82365" lon="-0.34906">
        <ele>39</ele>
        <time>2012-01-28T15:02:09Z</time>
      </trkpt>
      <trkpt lat="44.82355" lon="-0.34909">
        <ele>39</ele>
        <time>2012-01-28T15:02:12Z</time>
      </trkpt>
      <trkpt lat="44.82343" lon="-0.34911">
        <ele>39</ele>
        <time>2012-01-28T15:02:16Z</time>
      </trkpt>
      <trkpt lat="44.82334" lon="-0.34913">
        <ele>39</ele>
        <time>2012-01-28T15:02:20Z</time>
      </trkpt>
      <trkpt lat="44.82323" lon="-0.34914">
        <ele>39</ele>
        <time>2012-01-28T15:02:24Z</time>
      </trkpt>
      <trkpt lat="44.82314" lon="-0.34907">
        <ele>39</ele>
        <time>2012-01-28T15:02:28Z</time>
      </trkpt>
      <trkpt lat="44.82313" lon="-0.34893">
        <ele>39</ele>
        <time>2012-01-28T15:02:32Z</time>
      </trkpt>
      <trkpt lat="44.82312" lon="-0.34878">
        <ele>40</ele>
        <time>2012-01-28T15:02:38Z</time>
      </trkpt>
      <trkpt lat="44.82312" lon="-0.34864">
        <ele>40</ele>
        <time>2012-01-28T15:02:43Z</time>
      </trkpt>
      <trkpt lat="44.82313" lon="-0.34849">
        <ele>41</ele>
        <time>2012-01-28T15:02:50Z</time>
      </trkpt>
      <trkpt lat="44.82313" lon="-0.34836">
        <ele>42</ele>
        <time>2012-01-28T15:02:57Z</time>
      </trkpt>
      <trkpt lat="44.82313" lon="-0.34822">
        <ele>42</ele>
        <time>2012-01-28T15:03:04Z</time>
      </trkpt>
      <trkpt lat="44.82313" lon="-0.34809">
        <ele>43</ele>
        <time>2012-01-28T15:03:11Z</time>
      </trkpt>
      <trkpt lat="44.82313" lon="-0.34795">
        <ele>44</ele>
        <time>2012-01-28T15:03:18Z</time>
      </trkpt>
      <trkpt lat="44.82312" lon="-0.34782">
        <ele>45</ele>
        <time>2012-01-28T15:03:24Z</time>
      </trkpt>
      <trkpt lat="44.82312" lon="-0.34767">
        <ele>46</ele>
        <time>2012-01-28T15:03:31Z</time>
      </trkpt>
      <trkpt lat="44.82311" lon="-0.34753">
        <ele>47</ele>
        <time>2012-01-28T15:03:38Z</time>
      </trkpt>
      <trkpt lat="44.8231" lon="-0.3474">
        <ele>48</ele>
        <time>2012-01-28T15:03:45Z</time>
      </trkpt>
      <trkpt lat="44.82309" lon="-0.34725">
        <ele>48</ele>
        <time>2012-01-28T15:03:51Z</time>
      </trkpt>
      <trkpt lat="44.82305" lon="-0.34713">
        <ele>49</ele>
        <time>2012-01-28T15:03:57Z</time>
      </trkpt>
      <trkpt lat="44.823" lon="-0.347">
        <ele>50</ele>
        <time>2012-01-28T15:04:03Z</time>
      </trkpt>
      <trkpt lat="44.82294" lon="-0.34688">
        <ele>50</ele>
        <time>2012-01-28T15:04:09Z</time>
      </trkpt>
      <trkpt lat="44.82288" lon="-0.34678">
        <ele>51</ele>
        <time>2012-01-28T15:04:14Z</time>
      </trkpt>
      <trkpt lat="44.82279" lon="-0.34671">
        <ele>51</ele>
        <time>2012-01-28T15:04:19Z</time>
      </trkpt>
      <trkpt lat="44.8227" lon="-0.34662">
        <ele>51</ele>
        <time>2012-01-28T15:04:23Z</time>
      </trkpt>
      <trkpt lat="44.82261" lon="-0.34655">
        <ele>51</ele>
        <time>2012-01-28T15:04:27Z</time>
      </trkpt>
      <trkpt lat="44.82253" lon="-0.34645">
        <ele>51</ele>
        <time>2012-01-28T15:04:31Z</time>
      </trkpt>
      <trkpt lat="44.82245" lon="-0.34635">
        <ele>51</ele>
        <time>2012-01-28T15:04:35Z</time>
      </trkpt>
      <trkpt lat="44.82238" lon="-0.34625">
        <ele>51</ele>
        <time>2012-01-28T15:04:40Z</time>
      </trkpt>
      <trkpt lat="44.82231" lon="-0.34615">
        <ele>51</ele>
        <time>2012-01-28T15:04:45Z</time>
      </trkpt>
      <trkpt lat="44.82225" lon="-0.34604">
        <ele>52</ele>
        <time>2012-01-28T15:04:51Z</time>
      </trkpt>
      <trkpt lat="44.82219" lon="-0.34592">
        <ele>52</ele>
        <time>2012-01-28T15:04:56Z</time>
      </trkpt>
      <trkpt lat="44.82213" lon="-0.3458">
        <ele>53</ele>
        <time>2012-01-28T15:05:02Z</time>
      </trkpt>
      <trkpt lat="44.82207" lon="-0.34568">
        <ele>53</ele>
        <time>2012-01-28T15:05:08Z</time>
      </trkpt>
      <trkpt lat="44.82203" lon="-0.34556">
        <ele>54</ele>
        <time>2012-01-28T15:05:13Z</time>
      </trkpt>
      <trkpt lat="44.82197" lon="-0.34543">
        <ele>55</ele>
        <time>2012-01-28T15:05:19Z</time>
      </trkpt>
      <trkpt lat="44.82195" lon="-0.34529">
        <ele>56</ele>
        <time>2012-01-28T15:05:25Z</time>
      </trkpt>
      <trkpt lat="44.82191" lon="-0.34515">
        <ele>57</ele>
        <time>2012-01-28T15:05:32Z</time>
      </trkpt>
      <trkpt lat="44.82187" lon="-0.34502">
        <ele>58</ele>
        <time>2012-01-28T15:05:38Z</time>
      </trkpt>
      <trkpt lat="44.82183" lon="-0.34488">
        <ele>58</ele>
        <time>2012-01-28T15:05:44Z</time>
      </trkpt>
      <trkpt lat="44.8218" lon="-0.34474">
        <ele>59</ele>
        <time>2012-01-28T15:05:50Z</time>
      </trkpt>
      <trkpt lat="44.82177" lon="-0.3446">
        <ele>60</ele>
        <time>2012-01-28T15:05:56Z</time>
      </trkpt>
      <trkpt lat="44.82174" lon="-0.34447">
        <ele>61</ele>
        <time>2012-01-28T15:06:02Z</time>
      </trkpt>
      <trkpt lat="44.82173" lon="-0.34432">
        <ele>61</ele>
        <time>2012-01-28T15:06:09Z</time>
      </trkpt>
      <trkpt lat="44.82172" lon="-0.34418">
        <ele>62</ele>
        <time>2012-01-28T15:06:15Z</time>
      </trkpt>
      <trkpt lat="44.82172" lon="-0.34405">
        <ele>62</ele>
        <time>2012-01-28T15:06:20Z</time>
      </trkpt>
      <trkpt lat="44.82173" lon="-0.34391">
        <ele>63</ele>
        <time>2012-01-28T15:06:25Z</time>
      </trkpt>
      <trkpt lat="44.82174" lon="-0.34376">
        <ele>63</ele>
        <time>2012-01-28T15:06:30Z</time>
      </trkpt>
      <trkpt lat="44.82176" lon="-0.34362">
        <ele>63</ele>
        <time>2012-01-28T15:06:35Z</time>
      </trkpt>
      <trkpt lat="44.82176" lon="-0.34346">
        <ele>63</ele>
        <time>2012-01-28T15:06:40Z</time>
      </trkpt>
      <trkpt lat="44.82178" lon="-0.34333">
        <ele>64</ele>
        <time>2012-01-28T15:06:46Z</time>
      </trkpt>
      <trkpt lat="44.82179" lon="-0.34317">
        <ele>64</ele>
        <time>2012-01-28T15:06:52Z</time>
      </trkpt>
      <trkpt lat="44.82181" lon="-0.34301">
        <ele>64</ele>
        <time>2012-01-28T15:06:57Z</time>
      </trkpt>
      <trkpt lat="44.82182" lon="-0.34288">
        <ele>64</ele>
        <time>2012-01-28T15:07:01Z</time>
      </trkpt>
      <trkpt lat="44.82184" lon="-0.34273">
        <ele>64</ele>
        <time>2012-01-28T15:07:05Z</time>
      </trkpt>
      <trkpt lat="44.82185" lon="-0.34257">
        <ele>64</ele>
        <time>2012-01-28T15:07:09Z</time>
      </trkpt>
      <trkpt lat="44.82186" lon="-0.34243">
        <ele>64</ele>
        <time>2012-01-28T15:07:12Z</time>
      </trkpt>
      <trkpt lat="44.82187" lon="-0.34229">
        <ele>63</ele>
        <time>2012-01-28T15:07:15Z</time>
      </trkpt>
      <trkpt lat="44.82188" lon="-0.34216">
        <ele>63</ele>
        <time>2012-01-28T15:07:18Z</time>
      </trkpt>
      <trkpt lat="44.82188" lon="-0.34203">
        <ele>63</ele>
        <time>2012-01-28T15:07:21Z</time>
      </trkpt>
      <trkpt lat="44.82189" lon="-0.34186">
        <ele>63</ele>
        <time>2012-01-28T15:07:25Z</time>
      </trkpt>
      <trkpt lat="44.82189" lon="-0.34173">
        <ele>63</ele>
        <time>2012-01-28T15:07:30Z</time>
      </trkpt>
      <trkpt lat="44.8219" lon="-0.34158">
        <ele>63</ele>
        <time>2012-01-28T15:07:41Z</time>
      </trkpt>
      <trkpt lat="44.82189" lon="-0.34142">
        <ele>63</ele>
        <time>2012-01-28T15:07:45Z</time>
      </trkpt>
      <trkpt lat="44.82187" lon="-0.34127">
        <ele>64</ele>
        <time>2012-01-28T15:07:49Z</time>
      </trkpt>
      <trkpt lat="44.82185" lon="-0.34112">
        <ele>64</ele>
        <time>2012-01-28T15:07:53Z</time>
      </trkpt>
      <trkpt lat="44.82181" lon="-0.34098">
        <ele>65</ele>
        <time>2012-01-28T15:07:57Z</time>
      </trkpt>
      <trkpt lat="44.82178" lon="-0.34084">
        <ele>66</ele>
        <time>2012-01-28T15:08:02Z</time>
      </trkpt>
      <trkpt lat="44.82173" lon="-0.34071">
        <ele>67</ele>
        <time>2012-01-28T15:08:07Z</time>
      </trkpt>
      <trkpt lat="44.82169" lon="-0.34059">
        <ele>68</ele>
        <time>2012-01-28T15:08:12Z</time>
      </trkpt>
      <trkpt lat="44.82164" lon="-0.34046">
        <ele>69</ele>
        <time>2012-01-28T15:08:17Z</time>
      </trkpt>
      <trkpt lat="44.8216" lon="-0.34032">
        <ele>70</ele>
        <time>2012-01-28T15:08:23Z</time>
      </trkpt>
      <trkpt lat="44.82158" lon="-0.34018">
        <ele>71</ele>
        <time>2012-01-28T15:08:29Z</time>
      </trkpt>
      <trkpt lat="44.82155" lon="-0.34006">
        <ele>72</ele>
        <time>2012-01-28T15:08:35Z</time>
      </trkpt>
      <trkpt lat="44.82151" lon="-0.33992">
        <ele>73</ele>
        <time>2012-01-28T15:08:40Z</time>
      </trkpt>
      <trkpt lat="44.82148" lon="-0.3398">
        <ele>74</ele>
        <time>2012-01-28T15:08:45Z</time>
      </trkpt>
      <trkpt lat="44.82144" lon="-0.33965">
        <ele>75</ele>
        <time>2012-01-28T15:08:53Z</time>
      </trkpt>
      <trkpt lat="44.82142" lon="-0.33951">
        <ele>76</ele>
        <time>2012-01-28T15:09:00Z</time>
      </trkpt>
      <trkpt lat="44.8214" lon="-0.33938">
        <ele>77</ele>
        <time>2012-01-28T15:09:08Z</time>
      </trkpt>
      <trkpt lat="44.82137" lon="-0.33924">
        <ele>78</ele>
        <time>2012-01-28T15:09:15Z</time>
      </trkpt>
      <trkpt lat="44.82135" lon="-0.33911">
        <ele>78</ele>
        <time>2012-01-28T15:09:21Z</time>
      </trkpt>
      <trkpt lat="44.82132" lon="-0.33896">
        <ele>79</ele>
        <time>2012-01-28T15:09:27Z</time>
      </trkpt>
      <trkpt lat="44.8213" lon="-0.33881">
        <ele>80</ele>
        <time>2012-01-28T15:09:33Z</time>
      </trkpt>
      <trkpt lat="44.82127" lon="-0.33867">
        <ele>80</ele>
        <time>2012-01-28T15:09:39Z</time>
      </trkpt>
      <trkpt lat="44.82125" lon="-0.33852">
        <ele>81</ele>
        <time>2012-01-28T15:09:45Z</time>
      </trkpt>
      <trkpt lat="44.82122" lon="-0.33837">
        <ele>82</ele>
        <time>2012-01-28T15:09:51Z</time>
      </trkpt>
      <trkpt lat="44.82121" lon="-0.33823">
        <ele>83</ele>
        <time>2012-01-28T15:09:56Z</time>
      </trkpt>
      <trkpt lat="44.82119" lon="-0.33809">
        <ele>84</ele>
        <time>2012-01-28T15:10:02Z</time>
      </trkpt>
      <trkpt lat="44.82117" lon="-0.33796">
        <ele>84</ele>
        <time>2012-01-28T15:10:08Z</time>
      </trkpt>
      <trkpt lat="44.82116" lon="-0.33781">
        <ele>85</ele>
        <time>2012-01-28T15:10:15Z</time>
      </trkpt>
      <trkpt lat="44.82114" lon="-0.33768">
        <ele>86</ele>
        <time>2012-01-28T15:10:21Z</time>
      </trkpt>
      <trkpt lat="44.82112" lon="-0.33754">
        <ele>86</ele>
        <time>2012-01-28T15:10:27Z</time>
      </trkpt>
      <trkpt lat="44.82111" lon="-0.3374">
        <ele>87</ele>
        <time>2012-01-28T15:10:33Z</time>
      </trkpt>
      <trkpt lat="44.8211" lon="-0.33726">
        <ele>88</ele>
        <time>2012-01-28T15:10:39Z</time>
      </trkpt>
      <trkpt lat="44.8211" lon="-0.33712">
        <ele>89</ele>
        <time>2012-01-28T15:10:45Z</time>
      </trkpt>
      <trkpt lat="44.8211" lon="-0.33697">
        <ele>90</ele>
        <time>2012-01-28T15:10:51Z</time>
      </trkpt>
      <trkpt lat="44.8211" lon="-0.33682">
        <ele>91</ele>
        <time>2012-01-28T15:10:57Z</time>
      </trkpt>
      <trkpt lat="44.8211" lon="-0.33668">
        <ele>92</ele>
        <time>2012-01-28T15:11:03Z</time>
      </trkpt>
      <trkpt lat="44.8211" lon="-0.33655">
        <ele>93</ele>
        <time>2012-01-28T15:11:09Z</time>
      </trkpt>
      <trkpt lat="44.8211" lon="-0.33639">
        <ele>94</ele>
        <time>2012-01-28T15:11:15Z</time>
      </trkpt>
      <trkpt lat="44.8211" lon="-0.33625">
        <ele>95</ele>
        <time>2012-01-28T15:11:20Z</time>
      </trkpt>
      <trkpt lat="44.8211" lon="-0.3361">
        <ele>96</ele>
        <time>2012-01-28T15:11:25Z</time>
      </trkpt>
      <trkpt lat="44.8211" lon="-0.33596">
        <ele>96</ele>
        <time>2012-01-28T15:11:29Z</time>
      </trkpt>
      <trkpt lat="44.8211" lon="-0.33582">
        <ele>97</ele>
        <time>2012-01-28T15:11:34Z</time>
      </trkpt>
      <trkpt lat="44.82111" lon="-0.33568">
        <ele>98</ele>
        <time>2012-01-28T15:11:39Z</time>
      </trkpt>
      <trkpt lat="44.8211" lon="-0.33553">
        <ele>98</ele>
        <time>2012-01-28T15:11:44Z</time>
      </trkpt>
      <trkpt lat="44.8211" lon="-0.33538">
        <ele>99</ele>
        <time>2012-01-28T15:11:49Z</time>
      </trkpt>
      <trkpt lat="44.8211" lon="-0.33523">
        <ele>99</ele>
        <time>2012-01-28T15:11:54Z</time>
      </trkpt>
      <trkpt lat="44.8211" lon="-0.33508">
        <ele>100</ele>
        <time>2012-01-28T15:11:59Z</time>
      </trkpt>
      <trkpt lat="44.8211" lon="-0.33495">
        <ele>100</ele>
        <time>2012-01-28T15:12:03Z</time>
      </trkpt>
      <trkpt lat="44.8211" lon="-0.33481">
        <ele>101</ele>
        <time>2012-01-28T15:12:07Z</time>
      </trkpt>
      <trkpt lat="44.82111" lon="-0.33468">
        <ele>101</ele>
        <time>2012-01-28T15:12:11Z</time>
      </trkpt>
      <trkpt lat="44.82112" lon="-0.33454">
        <ele>101</ele>
        <time>2012-01-28T15:12:15Z</time>
      </trkpt>
      <trkpt lat="44.82112" lon="-0.33441">
        <ele>101</ele>
        <time>2012-01-28T15:12:19Z</time>
      </trkpt>
      <trkpt lat="44.82112" lon="-0.33425">
        <ele>102</ele>
        <time>2012-01-28T15:12:24Z</time>
      </trkpt>
      <trkpt lat="44.82112" lon="-0.3341">
        <ele>102</ele>
        <time>2012-01-28T15:12:29Z</time>
      </trkpt>
      <trkpt lat="44.82114" lon="-0.33397">
        <ele>102</ele>
        <time>2012-01-28T15:13:08Z</time>
      </trkpt>
      <trkpt lat="44.82124" lon="-0.33393">
        <ele>102</ele>
        <time>2012-01-28T15:13:16Z</time>
      </trkpt>
      <trkpt lat="44.82134" lon="-0.33396">
        <ele>102</ele>
        <time>2012-01-28T15:13:21Z</time>
      </trkpt>
      <trkpt lat="44.82144" lon="-0.33397">
        <ele>102</ele>
        <time>2012-01-28T15:13:25Z</time>
      </trkpt>
      <trkpt lat="44.82154" lon="-0.33396">
        <ele>102</ele>
        <time>2012-01-28T15:13:29Z</time>
      </trkpt>
      <trkpt lat="44.82164" lon="-0.33399">
        <ele>102</ele>
        <time>2012-01-28T15:13:33Z</time>
      </trkpt>
      <trkpt lat="44.82174" lon="-0.33399">
        <ele>102</ele>
        <time>2012-01-28T15:13:38Z</time>
      </trkpt>
      <trkpt lat="44.82184" lon="-0.33399">
        <ele>102</ele>
        <time>2012-01-28T15:13:42Z</time>
      </trkpt>
      <trkpt lat="44.82196" lon="-0.334">
        <ele>102</ele>
        <time>2012-01-28T15:13:46Z</time>
      </trkpt>
      <trkpt lat="44.82208" lon="-0.33398">
        <ele>101</ele>
        <time>2012-01-28T15:13:50Z</time>
      </trkpt>
      <trkpt lat="44.82211" lon="-0.33385">
        <ele>101</ele>
        <time>2012-01-28T15:13:53Z</time>
      </trkpt>
      <trkpt lat="44.82213" lon="-0.33369">
        <ele>101</ele>
        <time>2012-01-28T15:13:57Z</time>
      </trkpt>
      <trkpt lat="44.82213" lon="-0.33352">
        <ele>101</ele>
        <time>2012-01-28T15:14:01Z</time>
      </trkpt>
      <trkpt lat="44.82212" lon="-0.33338">
        <ele>101</ele>
        <time>2012-01-28T15:14:04Z</time>
      </trkpt>
      <trkpt lat="44.82213" lon="-0.33325">
        <ele>101</ele>
        <time>2012-01-28T15:14:07Z</time>
      </trkpt>
      <trkpt lat="44.82212" lon="-0.3331">
        <ele>100</ele>
        <time>2012-01-28T15:14:10Z</time>
      </trkpt>
      <trkpt lat="44.82211" lon="-0.33293">
        <ele>100</ele>
        <time>2012-01-28T15:14:13Z</time>
      </trkpt>
      <trkpt lat="44.8221" lon="-0.33275">
        <ele>100</ele>
        <time>2012-01-28T15:14:16Z</time>
      </trkpt>
      <trkpt lat="44.82208" lon="-0.33257">
        <ele>99</ele>
        <time>2012-01-28T15:14:19Z</time>
      </trkpt>
      <trkpt lat="44.82207" lon="-0.3324">
        <ele>99</ele>
        <time>2012-01-28T15:14:22Z</time>
      </trkpt>
      <trkpt lat="44.82205" lon="-0.33222">
        <ele>99</ele>
        <time>2012-01-28T15:14:25Z</time>
      </trkpt>
      <trkpt lat="44.82204" lon="-0.33206">
        <ele>99</ele>
        <time>2012-01-28T15:14:28Z</time>
      </trkpt>
      <trkpt lat="44.82203" lon="-0.3319">
        <ele>99</ele>
        <time>2012-01-28T15:14:31Z</time>
      </trkpt>
      <trkpt lat="44.82202" lon="-0.33174">
        <ele>98</ele>
        <time>2012-01-28T15:14:34Z</time>
      </trkpt>
      <trkpt lat="44.82201" lon="-0.33158">
        <ele>98</ele>
        <time>2012-01-28T15:14:37Z</time>
      </trkpt>
      <trkpt lat="44.82199" lon="-0.33142">
        <ele>98</ele>
        <time>2012-01-28T15:14:40Z</time>
      </trkpt>
      <trkpt lat="44.82199" lon="-0.33127">
        <ele>98</ele>
        <time>2012-01-28T15:14:43Z</time>
      </trkpt>
      <trkpt lat="44.82197" lon="-0.33113">
        <ele>98</ele>
        <time>2012-01-28T15:14:46Z</time>
      </trkpt>
      <trkpt lat="44.82197" lon="-0.33099">
        <ele>98</ele>
        <time>2012-01-28T15:14:49Z</time>
      </trkpt>
      <trkpt lat="44.82197" lon="-0.33085">
        <ele>98</ele>
        <time>2012-01-28T15:14:52Z</time>
      </trkpt>
      <trkpt lat="44.82199" lon="-0.33071">
        <ele>98</ele>
        <time>2012-01-28T15:14:55Z</time>
      </trkpt>
      <trkpt lat="44.82201" lon="-0.33056">
        <ele>98</ele>
        <time>2012-01-28T15:14:58Z</time>
      </trkpt>
      <trkpt lat="44.82206" lon="-0.33042">
        <ele>98</ele>
        <time>2012-01-28T15:15:01Z</time>
      </trkpt>
      <trkpt lat="44.82211" lon="-0.33029">
        <ele>98</ele>
        <time>2012-01-28T15:15:04Z</time>
      </trkpt>
      <trkpt lat="44.82215" lon="-0.33018">
        <ele>98</ele>
        <time>2012-01-28T15:15:07Z</time>
      </trkpt>
      <trkpt lat="44.82221" lon="-0.33001">
        <ele>98</ele>
        <time>2012-01-28T15:15:11Z</time>
      </trkpt>
      <trkpt lat="44.82226" lon="-0.32989">
        <ele>98</ele>
        <time>2012-01-28T15:15:14Z</time>
      </trkpt>
      <trkpt lat="44.82231" lon="-0.32974">
        <ele>97</ele>
        <time>2012-01-28T15:15:17Z</time>
      </trkpt>
      <trkpt lat="44.82235" lon="-0.32956">
        <ele>96</ele>
        <time>2012-01-28T15:15:20Z</time>
      </trkpt>
      <trkpt lat="44.82241" lon="-0.32938">
        <ele>96</ele>
        <time>2012-01-28T15:15:23Z</time>
      </trkpt>
      <trkpt lat="44.82246" lon="-0.32921">
        <ele>95</ele>
        <time>2012-01-28T15:15:26Z</time>
      </trkpt>
      <trkpt lat="44.82249" lon="-0.32908">
        <ele>94</ele>
        <time>2012-01-28T15:15:28Z</time>
      </trkpt>
      <trkpt lat="44.82253" lon="-0.32895">
        <ele>93</ele>
        <time>2012-01-28T15:15:30Z</time>
      </trkpt>
      <trkpt lat="44.82256" lon="-0.32883">
        <ele>92</ele>
        <time>2012-01-28T15:15:32Z</time>
      </trkpt>
      <trkpt lat="44.8226" lon="-0.32866">
        <ele>90</ele>
        <time>2012-01-28T15:15:35Z</time>
      </trkpt>
      <trkpt lat="44.82265" lon="-0.32848">
        <ele>89</ele>
        <time>2012-01-28T15:15:38Z</time>
      </trkpt>
      <trkpt lat="44.82268" lon="-0.32835">
        <ele>87</ele>
        <time>2012-01-28T15:15:40Z</time>
      </trkpt>
      <trkpt lat="44.82271" lon="-0.32823">
        <ele>86</ele>
        <time>2012-01-28T15:15:42Z</time>
      </trkpt>
      <trkpt lat="44.82274" lon="-0.3281">
        <ele>85</ele>
        <time>2012-01-28T15:15:44Z</time>
      </trkpt>
      <trkpt lat="44.82277" lon="-0.32798">
        <ele>84</ele>
        <time>2012-01-28T15:15:46Z</time>
      </trkpt>
      <trkpt lat="44.82279" lon="-0.32784">
        <ele>83</ele>
        <time>2012-01-28T15:15:48Z</time>
      </trkpt>
      <trkpt lat="44.82279" lon="-0.32769">
        <ele>82</ele>
        <time>2012-01-28T15:15:50Z</time>
      </trkpt>
      <trkpt lat="44.82279" lon="-0.32753">
        <ele>81</ele>
        <time>2012-01-28T15:15:52Z</time>
      </trkpt>
      <trkpt lat="44.82278" lon="-0.32735">
        <ele>80</ele>
        <time>2012-01-28T15:15:54Z</time>
      </trkpt>
      <trkpt lat="44.82276" lon="-0.32718">
        <ele>79</ele>
        <time>2012-01-28T15:15:56Z</time>
      </trkpt>
      <trkpt lat="44.82274" lon="-0.32701">
        <ele>78</ele>
        <time>2012-01-28T15:15:58Z</time>
      </trkpt>
      <trkpt lat="44.8227" lon="-0.32684">
        <ele>77</ele>
        <time>2012-01-28T15:16:00Z</time>
      </trkpt>
      <trkpt lat="44.82268" lon="-0.32668">
        <ele>76</ele>
        <time>2012-01-28T15:16:02Z</time>
      </trkpt>
      <trkpt lat="44.82266" lon="-0.32652">
        <ele>75</ele>
        <time>2012-01-28T15:16:04Z</time>
      </trkpt>
      <trkpt lat="44.82263" lon="-0.32636">
        <ele>74</ele>
        <time>2012-01-28T15:16:06Z</time>
      </trkpt>
      <trkpt lat="44.82261" lon="-0.32619">
        <ele>74</ele>
        <time>2012-01-28T15:16:08Z</time>
      </trkpt>
      <trkpt lat="44.8226" lon="-0.32602">
        <ele>73</ele>
        <time>2012-01-28T15:16:10Z</time>
      </trkpt>
      <trkpt lat="44.8226" lon="-0.32585">
        <ele>73</ele>
        <time>2012-01-28T15:16:12Z</time>
      </trkpt>
      <trkpt lat="44.82261" lon="-0.32568">
        <ele>72</ele>
        <time>2012-01-28T15:16:14Z</time>
      </trkpt>
      <trkpt lat="44.82263" lon="-0.32553">
        <ele>72</ele>
        <time>2012-01-28T15:16:16Z</time>
      </trkpt>
      <trkpt lat="44.82265" lon="-0.32539">
        <ele>71</ele>
        <time>2012-01-28T15:16:18Z</time>
      </trkpt>
      <trkpt lat="44.82266" lon="-0.32524">
        <ele>71</ele>
        <time>2012-01-28T15:16:20Z</time>
      </trkpt>
      <trkpt lat="44.82266" lon="-0.32508">
        <ele>70</ele>
        <time>2012-01-28T15:16:22Z</time>
      </trkpt>
      <trkpt lat="44.82267" lon="-0.32492">
        <ele>69</ele>
        <time>2012-01-28T15:16:24Z</time>
      </trkpt>
      <trkpt lat="44.82266" lon="-0.32475">
        <ele>69</ele>
        <time>2012-01-28T15:16:26Z</time>
      </trkpt>
      <trkpt lat="44.82266" lon="-0.32458">
        <ele>68</ele>
        <time>2012-01-28T15:16:28Z</time>
      </trkpt>
      <trkpt lat="44.82266" lon="-0.32442">
        <ele>68</ele>
        <time>2012-01-28T15:16:30Z</time>
      </trkpt>
      <trkpt lat="44.82265" lon="-0.32426">
        <ele>67</ele>
        <time>2012-01-28T15:16:32Z</time>
      </trkpt>
      <trkpt lat="44.82265" lon="-0.32409">
        <ele>67</ele>
        <time>2012-01-28T15:16:34Z</time>
      </trkpt>
      <trkpt lat="44.82265" lon="-0.32393">
        <ele>66</ele>
        <time>2012-01-28T15:16:36Z</time>
      </trkpt>
      <trkpt lat="44.82264" lon="-0.32377">
        <ele>65</ele>
        <time>2012-01-28T15:16:38Z</time>
      </trkpt>
      <trkpt lat="44.82263" lon="-0.32361">
        <ele>65</ele>
        <time>2012-01-28T15:16:40Z</time>
      </trkpt>
      <trkpt lat="44.82263" lon="-0.32345">
        <ele>64</ele>
        <time>2012-01-28T15:16:42Z</time>
      </trkpt>
      <trkpt lat="44.82263" lon="-0.32329">
        <ele>64</ele>
        <time>2012-01-28T15:16:44Z</time>
      </trkpt>
      <trkpt lat="44.82262" lon="-0.32315">
        <ele>64</ele>
        <time>2012-01-28T15:16:46Z</time>
      </trkpt>
      <trkpt lat="44.82261" lon="-0.32297">
        <ele>63</ele>
        <time>2012-01-28T15:16:49Z</time>
      </trkpt>
      <trkpt lat="44.82259" lon="-0.32284">
        <ele>63</ele>
        <time>2012-01-28T15:16:52Z</time>
      </trkpt>
      <trkpt lat="44.82259" lon="-0.32268">
        <ele>62</ele>
        <time>2012-01-28T15:16:55Z</time>
      </trkpt>
      <trkpt lat="44.82259" lon="-0.32255">
        <ele>62</ele>
        <time>2012-01-28T15:16:58Z</time>
      </trkpt>
      <trkpt lat="44.82258" lon="-0.32241">
        <ele>62</ele>
        <time>2012-01-28T15:17:01Z</time>
      </trkpt>
      <trkpt lat="44.82258" lon="-0.32227">
        <ele>62</ele>
        <time>2012-01-28T15:17:04Z</time>
      </trkpt>
      <trkpt lat="44.82258" lon="-0.32212">
        <ele>61</ele>
        <time>2012-01-28T15:17:07Z</time>
      </trkpt>
      <trkpt lat="44.82258" lon="-0.32196">
        <ele>61</ele>
        <time>2012-01-28T15:17:10Z</time>
      </trkpt>
      <trkpt lat="44.82258" lon="-0.32179">
        <ele>61</ele>
        <time>2012-01-28T15:17:13Z</time>
      </trkpt>
      <trkpt lat="44.82258" lon="-0.3216">
        <ele>61</ele>
        <time>2012-01-28T15:17:16Z</time>
      </trkpt>
      <trkpt lat="44.82258" lon="-0.32142">
        <ele>61</ele>
        <time>2012-01-28T15:17:19Z</time>
      </trkpt>
      <trkpt lat="44.82258" lon="-0.32128">
        <ele>61</ele>
        <time>2012-01-28T15:17:21Z</time>
      </trkpt>
      <trkpt lat="44.82258" lon="-0.32109">
        <ele>61</ele>
        <time>2012-01-28T15:17:24Z</time>
      </trkpt>
      <trkpt lat="44.82258" lon="-0.3209">
        <ele>61</ele>
        <time>2012-01-28T15:17:27Z</time>
      </trkpt>
      <trkpt lat="44.82256" lon="-0.32076">
        <ele>61</ele>
        <time>2012-01-28T15:17:29Z</time>
      </trkpt>
      <trkpt lat="44.82256" lon="-0.32059">
        <ele>61</ele>
        <time>2012-01-28T15:17:32Z</time>
      </trkpt>
      <trkpt lat="44.82256" lon="-0.32042">
        <ele>61</ele>
        <time>2012-01-28T15:17:35Z</time>
      </trkpt>
      <trkpt lat="44.82258" lon="-0.32027">
        <ele>61</ele>
        <time>2012-01-28T15:17:38Z</time>
      </trkpt>
      <trkpt lat="44.82258" lon="-0.3201">
        <ele>61</ele>
        <time>2012-01-28T15:17:41Z</time>
      </trkpt>
      <trkpt lat="44.82259" lon="-0.31993">
        <ele>61</ele>
        <time>2012-01-28T15:17:44Z</time>
      </trkpt>
      <trkpt lat="44.82261" lon="-0.31977">
        <ele>61</ele>
        <time>2012-01-28T15:17:47Z</time>
      </trkpt>
      <trkpt lat="44.82261" lon="-0.3196">
        <ele>61</ele>
        <time>2012-01-28T15:17:50Z</time>
      </trkpt>
      <trkpt lat="44.82263" lon="-0.31946">
        <ele>61</ele>
        <time>2012-01-28T15:17:53Z</time>
      </trkpt>
      <trkpt lat="44.82266" lon="-0.31931">
        <ele>61</ele>
        <time>2012-01-28T15:17:57Z</time>
      </trkpt>
      <trkpt lat="44.8227" lon="-0.31916">
        <ele>61</ele>
        <time>2012-01-28T15:18:00Z</time>
      </trkpt>
      <trkpt lat="44.82272" lon="-0.31901">
        <ele>60</ele>
        <time>2012-01-28T15:18:03Z</time>
      </trkpt>
      <trkpt lat="44.82272" lon="-0.31884">
        <ele>60</ele>
        <time>2012-01-28T15:18:06Z</time>
      </trkpt>
      <trkpt lat="44.82273" lon="-0.31867">
        <ele>60</ele>
        <time>2012-01-28T15:18:09Z</time>
      </trkpt>
      <trkpt lat="44.82272" lon="-0.31848">
        <ele>59</ele>
        <time>2012-01-28T15:18:12Z</time>
      </trkpt>
      <trkpt lat="44.82272" lon="-0.3183">
        <ele>59</ele>
        <time>2012-01-28T15:18:15Z</time>
      </trkpt>
      <trkpt lat="44.82272" lon="-0.3181">
        <ele>59</ele>
        <time>2012-01-28T15:18:18Z</time>
      </trkpt>
      <trkpt lat="44.82271" lon="-0.31796">
        <ele>58</ele>
        <time>2012-01-28T15:18:20Z</time>
      </trkpt>
      <trkpt lat="44.8227" lon="-0.31781">
        <ele>58</ele>
        <time>2012-01-28T15:18:22Z</time>
      </trkpt>
      <trkpt lat="44.8227" lon="-0.31764">
        <ele>58</ele>
        <time>2012-01-28T15:18:24Z</time>
      </trkpt>
      <trkpt lat="44.82269" lon="-0.31747">
        <ele>57</ele>
        <time>2012-01-28T15:18:26Z</time>
      </trkpt>
      <trkpt lat="44.82268" lon="-0.31732">
        <ele>57</ele>
        <time>2012-01-28T15:18:28Z</time>
      </trkpt>
      <trkpt lat="44.82266" lon="-0.31717">
        <ele>57</ele>
        <time>2012-01-28T15:18:30Z</time>
      </trkpt>
      <trkpt lat="44.82265" lon="-0.31702">
        <ele>56</ele>
        <time>2012-01-28T15:18:32Z</time>
      </trkpt>
      <trkpt lat="44.82263" lon="-0.31687">
        <ele>56</ele>
        <time>2012-01-28T15:18:34Z</time>
      </trkpt>
      <trkpt lat="44.82261" lon="-0.31674">
        <ele>55</ele>
        <time>2012-01-28T15:18:36Z</time>
      </trkpt>
      <trkpt lat="44.82258" lon="-0.3166">
        <ele>55</ele>
        <time>2012-01-28T15:18:38Z</time>
      </trkpt>
      <trkpt lat="44.82256" lon="-0.31646">
        <ele>55</ele>
        <time>2012-01-28T15:18:40Z</time>
      </trkpt>
      <trkpt lat="44.82254" lon="-0.31632">
        <ele>54</ele>
        <time>2012-01-28T15:18:42Z</time>
      </trkpt>
      <trkpt lat="44.82254" lon="-0.31616">
        <ele>54</ele>
        <time>2012-01-28T15:18:44Z</time>
      </trkpt>
      <trkpt lat="44.82256" lon="-0.316">
        <ele>54</ele>
        <time>2012-01-28T15:18:46Z</time>
      </trkpt>
      <trkpt lat="44.82259" lon="-0.31584">
        <ele>53</ele>
        <time>2012-01-28T15:18:48Z</time>
      </trkpt>
      <trkpt lat="44.82264" lon="-0.31568">
        <ele>53</ele>
        <time>2012-01-28T15:18:50Z</time>
      </trkpt>
      <trkpt lat="44.82268" lon="-0.31552">
        <ele>52</ele>
        <time>2012-01-28T15:18:52Z</time>
      </trkpt>
      <trkpt lat="44.82273" lon="-0.31535">
        <ele>52</ele>
        <time>2012-01-28T15:18:54Z</time>
      </trkpt>
      <trkpt lat="44.82277" lon="-0.31519">
        <ele>51</ele>
        <time>2012-01-28T15:18:56Z</time>
      </trkpt>
      <trkpt lat="44.82281" lon="-0.31505">
        <ele>51</ele>
        <time>2012-01-28T15:18:58Z</time>
      </trkpt>
      <trkpt lat="44.82285" lon="-0.3149">
        <ele>51</ele>
        <time>2012-01-28T15:19:00Z</time>
      </trkpt>
      <trkpt lat="44.82288" lon="-0.31478">
        <ele>51</ele>
        <time>2012-01-28T15:19:02Z</time>
      </trkpt>
      <trkpt lat="44.82291" lon="-0.31464">
        <ele>50</ele>
        <time>2012-01-28T15:19:04Z</time>
      </trkpt>
      <trkpt lat="44.82291" lon="-0.3145">
        <ele>50</ele>
        <time>2012-01-28T15:19:06Z</time>
      </trkpt>
      <trkpt lat="44.82289" lon="-0.31437">
        <ele>50</ele>
        <time>2012-01-28T15:19:08Z</time>
      </trkpt>
      <trkpt lat="44.82286" lon="-0.31423">
        <ele>50</ele>
        <time>2012-01-28T15:19:10Z</time>
      </trkpt>
      <trkpt lat="44.82283" lon="-0.31411">
        <ele>49</ele>
        <time>2012-01-28T15:19:12Z</time>
      </trkpt>
      <trkpt lat="44.82281" lon="-0.31396">
        <ele>49</ele>
        <time>2012-01-28T15:19:14Z</time>
      </trkpt>
      <trkpt lat="44.82281" lon="-0.31382">
        <ele>49</ele>
        <time>2012-01-28T15:19:16Z</time>
      </trkpt>
      <trkpt lat="44.82282" lon="-0.31367">
        <ele>48</ele>
        <time>2012-01-28T15:19:18Z</time>
      </trkpt>
      <trkpt lat="44.82284" lon="-0.31353">
        <ele>48</ele>
        <time>2012-01-28T15:19:20Z</time>
      </trkpt>
      <trkpt lat="44.82286" lon="-0.3134">
        <ele>48</ele>
        <time>2012-01-28T15:19:22Z</time>
      </trkpt>
      <trkpt lat="44.82291" lon="-0.31324">
        <ele>48</ele>
        <time>2012-01-28T15:19:25Z</time>
      </trkpt>
      <trkpt lat="44.82295" lon="-0.31311">
        <ele>48</ele>
        <time>2012-01-28T15:19:30Z</time>
      </trkpt>
      <trkpt lat="44.82291" lon="-0.31295">
        <ele>48</ele>
        <time>2012-01-28T15:19:55Z</time>
      </trkpt>
      <trkpt lat="44.82283" lon="-0.31281">
        <ele>48</ele>
        <time>2012-01-28T15:19:59Z</time>
      </trkpt>
      <trkpt lat="44.82274" lon="-0.31274">
        <ele>48</ele>
        <time>2012-01-28T15:20:02Z</time>
      </trkpt>
      <trkpt lat="44.82265" lon="-0.3127">
        <ele>48</ele>
        <time>2012-01-28T15:20:05Z</time>
      </trkpt>
      <trkpt lat="44.82254" lon="-0.31267">
        <ele>49</ele>
        <time>2012-01-28T15:20:09Z</time>
      </trkpt>
      <trkpt lat="44.82243" lon="-0.31263">
        <ele>49</ele>
        <time>2012-01-28T15:20:13Z</time>
      </trkpt>
      <trkpt lat="44.82232" lon="-0.3126">
        <ele>50</ele>
        <time>2012-01-28T15:20:18Z</time>
      </trkpt>
      <trkpt lat="44.82223" lon="-0.31255">
        <ele>50</ele>
        <time>2012-01-28T15:20:22Z</time>
      </trkpt>
      <trkpt lat="44.82219" lon="-0.31242">
        <ele>50</ele>
        <time>2012-01-28T15:20:28Z</time>
      </trkpt>
      <trkpt lat="44.82217" lon="-0.31227">
        <ele>50</ele>
        <time>2012-01-28T15:20:33Z</time>
      </trkpt>
      <trkpt lat="44.82213" lon="-0.31214">
        <ele>50</ele>
        <time>2012-01-28T15:20:37Z</time>
      </trkpt>
      <trkpt lat="44.82205" lon="-0.31203">
        <ele>50</ele>
        <time>2012-01-28T15:20:41Z</time>
      </trkpt>
      <trkpt lat="44.82196" lon="-0.31197">
        <ele>50</ele>
        <time>2012-01-28T15:20:44Z</time>
      </trkpt>
      <trkpt lat="44.82185" lon="-0.3119">
        <ele>50</ele>
        <time>2012-01-28T15:20:47Z</time>
      </trkpt>
      <trkpt lat="44.82175" lon="-0.31182">
        <ele>50</ele>
        <time>2012-01-28T15:20:50Z</time>
      </trkpt>
      <trkpt lat="44.82168" lon="-0.31169">
        <ele>49</ele>
        <time>2012-01-28T15:20:53Z</time>
      </trkpt>
      <trkpt lat="44.82165" lon="-0.31151">
        <ele>49</ele>
        <time>2012-01-28T15:20:56Z</time>
      </trkpt>
      <trkpt lat="44.82166" lon="-0.31137">
        <ele>49</ele>
        <time>2012-01-28T15:20:58Z</time>
      </trkpt>
      <trkpt lat="44.82165" lon="-0.31119">
        <ele>48</ele>
        <time>2012-01-28T15:21:01Z</time>
      </trkpt>
      <trkpt lat="44.82165" lon="-0.31102">
        <ele>48</ele>
        <time>2012-01-28T15:21:04Z</time>
      </trkpt>
      <trkpt lat="44.82164" lon="-0.31086">
        <ele>48</ele>
        <time>2012-01-28T15:21:07Z</time>
      </trkpt>
      <trkpt lat="44.82162" lon="-0.31072">
        <ele>48</ele>
        <time>2012-01-28T15:21:10Z</time>
      </trkpt>
      <trkpt lat="44.8216" lon="-0.31058">
        <ele>48</ele>
        <time>2012-01-28T15:21:14Z</time>
      </trkpt>
      <trkpt lat="44.82158" lon="-0.31045">
        <ele>48</ele>
        <time>2012-01-28T15:21:26Z</time>
      </trkpt>
      <trkpt lat="44.82165" lon="-0.31035">
        <ele>48</ele>
        <time>2012-01-28T15:21:35Z</time>
      </trkpt>
      <trkpt lat="44.82171" lon="-0.31022">
        <ele>48</ele>
        <time>2012-01-28T15:21:41Z</time>
      </trkpt>
      <trkpt lat="44.82171" lon="-0.31008">
        <ele>49</ele>
        <time>2012-01-28T15:21:46Z</time>
      </trkpt>
      <trkpt lat="44.82174" lon="-0.30992">
        <ele>49</ele>
        <time>2012-01-28T15:21:51Z</time>
      </trkpt>
      <trkpt lat="44.82177" lon="-0.30978">
        <ele>49</ele>
        <time>2012-01-28T15:21:55Z</time>
      </trkpt>
      <trkpt lat="44.82178" lon="-0.30961">
        <ele>50</ele>
        <time>2012-01-28T15:21:59Z</time>
      </trkpt>
      <trkpt lat="44.8218" lon="-0.30947">
        <ele>50</ele>
        <time>2012-01-28T15:22:04Z</time>
      </trkpt>
      <trkpt lat="44.82181" lon="-0.30932">
        <ele>50</ele>
        <time>2012-01-28T15:22:10Z</time>
      </trkpt>
      <trkpt lat="44.82183" lon="-0.30917">
        <ele>51</ele>
        <time>2012-01-28T15:22:18Z</time>
      </trkpt>
      <trkpt lat="44.82184" lon="-0.30904">
        <ele>51</ele>
        <time>2012-01-28T15:22:25Z</time>
      </trkpt>
      <trkpt lat="44.82183" lon="-0.3089">
        <ele>51</ele>
        <time>2012-01-28T15:22:31Z</time>
      </trkpt>
      <trkpt lat="44.82183" lon="-0.30875">
        <ele>51</ele>
        <time>2012-01-28T15:22:38Z</time>
      </trkpt>
      <trkpt lat="44.82173" lon="-0.3087">
        <ele>52</ele>
        <time>2012-01-28T15:22:44Z</time>
      </trkpt>
      <trkpt lat="44.82164" lon="-0.30863">
        <ele>52</ele>
        <time>2012-01-28T15:22:49Z</time>
      </trkpt>
      <trkpt lat="44.82154" lon="-0.30858">
        <ele>52</ele>
        <time>2012-01-28T15:22:53Z</time>
      </trkpt>
      <trkpt lat="44.82147" lon="-0.30847">
        <ele>53</ele>
        <time>2012-01-28T15:22:57Z</time>
      </trkpt>
      <trkpt lat="44.82142" lon="-0.30832">
        <ele>53</ele>
        <time>2012-01-28T15:23:01Z</time>
      </trkpt>
      <trkpt lat="44.82138" lon="-0.30819">
        <ele>54</ele>
        <time>2012-01-28T15:23:04Z</time>
      </trkpt>
      <trkpt lat="44.82132" lon="-0.30805">
        <ele>54</ele>
        <time>2012-01-28T15:23:08Z</time>
      </trkpt>
      <trkpt lat="44.82126" lon="-0.30791">
        <ele>55</ele>
        <time>2012-01-28T15:23:12Z</time>
      </trkpt>
      <trkpt lat="44.82122" lon="-0.30778">
        <ele>55</ele>
        <time>2012-01-28T15:23:15Z</time>
      </trkpt>
      <trkpt lat="44.82118" lon="-0.30765">
        <ele>56</ele>
        <time>2012-01-28T15:23:19Z</time>
      </trkpt>
      <trkpt lat="44.82112" lon="-0.30752">
        <ele>56</ele>
        <time>2012-01-28T15:23:23Z</time>
      </trkpt>
      <trkpt lat="44.82107" lon="-0.30739">
        <ele>56</ele>
        <time>2012-01-28T15:23:27Z</time>
      </trkpt>
      <trkpt lat="44.82101" lon="-0.30726">
        <ele>56</ele>
        <time>2012-01-28T15:23:31Z</time>
      </trkpt>
      <trkpt lat="44.82096" lon="-0.30712">
        <ele>56</ele>
        <time>2012-01-28T15:23:35Z</time>
      </trkpt>
      <trkpt lat="44.8209" lon="-0.30698">
        <ele>56</ele>
        <time>2012-01-28T15:23:39Z</time>
      </trkpt>
      <trkpt lat="44.82085" lon="-0.30685">
        <ele>56</ele>
        <time>2012-01-28T15:23:43Z</time>
      </trkpt>
      <trkpt lat="44.8208" lon="-0.30673">
        <ele>57</ele>
        <time>2012-01-28T15:23:46Z</time>
      </trkpt>
      <trkpt lat="44.82074" lon="-0.3066">
        <ele>57</ele>
        <time>2012-01-28T15:23:50Z</time>
      </trkpt>
      <trkpt lat="44.82068" lon="-0.30646">
        <ele>57</ele>
        <time>2012-01-28T15:23:54Z</time>
      </trkpt>
      <trkpt lat="44.82063" lon="-0.30633">
        <ele>57</ele>
        <time>2012-01-28T15:23:58Z</time>
      </trkpt>
      <trkpt lat="44.82057" lon="-0.3062">
        <ele>57</ele>
        <time>2012-01-28T15:24:03Z</time>
      </trkpt>
      <trkpt lat="44.82052" lon="-0.30607">
        <ele>57</ele>
        <time>2012-01-28T15:24:07Z</time>
      </trkpt>
      <trkpt lat="44.82048" lon="-0.30596">
        <ele>57</ele>
        <time>2012-01-28T15:24:11Z</time>
      </trkpt>
      <trkpt lat="44.82042" lon="-0.30581">
        <ele>57</ele>
        <time>2012-01-28T15:24:16Z</time>
      </trkpt>
      <trkpt lat="44.82038" lon="-0.30566">
        <ele>58</ele>
        <time>2012-01-28T15:24:21Z</time>
      </trkpt>
      <trkpt lat="44.82032" lon="-0.30552">
        <ele>58</ele>
        <time>2012-01-28T15:24:25Z</time>
      </trkpt>
      <trkpt lat="44.82027" lon="-0.30539">
        <ele>59</ele>
        <time>2012-01-28T15:24:29Z</time>
      </trkpt>
      <trkpt lat="44.82023" lon="-0.30527">
        <ele>59</ele>
        <time>2012-01-28T15:24:33Z</time>
      </trkpt>
      <trkpt lat="44.82018" lon="-0.30515">
        <ele>60</ele>
        <time>2012-01-28T15:24:37Z</time>
      </trkpt>
      <trkpt lat="44.82013" lon="-0.30502">
        <ele>60</ele>
        <time>2012-01-28T15:24:41Z</time>
      </trkpt>
      <trkpt lat="44.82008" lon="-0.3049">
        <ele>60</ele>
        <time>2012-01-28T15:24:45Z</time>
      </trkpt>
      <trkpt lat="44.82004" lon="-0.30477">
        <ele>60</ele>
        <time>2012-01-28T15:24:49Z</time>
      </trkpt>
      <trkpt lat="44.81999" lon="-0.30465">
        <ele>60</ele>
        <time>2012-01-28T15:24:53Z</time>
      </trkpt>
      <trkpt lat="44.81994" lon="-0.30451">
        <ele>60</ele>
        <time>2012-01-28T15:24:57Z</time>
      </trkpt>
      <trkpt lat="44.8199" lon="-0.30439">
        <ele>60</ele>
        <time>2012-01-28T15:25:01Z</time>
      </trkpt>
      <trkpt lat="44.81985" lon="-0.30428">
        <ele>60</ele>
        <time>2012-01-28T15:25:05Z</time>
      </trkpt>
      <trkpt lat="44.8198" lon="-0.30416">
        <ele>60</ele>
        <time>2012-01-28T15:25:09Z</time>
      </trkpt>
      <trkpt lat="44.81976" lon="-0.30404">
        <ele>61</ele>
        <time>2012-01-28T15:25:13Z</time>
      </trkpt>
      <trkpt lat="44.8197" lon="-0.30391">
        <ele>61</ele>
        <time>2012-01-28T15:25:17Z</time>
      </trkpt>
      <trkpt lat="44.81966" lon="-0.30379">
        <ele>61</ele>
        <time>2012-01-28T15:25:21Z</time>
      </trkpt>
      <trkpt lat="44.81962" lon="-0.30367">
        <ele>61</ele>
        <time>2012-01-28T15:25:25Z</time>
      </trkpt>
      <trkpt lat="44.81957" lon="-0.30354">
        <ele>62</ele>
        <time>2012-01-28T15:25:29Z</time>
      </trkpt>
      <trkpt lat="44.81953" lon="-0.30342">
        <ele>62</ele>
        <time>2012-01-28T15:25:33Z</time>
      </trkpt>
      <trkpt lat="44.81947" lon="-0.30329">
        <ele>62</ele>
        <time>2012-01-28T15:25:38Z</time>
      </trkpt>
      <trkpt lat="44.81942" lon="-0.30315">
        <ele>62</ele>
        <time>2012-01-28T15:25:43Z</time>
      </trkpt>
      <trkpt lat="44.81937" lon="-0.30303">
        <ele>63</ele>
        <time>2012-01-28T15:25:48Z</time>
      </trkpt>
      <trkpt lat="44.81932" lon="-0.30291">
        <ele>63</ele>
        <time>2012-01-28T15:25:54Z</time>
      </trkpt>
      <trkpt lat="44.81927" lon="-0.30279">
        <ele>64</ele>
        <time>2012-01-28T15:26:00Z</time>
      </trkpt>
      <trkpt lat="44.81922" lon="-0.30266">
        <ele>64</ele>
        <time>2012-01-28T15:26:06Z</time>
      </trkpt>
      <trkpt lat="44.81917" lon="-0.30254">
        <ele>65</ele>
        <time>2012-01-28T15:26:12Z</time>
      </trkpt>
      <trkpt lat="44.81912" lon="-0.30242">
        <ele>65</ele>
        <time>2012-01-28T15:26:18Z</time>
      </trkpt>
      <trkpt lat="44.81907" lon="-0.30229">
        <ele>65</ele>
        <time>2012-01-28T15:26:24Z</time>
      </trkpt>
      <trkpt lat="44.81901" lon="-0.30218">
        <ele>65</ele>
        <time>2012-01-28T15:26:29Z</time>
      </trkpt>
      <trkpt lat="44.81896" lon="-0.30205">
        <ele>66</ele>
        <time>2012-01-28T15:26:35Z</time>
      </trkpt>
      <trkpt lat="44.81891" lon="-0.30193">
        <ele>66</ele>
        <time>2012-01-28T15:26:40Z</time>
      </trkpt>
      <trkpt lat="44.81885" lon="-0.30179">
        <ele>66</ele>
        <time>2012-01-28T15:26:46Z</time>
      </trkpt>
      <trkpt lat="44.81882" lon="-0.30166">
        <ele>66</ele>
        <time>2012-01-28T15:26:51Z</time>
      </trkpt>
      <trkpt lat="44.81879" lon="-0.30153">
        <ele>67</ele>
        <time>2012-01-28T15:26:55Z</time>
      </trkpt>
      <trkpt lat="44.81878" lon="-0.30138">
        <ele>67</ele>
        <time>2012-01-28T15:27:00Z</time>
      </trkpt>
      <trkpt lat="44.81879" lon="-0.30122">
        <ele>67</ele>
        <time>2012-01-28T15:27:04Z</time>
      </trkpt>
      <trkpt lat="44.8188" lon="-0.30105">
        <ele>67</ele>
        <time>2012-01-28T15:27:09Z</time>
      </trkpt>
      <trkpt lat="44.8188" lon="-0.3009">
        <ele>67</ele>
        <time>2012-01-28T15:27:14Z</time>
      </trkpt>
      <trkpt lat="44.81881" lon="-0.30077">
        <ele>67</ele>
        <time>2012-01-28T15:27:19Z</time>
      </trkpt>
      <trkpt lat="44.81883" lon="-0.30064">
        <ele>67</ele>
        <time>2012-01-28T15:27:25Z</time>
      </trkpt>
      <trkpt lat="44.81887" lon="-0.3005">
        <ele>67</ele>
        <time>2012-01-28T15:27:30Z</time>
      </trkpt>
      <trkpt lat="44.81893" lon="-0.30036">
        <ele>67</ele>
        <time>2012-01-28T15:27:37Z</time>
      </trkpt>
      <trkpt lat="44.81896" lon="-0.30023">
        <ele>66</ele>
        <time>2012-01-28T15:27:42Z</time>
      </trkpt>
      <trkpt lat="44.81898" lon="-0.30007">
        <ele>66</ele>
        <time>2012-01-28T15:27:47Z</time>
      </trkpt>
      <trkpt lat="44.81898" lon="-0.29994">
        <ele>66</ele>
        <time>2012-01-28T15:27:52Z</time>
      </trkpt>
      <trkpt lat="44.81898" lon="-0.29979">
        <ele>66</ele>
        <time>2012-01-28T15:27:58Z</time>
      </trkpt>
      <trkpt lat="44.81898" lon="-0.29962">
        <ele>65</ele>
        <time>2012-01-28T15:28:03Z</time>
      </trkpt>
      <trkpt lat="44.81897" lon="-0.29949">
        <ele>65</ele>
        <time>2012-01-28T15:28:08Z</time>
      </trkpt>
      <trkpt lat="44.81896" lon="-0.29936">
        <ele>65</ele>
        <time>2012-01-28T15:28:13Z</time>
      </trkpt>
      <trkpt lat="44.81896" lon="-0.29921">
        <ele>65</ele>
        <time>2012-01-28T15:28:18Z</time>
      </trkpt>
      <trkpt lat="44.81894" lon="-0.29907">
        <ele>66</ele>
        <time>2012-01-28T15:28:23Z</time>
      </trkpt>
      <trkpt lat="44.81891" lon="-0.29894">
        <ele>66</ele>
        <time>2012-01-28T15:28:28Z</time>
      </trkpt>
      <trkpt lat="44.81887" lon="-0.29882">
        <ele>66</ele>
        <time>2012-01-28T15:28:33Z</time>
      </trkpt>
      <trkpt lat="44.81887" lon="-0.29867">
        <ele>67</ele>
        <time>2012-01-28T15:30:56Z</time>
      </trkpt>
      <trkpt lat="44.81886" lon="-0.29853">
        <ele>67</ele>
        <time>2012-01-28T15:31:01Z</time>
      </trkpt>
      <trkpt lat="44.81885" lon="-0.29838">
        <ele>68</ele>
        <time>2012-01-28T15:31:05Z</time>
      </trkpt>
      <trkpt lat="44.81885" lon="-0.29822">
        <ele>68</ele>
        <time>2012-01-28T15:31:09Z</time>
      </trkpt>
      <trkpt lat="44.81884" lon="-0.29805">
        <ele>68</ele>
        <time>2012-01-28T15:31:13Z</time>
      </trkpt>
      <trkpt lat="44.81883" lon="-0.29792">
        <ele>68</ele>
        <time>2012-01-28T15:31:16Z</time>
      </trkpt>
      <trkpt lat="44.81883" lon="-0.29775">
        <ele>68</ele>
        <time>2012-01-28T15:31:20Z</time>
      </trkpt>
      <trkpt lat="44.81883" lon="-0.29761">
        <ele>68</ele>
        <time>2012-01-28T15:31:23Z</time>
      </trkpt>
      <trkpt lat="44.81882" lon="-0.29748">
        <ele>68</ele>
        <time>2012-01-28T15:31:26Z</time>
      </trkpt>
      <trkpt lat="44.81882" lon="-0.29734">
        <ele>68</ele>
        <time>2012-01-28T15:31:30Z</time>
      </trkpt>
      <trkpt lat="44.81882" lon="-0.29721">
        <ele>68</ele>
        <time>2012-01-28T15:31:34Z</time>
      </trkpt>
      <trkpt lat="44.81881" lon="-0.29705">
        <ele>68</ele>
        <time>2012-01-28T15:31:39Z</time>
      </trkpt>
      <trkpt lat="44.8188" lon="-0.29688">
        <ele>68</ele>
        <time>2012-01-28T15:31:44Z</time>
      </trkpt>
      <trkpt lat="44.8188" lon="-0.29673">
        <ele>67</ele>
        <time>2012-01-28T15:31:49Z</time>
      </trkpt>
      <trkpt lat="44.81878" lon="-0.29657">
        <ele>67</ele>
        <time>2012-01-28T15:31:54Z</time>
      </trkpt>
      <trkpt lat="44.81875" lon="-0.29644">
        <ele>67</ele>
        <time>2012-01-28T15:31:58Z</time>
      </trkpt>
      <trkpt lat="44.81868" lon="-0.29632">
        <ele>67</ele>
        <time>2012-01-28T15:32:02Z</time>
      </trkpt>
      <trkpt lat="44.81859" lon="-0.29624">
        <ele>67</ele>
        <time>2012-01-28T15:32:06Z</time>
      </trkpt>
      <trkpt lat="44.8185" lon="-0.29617">
        <ele>67</ele>
        <time>2012-01-28T15:32:10Z</time>
      </trkpt>
      <trkpt lat="44.81842" lon="-0.29605">
        <ele>67</ele>
        <time>2012-01-28T15:32:15Z</time>
      </trkpt>
      <trkpt lat="44.81835" lon="-0.29593">
        <ele>67</ele>
        <time>2012-01-28T15:32:20Z</time>
      </trkpt>
      <trkpt lat="44.81829" lon="-0.2958">
        <ele>67</ele>
        <time>2012-01-28T15:32:25Z</time>
      </trkpt>
      <trkpt lat="44.8183" lon="-0.29566">
        <ele>67</ele>
        <time>2012-01-28T15:32:32Z</time>
      </trkpt>
      <trkpt lat="44.8184" lon="-0.29562">
        <ele>67</ele>
        <time>2012-01-28T15:32:36Z</time>
      </trkpt>
      <trkpt lat="44.81852" lon="-0.29559">
        <ele>66</ele>
        <time>2012-01-28T15:32:39Z</time>
      </trkpt>
      <trkpt lat="44.81866" lon="-0.29555">
        <ele>66</ele>
        <time>2012-01-28T15:32:42Z</time>
      </trkpt>
      <trkpt lat="44.81878" lon="-0.2955">
        <ele>64</ele>
        <time>2012-01-28T15:32:45Z</time>
      </trkpt>
      <trkpt lat="44.81891" lon="-0.29546">
        <ele>63</ele>
        <time>2012-01-28T15:32:48Z</time>
      </trkpt>
      <trkpt lat="44.819" lon="-0.29542">
        <ele>63</ele>
        <time>2012-01-28T15:32:50Z</time>
      </trkpt>
      <trkpt lat="44.8191" lon="-0.29538">
        <ele>62</ele>
        <time>2012-01-28T15:32:52Z</time>
      </trkpt>
      <trkpt lat="44.81921" lon="-0.29534">
        <ele>61</ele>
        <time>2012-01-28T15:32:54Z</time>
      </trkpt>
      <trkpt lat="44.81932" lon="-0.29529">
        <ele>60</ele>
        <time>2012-01-28T15:32:56Z</time>
      </trkpt>
      <trkpt lat="44.81946" lon="-0.29527">
        <ele>58</ele>
        <time>2012-01-28T15:32:58Z</time>
      </trkpt>
      <trkpt lat="44.81958" lon="-0.29522">
        <ele>58</ele>
        <time>2012-01-28T15:33:00Z</time>
      </trkpt>
      <trkpt lat="44.81969" lon="-0.29518">
        <ele>57</ele>
        <time>2012-01-28T15:33:02Z</time>
      </trkpt>
      <trkpt lat="44.81979" lon="-0.29513">
        <ele>56</ele>
        <time>2012-01-28T15:33:04Z</time>
      </trkpt>
      <trkpt lat="44.8199" lon="-0.29511">
        <ele>56</ele>
        <time>2012-01-28T15:33:06Z</time>
      </trkpt>
      <trkpt lat="44.81999" lon="-0.29508">
        <ele>55</ele>
        <time>2012-01-28T15:33:08Z</time>
      </trkpt>
      <trkpt lat="44.82009" lon="-0.29504">
        <ele>55</ele>
        <time>2012-01-28T15:33:11Z</time>
      </trkpt>
      <trkpt lat="44.82016" lon="-0.29495">
        <ele>54</ele>
        <time>2012-01-28T15:33:32Z</time>
      </trkpt>
    </trkseg>
  </trk>
</gpx>